[[{"header":{"parameterUnit":"m.s-1","parameterCategory":1,"la1":30.6,"la2":29.2853,"lo1":-89.7004,"lo2":-87.6739,"dy":0.0162,"dx":0.0183,"nx":112,"ny":82,"refTime":"2024-09-25T18:00:00:Z","depth":0,"parameterNumber":2,"parameterNumberName":"U-component_of_WINDS"},"data":[0.0,0.0,0.0,0.0,0.0,0.0,0.0,0.0,0.0,0.0,0.0,0.0,0.0,0.0,0.0,0.0,0.0,0.0,0.0,0.0,0.0,0.0,0.0,0.0,0.0,0.0,0.0,0.0,0.0,0.0,0.0,0.0,0.0,0.0,0.0,0.0,0.0,0.0,0.0,0.0,0.0,0.0,0.0,0.0,0.0,0.0,0.0,0.0,0.0,0.0,0.0,0.0,0.0,0.0,0.0,0.0,0.0,0.0,0.0,0.0,0.0,0.0,0.0,0.0,0.0,0.0,0.0,0.0,0.0,0.0,0.0,0.0,0.0,0.0,0.0,0.0,0.0,0.0,0.0,0.0,0.0,0.0,0.0,0.0,0.0,0.0,0.0,0.0,0.0,0.0,-1.3371,-1.4441,-1.5353,-1.5891,-1.5891,-1.5848,-1.5107,-1.3075,0.0,0.0,0.0,0.0,0.0,0.0,0.0,0.0,0.0,0.0,0.0,0.0,0.0,0.0,0.0,0.0,0.0,0.0,0.0,0.0,0.0,0.0,0.0,0.0,0.0,0.0,0.0,0.0,0.0,0.0,0.0,0.0,0.0,0.0,0.0,0.0,0.0,0.0,0.0,0.0,0.0,0.0,0.0,0.0,0.0,0.0,0.0,0.0,0.0,0.0,0.0,0.0,0.0,0.0,0.0,0.0,0.0,0.0,0.0,0.0,0.0,0.0,0.0,0.0,0.0,0.0,0.0,0.0,0.0,0.0,0.0,0.0,0.0,0.0,0.0,0.0,0.0,0.0,0.0,0.0,0.0,0.0,0.0,0.0,0.0,0.0,0.0,0.0,0.0,0.0,0.0,0.0,0.0,0.0,0.0,0.0,0.0,0.0,0.0,0.0,0.0,0.0,0.0,0.0,-1.4458,-1.5589,-1.5798,-1.5891,-1.5891,-1.5909,-1.5363,-1.4124,0.0,0.0,0.0,0.0,0.0,0.0,0.0,0.0,0.0,0.0,0.0,0.0,0.0,0.0,0.0,0.0,0.0,0.0,0.0,0.0,0.0,0.0,0.0,0.0,0.0,0.0,0.0,0.0,0.0,0.0,0.0,0.0,0.0,0.0,0.0,0.0,0.0,0.0,0.0,0.0,0.0,0.0,0.0,0.0,0.0,0.0,0.0,0.0,0.0,0.0,0.0,0.0,0.0,0.0,0.0,0.0,0.0,0.0,0.0,0.0,0.0,0.0,0.0,0.0,0.0,0.0,0.0,0.0,0.0,0.0,0.0,0.0,0.0,0.0,0.0,0.0,0.0,0.0,0.0,0.0,0.0,0.0,0.0,0.0,0.0,0.0,0.0,0.0,0.0,0.0,0.0,0.0,0.0,0.0,0.0,0.0,0.0,0.0,0.0,0.0,0.0,0.0,0.0,-1.5081,-1.5329,-1.5836,-1.5931,-1.5943,-1.5921,-1.5915,-1.5689,-1.5191,-1.3099,0.0,0.0,0.0,0.0,0.0,0.0,0.0,0.0,0.0,0.0,0.0,0.0,0.0,0.0,0.0,0.0,0.0,0.0,0.0,0.0,0.0,0.0,0.0,0.0,0.0,0.0,0.0,0.0,0.0,0.0,0.0,0.0,0.0,0.0,0.0,0.0,0.0,0.0,0.0,0.0,0.0,0.0,0.0,0.0,0.0,0.0,0.0,0.0,0.0,0.0,0.0,0.0,0.0,0.0,0.0,0.0,0.0,0.0,0.0,0.0,0.0,0.0,0.0,0.0,0.0,0.0,0.0,0.0,0.0,0.0,0.0,0.0,0.0,0.0,0.0,0.0,0.0,0.0,0.0,0.0,0.0,0.0,0.0,0.0,0.0,0.0,0.0,0.0,0.0,0.0,0.0,0.0,0.0,0.0,0.0,0.0,0.0,0.0,0.0,0.0,0.0,0.0,-1.5126,-1.5941,-1.5931,-1.5891,-1.5925,-1.5953,-1.5196,-1.4724,-1.4806,-1.2497,0.0,0.0,0.0,0.0,0.0,0.0,0.0,0.0,0.0,0.0,0.0,0.0,0.0,0.0,0.0,0.0,0.0,0.0,0.0,0.0,0.0,0.0,0.0,0.0,0.0,0.0,0.0,0.0,0.0,0.0,0.0,0.0,0.0,0.0,0.0,0.0,0.0,0.0,0.0,0.0,0.0,0.0,0.0,0.0,0.0,0.0,0.0,0.0,0.0,0.0,0.0,0.0,0.0,0.0,0.0,0.0,0.0,0.0,0.0,0.0,0.0,0.0,0.0,0.0,0.0,0.0,0.0,0.0,0.0,0.0,0.0,0.0,0.0,0.0,0.0,0.0,0.0,0.0,0.0,0.0,0.0,0.0,0.0,0.0,0.0,0.0,0.0,0.0,0.0,0.0,0.0,0.0,0.0,0.0,0.0,0.0,0.0,0.0,0.0,0.0,0.0,0.0,-1.4654,-1.5903,-1.5861,-1.5891,-1.5885,-1.5867,-1.3185,-1.1448,-1.1475,-1.1223,0.0,0.0,0.0,0.0,0.0,0.0,0.0,0.0,0.0,0.0,0.0,0.0,0.0,0.0,0.0,0.0,0.0,0.0,0.0,0.0,0.0,0.0,0.0,0.0,0.0,0.0,0.0,0.0,0.0,0.0,0.0,0.0,0.0,0.0,0.0,0.0,0.0,0.0,0.0,0.0,0.0,0.0,0.0,0.0,0.0,0.0,0.0,0.0,0.0,0.0,0.0,0.0,0.0,0.0,0.0,0.0,0.0,0.0,0.0,0.0,0.0,0.0,0.0,0.0,0.0,0.0,0.0,0.0,0.0,0.0,0.0,0.0,0.0,0.0,0.0,0.0,0.0,0.0,0.0,0.0,0.0,0.0,0.0,0.0,0.0,0.0,0.0,0.0,0.0,0.0,0.0,0.0,0.0,0.0,0.0,0.0,0.0,0.0,0.0,0.0,0.0,0.0,-1.5413,-1.5878,-1.5849,-1.5891,-1.5937,-1.5891,-1.447,-1.2865,-1.1227,0.0,0.0,0.0,0.0,0.0,0.0,0.0,0.0,0.0,0.0,0.0,0.0,0.0,0.0,0.0,0.0,0.0,0.0,0.0,0.0,0.0,0.0,0.0,0.0,0.0,0.0,0.0,0.0,0.0,0.0,0.0,0.0,0.0,0.0,0.0,0.0,0.0,0.0,0.0,0.0,0.0,0.0,0.0,0.0,0.0,0.0,0.0,0.0,0.0,0.0,0.0,0.0,0.0,0.0,0.0,0.0,0.0,0.0,0.0,0.0,0.0,0.0,0.0,0.0,0.0,0.0,0.0,0.0,0.0,0.0,0.0,0.0,0.0,0.0,0.0,0.0,0.0,0.0,0.0,0.0,0.0,0.0,0.0,0.0,0.0,0.0,0.0,0.0,0.0,0.0,0.0,0.0,0.0,0.0,0.0,0.0,0.0,0.0,0.0,0.0,0.0,0.0,-1.5668,-1.5921,-1.5989,-1.6328,-1.6059,-1.5855,-1.5877,-1.513,-1.3791,-1.1567,0.0,0.0,0.0,0.0,0.0,0.0,0.0,0.0,0.0,0.0,0.0,0.0,0.0,0.0,0.0,0.0,0.0,0.0,0.0,0.0,0.0,0.0,0.0,0.0,0.0,0.0,0.0,0.0,0.0,0.0,0.0,0.0,0.0,0.0,0.0,0.0,0.0,0.0,0.0,0.0,0.0,0.0,0.0,0.0,0.0,0.0,0.0,0.0,0.0,0.0,0.0,0.0,0.0,0.0,0.0,0.0,0.0,0.0,0.0,0.0,0.0,0.0,0.0,0.0,0.0,0.0,0.0,0.0,0.0,0.0,0.0,0.0,0.0,0.0,0.0,0.0,0.0,0.0,0.0,0.0,0.0,0.0,0.0,0.0,0.0,0.0,0.0,0.0,0.0,0.0,0.0,0.0,0.0,0.0,0.0,0.0,0.0,0.0,0.0,0.0,0.0,0.0,-1.5619,-1.5915,-1.6347,-1.7354,-1.6528,-1.5881,-1.5896,-1.4618,-1.335,0.0,0.0,0.0,0.0,0.0,0.0,0.0,0.0,0.0,0.0,0.0,0.0,0.0,0.0,0.0,0.0,0.0,0.0,0.0,0.0,0.0,0.0,0.0,0.0,0.0,0.0,0.0,0.0,0.0,0.0,0.0,0.0,0.0,0.0,0.0,0.0,0.0,0.0,0.0,0.0,0.0,0.0,0.0,0.0,0.0,0.0,0.0,0.0,0.0,0.0,0.0,0.0,0.0,0.0,0.0,0.0,0.0,0.0,0.0,0.0,0.0,0.0,0.0,0.0,0.0,0.0,0.0,0.0,0.0,0.0,0.0,0.0,0.0,0.0,0.0,0.0,0.0,0.0,0.0,0.0,0.0,0.0,0.0,0.0,0.0,0.0,0.0,0.0,0.0,0.0,0.0,0.0,0.0,0.0,0.0,0.0,0.0,0.0,0.0,0.0,0.0,0.0,0.0,-1.5589,-1.621,-1.663,-1.6913,-1.6466,-1.6211,-1.6174,-1.5305,-1.4159,-1.291,0.0,0.0,0.0,0.0,0.0,0.0,0.0,0.0,0.0,0.0,0.0,0.0,0.0,0.0,0.0,0.0,0.0,0.0,0.0,0.0,0.0,0.0,0.0,0.0,0.0,0.0,0.0,0.0,0.0,0.0,0.0,0.0,0.0,0.0,0.0,0.0,0.0,0.0,0.0,0.0,0.0,0.0,0.0,0.0,0.0,0.0,0.0,0.0,0.0,0.0,0.0,0.0,0.0,0.0,0.0,0.0,0.0,0.0,0.0,0.0,0.0,0.0,0.0,0.0,0.0,0.0,0.0,0.0,0.0,0.0,0.0,0.0,0.0,0.0,0.0,0.0,0.0,0.0,0.0,0.0,0.0,0.0,0.0,0.0,0.0,0.0,0.0,0.0,0.0,0.0,0.0,0.0,0.0,0.0,0.0,0.0,0.0,0.0,0.0,0.0,0.0,0.0,-1.6366,-1.6565,-1.6673,-1.6946,-1.6628,-1.6465,-1.6465,-1.5728,-1.4696,-1.3363,0.0,0.0,0.0,0.0,0.0,0.0,0.0,0.0,0.0,0.0,0.0,0.0,0.0,0.0,0.0,0.0,0.0,0.0,0.0,0.0,0.0,0.0,0.0,0.0,0.0,0.0,0.0,0.0,0.0,0.0,0.0,0.0,0.0,0.0,0.0,0.0,0.0,0.0,0.0,0.0,0.0,0.0,0.0,0.0,0.0,0.0,0.0,0.0,0.0,0.0,0.0,0.0,0.0,0.0,0.0,0.0,0.0,0.0,0.0,0.0,0.0,0.0,0.0,0.0,0.0,0.0,0.0,0.0,0.0,0.0,0.0,0.0,0.0,0.0,0.0,0.0,0.0,0.0,0.0,0.0,0.0,0.0,0.0,0.0,0.0,0.0,0.0,0.0,0.0,0.0,0.0,0.0,0.0,0.0,0.0,0.0,0.0,0.0,0.0,0.0,0.0,0.0,-1.7302,-1.6845,-1.6765,-1.7449,-1.7019,-1.6724,-1.6706,-1.5982,-1.4968,-1.3634,0.0,0.0,0.0,0.0,0.0,0.0,0.0,0.0,0.0,0.0,0.0,0.0,0.0,0.0,0.0,0.0,0.0,0.0,0.0,0.0,0.0,0.0,0.0,0.0,0.0,0.0,0.0,0.0,0.0,0.0,0.0,0.0,0.0,0.0,0.0,0.0,0.0,0.0,0.0,0.0,0.0,0.0,0.0,0.0,0.0,0.0,0.0,0.0,0.0,0.0,0.0,0.0,0.0,0.0,0.0,0.0,0.0,0.0,0.0,0.0,-1.0503,-1.0568,0.0,0.0,0.0,0.0,0.0,0.0,0.0,0.0,0.0,0.0,0.0,0.0,0.0,0.0,0.0,0.0,0.0,0.0,0.0,0.0,0.0,0.0,0.0,0.0,0.0,0.0,0.0,0.0,0.0,0.0,0.0,0.0,0.0,0.0,0.0,0.0,0.0,0.0,0.0,0.0,-1.6707,-1.6902,-1.7059,-1.7468,-1.7165,-1.6923,-1.6718,-1.6151,-1.524,-1.3906,-1.3224,0.0,0.0,0.0,0.0,0.0,0.0,0.0,0.0,0.0,0.0,0.0,0.0,0.0,0.0,0.0,0.0,0.0,0.0,0.0,0.0,0.0,0.0,0.0,0.0,0.0,0.0,0.0,0.0,0.0,0.0,0.0,0.0,0.0,0.0,0.0,0.0,0.0,0.0,0.0,0.0,0.0,0.0,0.0,0.0,0.0,0.0,0.0,0.0,0.0,0.0,0.0,0.0,0.0,0.0,0.0,0.0,0.0,0.0,0.0,-1.1272,-1.1603,0.0,0.0,0.0,0.0,0.0,0.0,0.0,0.0,0.0,0.0,0.0,0.0,0.0,0.0,0.0,0.0,0.0,0.0,0.0,0.0,0.0,0.0,0.0,0.0,0.0,0.0,0.0,0.0,0.0,0.0,0.0,0.0,0.0,0.0,0.0,0.0,0.0,0.0,0.0,0.0,-1.6438,-1.6829,-1.7165,-1.7443,-1.7364,-1.7171,-1.6911,-1.6392,-1.5674,-1.4733,-1.3815,0.0,0.0,0.0,0.0,0.0,0.0,0.0,0.0,0.0,0.0,0.0,0.0,0.0,0.0,0.0,0.0,0.0,0.0,0.0,0.0,0.0,0.0,0.0,0.0,0.0,0.0,0.0,0.0,0.0,0.0,0.0,0.0,0.0,0.0,0.0,0.0,0.0,0.0,0.0,0.0,0.0,0.0,0.0,0.0,0.0,0.0,0.0,0.0,0.0,0.0,0.0,0.0,0.0,-0.9778,-0.9842,-0.9991,-1.1387,-1.1582,-1.0879,-1.1747,-1.2303,-1.2721,-1.2337,0.0,0.0,0.0,0.0,0.0,0.0,0.0,0.0,0.0,0.0,0.0,0.0,0.0,0.0,0.0,0.0,0.0,0.0,0.0,0.0,0.0,0.0,-1.3713,-1.5519,-1.6006,-1.5434,-1.2831,0.0,0.0,0.0,0.0,0.0,0.0,0.0,0.0,0.0,0.0,0.0,-1.6264,-1.6821,-1.7195,-1.7455,-1.7485,-1.7376,-1.7117,-1.6682,-1.6175,-1.5602,-1.4491,-1.3701,0.0,0.0,0.0,0.0,0.0,0.0,0.0,0.0,0.0,0.0,0.0,0.0,0.0,0.0,0.0,0.0,0.0,0.0,0.0,0.0,0.0,0.0,0.0,0.0,0.0,0.0,0.0,0.0,0.0,0.0,0.0,0.0,-0.789,-0.8831,0.0,0.0,0.0,0.0,0.0,0.0,0.0,0.0,0.0,0.0,0.0,0.0,0.0,-1.0098,-0.9661,-0.9538,-0.9524,-0.9552,-0.9583,-0.9544,-0.9566,-1.0317,-1.0546,-1.045,-1.1039,0.0,-1.1307,-1.1549,0.0,0.0,0.0,0.0,0.0,0.0,0.0,0.0,0.0,0.0,0.0,0.0,0.0,0.0,0.0,0.0,0.0,0.0,0.0,0.0,0.0,0.0,-1.5549,-1.5809,-1.6568,-1.7136,-1.6744,-1.6236,-1.551,-1.4283,-1.3774,-1.3343,0.0,0.0,0.0,0.0,0.0,0.0,-1.5852,-1.6579,-1.7195,-1.7455,-1.7485,-1.7376,-1.7117,-1.7026,-1.6658,-1.5885,-1.5457,-1.4908,-1.4171,-1.335,0.0,0.0,0.0,0.0,0.0,0.0,0.0,0.0,0.0,0.0,0.0,0.0,0.0,0.0,0.0,0.0,0.0,0.0,0.0,0.0,0.0,0.0,0.0,0.0,0.0,0.0,0.0,0.0,0.0,-0.7396,-0.7639,-0.7406,-0.7676,-0.7965,0.0,0.0,0.0,0.0,0.0,0.0,0.0,0.0,0.0,-0.978,-0.9774,-0.9723,-0.9738,-0.9318,-0.925,-0.9225,-0.9095,-0.9001,-0.908,-1.0267,-1.0386,-0.9792,-1.1438,-1.1257,-0.9894,-1.075,-1.0667,-0.9996,0.0,0.0,0.0,0.0,-1.0489,-1.1101,-1.0362,-1.0663,-1.1308,-1.0464,0.0,0.0,0.0,0.0,0.0,0.0,0.0,-1.3502,-1.4051,-1.4516,-1.4902,-1.4877,-1.6651,-1.796,-1.6553,-1.6682,-1.6736,-1.5404,-1.4971,-1.4398,-1.3314,-1.3405,0.0,0.0,0.0,-1.5831,-1.6483,-1.7267,-1.775,-1.7708,-1.7702,-1.7599,-1.7334,-1.7177,-1.6875,-1.6374,-1.5952,-1.5493,-1.4992,-1.4208,-1.355,0.0,0.0,0.0,0.0,0.0,0.0,0.0,0.0,0.0,0.0,0.0,0.0,0.0,0.0,0.0,0.0,0.0,0.0,0.0,0.0,0.0,0.0,0.0,0.0,0.0,0.0,0.0,0.0,-0.6991,-0.7001,-0.6391,-0.6853,-0.7399,0.0,0.0,0.0,0.0,0.0,0.0,-0.936,-0.9293,-0.9378,-0.9521,-0.9427,-0.9408,-0.9473,-0.8985,-0.8726,-0.8826,-0.8551,-0.8523,-0.8617,-0.9751,-0.9878,-0.8994,-1.1006,-1.0818,-0.9053,-1.0193,-1.0162,-0.9677,-1.0046,-0.9984,-0.9796,-0.9915,-1.0417,-1.1087,-1.0394,-1.081,-1.1353,-1.0602,-1.1178,-1.1769,-1.0769,0.0,0.0,0.0,0.0,-1.4719,-1.4045,-1.3572,-1.3424,-1.4367,-1.6263,-1.7637,-1.6342,-1.678,-1.7174,-1.6491,-1.6056,-1.5547,-1.4419,-1.4545,0.0,-1.4552,-1.5644,-1.6682,-1.7225,-1.7877,-1.8185,-1.7901,-1.7871,-1.7768,-1.7503,-1.7304,-1.708,-1.6821,-1.6356,-1.5976,-1.571,-1.4998,-1.4449,-1.4117,0.0,0.0,0.0,0.0,0.0,0.0,0.0,0.0,0.0,0.0,0.0,0.0,0.0,0.0,0.0,0.0,0.0,0.0,0.0,0.0,0.0,0.0,0.0,0.0,0.0,0.0,0.0,0.0,0.0,-0.6643,-0.6337,0.0,0.0,0.0,0.0,-0.8434,-0.8347,-0.8751,-1.0027,-0.9787,-0.9418,-0.9144,-0.9163,-0.8814,-0.8323,-0.8204,-0.8212,-0.8217,-0.8223,-0.8228,-0.8233,-0.8361,-0.8361,-0.8233,-0.8742,-0.8994,-0.8837,-0.9886,-0.9905,-0.9061,-0.8684,-0.8868,-0.9452,-0.9459,-1.0026,-1.0815,-0.9809,-1.0049,-1.0626,-0.9905,-1.0237,-1.1057,-1.1914,-1.1914,0.0,0.0,-1.2989,-1.4083,-1.3209,-1.2004,-1.1635,-1.494,-1.5357,-1.5639,-1.7929,-1.7032,-1.6208,-1.7238,-1.7177,-1.6827,-1.6241,0.0,-1.6181,-1.6187,-1.6682,-1.7243,-1.7768,-1.81,-1.8185,-1.7901,-1.7871,-1.7768,-1.7503,-1.7473,-1.7352,-1.7086,-1.6815,-1.6531,-1.6254,-1.5722,-1.5197,-1.4684,-1.3857,0.0,0.0,0.0,0.0,0.0,0.0,0.0,0.0,0.0,0.0,0.0,0.0,0.0,0.0,0.0,0.0,0.0,0.0,0.0,0.0,0.0,0.0,0.0,0.0,0.0,0.0,0.0,0.0,-0.6444,-0.651,0.0,-0.6866,-0.6776,-0.6955,-0.7624,-0.7753,-0.8138,-0.866,-0.8648,-0.8626,-0.8597,-0.8605,-0.8556,-0.8462,-0.8462,-0.8462,-0.8462,-0.8462,-0.8462,-0.8462,-0.8462,-0.8593,-0.8853,-0.8984,-0.9118,-0.9377,-0.9796,-0.9742,-0.9526,-0.9351,-0.9581,-0.9961,-0.9961,-1.0204,-1.0443,-1.0081,-1.0166,-1.0483,-1.086,-1.0576,-1.0382,-1.1581,-1.1387,-1.1031,-1.2041,-1.2947,-1.3617,-1.3024,-1.2495,-1.2075,-1.2421,-1.3039,-1.378,-1.4641,-1.4986,-1.5655,-1.6888,-1.5915,-1.5043,-1.5385,-1.5658,-1.5949,-1.672,-1.7412,-1.7992,-1.8348,-1.8632,-1.8692,-1.8426,-1.8396,-1.8215,-1.7774,-1.7732,-1.7479,-1.6875,-1.6754,-1.6501,-1.6048,-1.5849,-1.5584,-1.5228,-1.4606,-1.3676,0.0,0.0,0.0,0.0,0.0,0.0,0.0,0.0,0.0,0.0,0.0,0.0,0.0,0.0,0.0,0.0,0.0,0.0,0.0,0.0,0.0,0.0,0.0,0.0,0.0,-0.6697,-0.7009,-0.6611,-0.6825,-0.701,-0.6931,-0.7067,-0.7244,-0.7442,-0.7761,-0.7975,-0.8051,-0.8244,-0.8391,-0.8473,-0.8475,-0.8511,-0.8587,-0.8587,-0.8587,-0.8587,-0.8587,-0.8587,-0.8587,-0.872,-0.8851,-0.9117,-0.9253,-0.9389,-0.9664,-0.9794,-0.9949,-0.9903,-0.9903,-1.0164,-1.0429,-1.0429,-1.0429,-1.0422,-1.0371,-1.0351,-1.0455,-1.1047,-1.0653,-1.0195,-1.1069,-1.0937,-1.0704,-1.1701,-1.2263,-1.2429,-1.2138,-1.2029,-1.2161,-1.2161,-1.2425,-1.3075,-1.3988,-1.425,-1.4516,-1.5419,-1.5199,-1.5165,-1.6122,-1.6496,-1.6822,-1.7547,-1.8161,-1.8619,-1.8794,-1.8969,-1.8976,-1.8716,-1.8686,-1.8463,-1.7919,-1.7793,-1.7485,-1.6869,-1.6658,-1.6398,-1.6036,-1.5849,-1.5674,-1.5499,-1.489,-1.4093,-1.3109,0.0,0.0,0.0,0.0,0.0,0.0,0.0,0.0,0.0,0.0,0.0,0.0,0.0,0.0,0.0,0.0,0.0,0.0,0.0,0.0,0.0,0.0,0.0,-0.6116,-0.6627,-0.7005,-0.7013,-0.7326,-0.754,-0.754,-0.7752,-0.7937,-0.8057,-0.8288,-0.8424,-0.8424,-0.8527,-0.8587,-0.8587,-0.8587,-0.8587,-0.8587,-0.8587,-0.8587,-0.8587,-0.8587,-0.8587,-0.8587,-0.8984,-0.9117,-0.9117,-0.9525,-0.9661,-0.9794,-1.006,-1.0193,-1.0193,-1.0193,-1.0455,-1.0721,-1.0721,-1.0721,-1.07,-1.0551,-1.05,-1.0477,-1.0206,-1.0256,-1.0497,-1.0364,-1.0467,-1.0721,-1.0721,-1.0721,-1.0721,-1.0721,-1.0721,-1.1376,-1.4124,-1.3731,-1.3468,-1.6193,-1.4637,-1.2684,-1.2816,-1.5028,-1.7295,-1.8356,-1.8776,-1.886,-1.8734,-1.8915,0.0,-1.9078,-1.9078,-1.8976,-1.8722,-1.8698,-1.8475,-1.7931,-1.7648,-1.7376,-1.7098,-1.6573,-1.6278,-1.6278,-1.5795,-1.5523,-1.5523,-1.4733,-1.4195,-1.3942,0.0,0.0,0.0,0.0,0.0,0.0,0.0,0.0,0.0,0.0,0.0,0.0,0.0,0.0,0.0,0.0,0.0,0.0,0.0,0.0,0.0,-0.6646,-0.6931,-0.6763,-0.7105,-0.7437,-0.7606,-0.7869,-0.8038,-0.8038,-0.8176,-0.8282,-0.8315,-0.8456,-0.8541,-0.8541,-0.8571,-0.8587,-0.8587,-0.8587,-0.8587,-0.8587,-0.8587,-0.8587,-0.8587,-0.8587,-0.8587,-0.8587,-0.872,-0.8853,-0.9117,-0.9253,-0.9522,-1.006,-1.0193,-1.0323,-1.0588,-1.0323,-1.0455,-1.0721,-1.0455,-1.0455,-1.0714,-1.0673,-1.0656,-1.0653,-1.0609,-1.0626,-1.0656,-1.0656,-1.0687,-1.0721,-1.0721,-1.0721,-1.0721,-1.0721,-1.0721,-1.085,-1.1637,-1.1508,-1.1508,-1.2289,-1.1765,-1.1637,-1.2557,-1.425,-1.5274,-1.4568,-1.5385,-1.6317,-1.7284,-1.8372,-1.9078,-1.9078,-1.9078,-1.9048,-1.8976,-1.8969,-1.8752,-1.8221,-1.7925,-1.7491,-1.6845,-1.6477,-1.6278,-1.6278,-1.6145,-1.6066,-1.6066,-1.5288,-1.4847,0.0,0.0,0.0,0.0,0.0,0.0,0.0,0.0,0.0,0.0,0.0,0.0,0.0,0.0,0.0,0.0,0.0,0.0,0.0,0.0,0.0,0.0,-0.7195,-0.751,-0.7576,-0.7766,-0.7945,-0.8084,-0.8269,-0.8383,-0.8383,-0.8448,-0.8489,-0.8489,-0.8552,-0.8587,-0.8587,-0.8587,-0.8587,-0.8587,-0.8587,-0.8587,-0.8587,-0.8587,-0.8587,-0.8587,-0.8587,-0.8587,-0.8587,-0.872,-0.8851,-0.9117,-0.9253,-0.9658,-1.006,-1.0193,-1.0323,-1.0455,0.0,0.0,0.0,0.0,-1.0588,-1.0721,-1.0721,-1.0721,-1.0721,-1.0721,-1.0721,-1.0721,-1.0721,-1.0721,-1.0721,-1.0721,-1.0721,-1.0721,-1.0721,-1.0721,-1.085,-1.1376,-1.1115,-1.085,-1.1508,-1.1115,-1.1115,-1.2557,-1.3468,0.0,-1.3731,-1.5294,-1.699,-1.7765,-1.8547,-1.9078,-1.9078,-1.9078,-1.9078,-1.9078,-1.9078,-1.8909,-1.8493,-1.8094,0.0,0.0,0.0,-1.6404,-1.6284,-1.6278,0.0,0.0,0.0,0.0,0.0,0.0,0.0,0.0,-1.4904,-1.4971,0.0,0.0,0.0,0.0,0.0,0.0,0.0,0.0,0.0,0.0,0.0,0.0,0.0,0.0,0.0,0.0,-0.7614,-0.7937,-0.8375,-0.8437,-0.8437,-0.8437,-0.8527,-0.8587,-0.8587,-0.8587,-0.8587,-0.8587,-0.8587,-0.8587,-0.8587,-0.8587,0.0,0.0,0.0,-0.8587,-0.8587,-0.8587,-0.8587,-0.8587,-0.8587,-0.8587,-0.8587,-0.8984,-0.9117,-0.9117,-0.9525,-0.9664,-0.9794,-1.006,-1.0193,-1.0323,-1.0588,-1.0721,-1.0588,-1.0721,-1.0721,-1.0721,-1.0721,0.0,0.0,-1.0721,-1.0721,-1.0721,-1.0721,-1.0721,-1.0721,-1.0721,-1.0721,-1.0721,-1.0721,-1.0721,-1.0982,-1.2293,-1.1769,-1.1244,-1.2293,-1.1769,-1.1508,-1.2553,-1.3075,-1.36,-1.4646,-1.712,-1.8816,-1.8816,-1.8944,-1.9078,-1.9078,-1.9078,-1.9078,-1.9078,-1.9078,0.0,-1.871,-1.8215,-1.7811,-1.7545,-1.7092,-1.6718,-1.6471,-1.6489,-1.661,-1.6827,-1.6833,-1.7062,-1.7527,-1.7527,-1.7787,-1.804,-1.6288,-1.6105,0.0,0.0,0.0,0.0,0.0,0.0,0.0,0.0,0.0,0.0,0.0,0.0,0.0,0.0,0.0,-0.7698,-0.8057,-0.8345,-0.8527,-0.8554,-0.8554,-0.8554,-0.8573,-0.8587,-0.8587,-0.8587,-0.8587,-0.8587,-0.8587,-0.8587,-0.8587,-0.8587,-0.8587,-0.8587,-0.8587,-0.8587,-0.8587,-0.8587,-0.8587,-0.8587,-0.8587,0.0,-0.8587,-0.8984,-0.9117,-0.9117,-0.9525,-0.9794,-1.006,-1.0193,-1.0323,-1.0588,-1.0721,-1.0588,-1.0323,-1.0588,-1.0721,-1.0721,-1.0721,-1.0721,-1.0721,-1.0721,-1.0721,-1.0721,-1.0721,-1.0721,0.0,-1.0721,-1.0721,-1.0721,-1.0721,-1.0721,-1.0717,-1.0982,-1.1769,-1.2161,-1.1244,-1.2684,-1.3862,-1.2947,-1.4637,-1.5939,-1.5038,-1.6333,-1.7367,-1.7367,-1.8413,-1.9078,-1.9078,-1.9078,-1.9078,-1.9078,-1.9078,-1.8969,-1.871,-1.8396,-1.8094,-1.7817,-1.7702,-1.7624,-1.7569,-1.7787,-1.7823,-1.7648,-1.7648,-1.7696,-1.7799,-1.7799,-1.8258,-1.8908,-1.7929,-1.7821,0.0,0.0,0.0,0.0,0.0,0.0,0.0,0.0,0.0,0.0,0.0,-0.6627,-0.6923,0.0,-0.7722,-0.8087,-0.8299,-0.8456,-0.8571,-0.8587,-0.8587,-0.8587,-0.8587,-0.8587,-0.8587,-0.8587,-0.8587,-0.8587,-0.8587,-0.8587,-0.8587,-0.8587,-0.8587,-0.8587,-0.8587,-0.8587,-0.8587,-0.8647,-0.8679,-0.8679,-0.8679,-0.8679,-0.8677,-0.9012,-0.9117,-0.9117,-0.9655,-1.006,-1.0193,-1.0323,-1.0588,-1.0721,-1.0721,-1.0588,-1.0455,-1.0588,-1.0721,-1.0721,-1.0721,-1.0721,-1.0721,-1.0721,-1.0721,-1.0721,-1.0721,-1.0721,-1.0721,-1.0721,-1.0721,-1.0721,-1.0721,-1.0721,-1.085,-1.1637,-1.2293,-1.2816,-1.2816,-1.3862,-1.4646,-1.3993,-1.5033,-1.5684,-1.5038,-1.6073,-1.698,-1.698,-1.763,-1.8285,-1.9072,-1.9078,-1.9078,-1.9078,-1.9078,-1.9024,-1.8891,-1.8638,-1.8372,-1.81,-1.8082,-1.8082,-1.8082,-1.8221,-1.8287,-1.8281,-1.8281,-1.8465,-1.8716,-1.8851,-1.9243,-1.9877,-1.9591,-1.9464,0.0,0.0,0.0,0.0,0.0,0.0,0.0,-0.6026,-0.6222,-0.6491,-0.6891,-0.7279,-0.757,-0.7818,-0.8073,-0.8369,-0.8437,-0.8484,-0.8573,-0.8587,-0.8587,-0.8587,-0.8587,-0.8587,-0.8587,-0.8587,-0.8587,-0.8587,-0.8587,-0.8598,-0.8622,-0.8622,-0.8633,-0.8658,-0.8658,-0.8658,-0.8658,-0.8755,-0.8804,-0.8804,-0.8804,-0.8807,-0.8938,-0.908,-0.9288,-0.9419,-1.0066,-1.0323,-1.0326,-1.0588,-1.0721,-1.0721,-1.0721,-1.0721,-1.0721,-1.0721,-1.0721,-1.0721,-1.0721,-1.0721,-1.0721,-1.0721,-1.0721,-1.0721,-1.0721,-1.0721,-1.0721,-1.0721,-1.0721,-1.0721,-1.0721,-1.085,-1.1376,-1.2553,-1.3206,-1.3726,-1.4385,-1.4941,-1.5216,-1.4656,-1.4679,-1.4955,-1.4917,-1.5814,-1.6716,-1.6974,-1.7238,-1.7765,-1.8944,-1.9078,-1.9078,-1.9078,-1.9078,-1.9078,-1.9078,-1.8885,-1.8674,-1.8463,-1.8444,-1.8444,-1.8444,-1.8499,-1.8619,-1.8831,-1.8891,-1.9145,-1.9739,-1.9955,-2.0345,-2.0778,-2.1006,-2.0838,-0.532,-0.5339,-0.5472,-0.5899,-0.5934,-0.6086,0.0,-0.7073,-0.7114,-0.747,-0.7752,-0.7948,-0.7986,-0.8193,-0.8369,-0.841,-0.8503,-0.8573,-0.8587,-0.8587,-0.8587,-0.8587,-0.8587,-0.8587,-0.8587,-0.8587,-0.8587,-0.8587,-0.8587,-0.8636,-0.8745,-0.875,-0.8799,-0.8908,-0.891,-0.891,-0.891,-0.8924,-0.8929,-0.8929,-0.8929,-0.9068,-0.9478,-0.9618,-0.9961,-1.0225,-1.0508,-1.0588,-1.0588,-1.0721,-1.0721,-1.0721,-1.0721,-1.0721,-1.0721,-1.0721,-1.0721,-1.0721,-1.0721,-1.0721,-1.0721,-1.0721,-1.0721,-1.0721,-1.0721,-1.0721,-1.0721,-1.0721,-1.0721,-1.0721,-1.0721,-1.1637,-1.2557,-1.2816,-1.4768,-1.5939,-1.36,-1.5049,-1.6181,-1.3503,-1.4126,-1.4983,-1.4941,-1.5038,-1.5554,-1.6845,-1.8028,-1.8944,-1.9072,-1.9078,-1.9078,-1.9078,-1.9078,-1.9078,-1.9078,-1.9048,-1.9018,-1.8988,-1.8988,-1.8988,-1.8988,-1.9211,-1.935,-1.938,-1.9621,-1.9893,-2.0315,-2.0346,-2.0737,-2.1365,-2.1397,-2.1392,-0.5934,-0.6094,-0.6252,-0.6453,-0.6622,-0.6861,-0.7334,-0.7459,-0.7557,-0.7847,-0.8098,-0.8266,-0.8266,-0.8402,-0.8516,-0.8516,-0.8557,-0.8587,-0.8587,-0.8587,-0.8562,-0.8497,-0.8546,-0.8587,-0.8587,-0.8587,-0.8587,-0.8587,-0.8587,-0.8641,-0.8764,-0.8769,-0.8826,-0.8948,-0.8951,-0.8951,-0.8951,-0.9022,-0.9198,-0.9338,-0.9338,-0.9619,-1.0034,-1.0172,-1.0477,-1.0664,-1.0652,-1.0721,-1.0721,-1.0721,-1.0721,-1.0721,-1.0721,-1.0721,-1.0721,-1.0721,-1.0721,-1.0721,-1.0721,-1.0721,-1.0721,-1.0721,-1.0721,-1.0721,-1.0721,-1.0721,-1.0721,-1.0721,-1.0721,-1.0721,-1.0721,-1.1115,-1.1791,-1.2676,-1.3883,-1.4577,-1.4303,-1.5194,-1.55,-1.3541,-1.4165,-1.4778,-1.39,-1.5109,-1.6328,-1.685,-1.7501,-1.8156,-1.8944,-1.9078,-1.9078,-1.9078,-1.9078,-1.9078,-1.9078,-1.9078,-1.9078,-1.9078,-1.9217,-1.9301,-1.9301,-1.9567,-1.9712,-1.9712,-1.9827,-2.0014,-2.0408,-2.0569,-2.0824,-2.1204,-2.1365,-2.1372,-0.6366,-0.6616,-0.6817,-0.6883,-0.7146,-0.7426,-0.7581,-0.7736,-0.7907,-0.8111,-0.832,-0.8465,-0.8465,-0.8532,-0.8587,-0.8587,-0.8587,-0.8587,-0.8587,-0.856,-0.8522,-0.847,-0.8511,-0.8554,-0.8584,-0.8587,-0.8587,-0.8587,-0.8619,-0.869,-0.8812,-0.8853,-0.8927,-0.9044,-0.9049,-0.9049,-0.9189,-0.9278,-0.9464,-0.9891,-0.9891,-1.0176,-1.0457,-1.0738,-1.0869,-1.1002,-1.089,-1.0843,-1.0839,-1.0799,-1.0782,-1.0778,-1.0734,-1.0721,-1.0724,-1.0768,-1.0758,-1.0721,-1.0721,-1.0721,-1.0721,-1.0721,-1.0721,-1.0721,-1.0721,-1.0721,-1.0721,-1.0721,-1.0721,-1.0731,-1.0772,-1.1045,-1.1607,-1.2835,-1.3414,-1.3853,-1.4538,-1.475,-1.4362,-1.2944,-1.3819,-1.4549,-1.3823,-1.5693,-1.731,-1.7707,-1.7775,-1.7973,-1.8956,-1.9078,-1.9078,-1.9078,-1.9078,-1.9078,-1.9078,-1.9138,-1.9181,-1.9181,-1.9434,-1.9585,-1.9585,-1.9851,-1.9996,-1.9996,-2.0068,-2.0233,-2.0631,-2.0829,-2.0953,-2.1168,-2.1365,-2.1461,-0.6434,-0.6616,-0.6858,-0.7086,-0.7328,-0.7573,-0.7807,-0.8046,-0.8255,-0.838,-0.85,-0.8581,-0.8581,-0.8584,-0.8587,-0.8587,-0.8587,-0.8587,-0.8587,-0.8492,-0.8462,-0.8568,-0.8489,-0.8467,-0.8576,-0.8587,-0.8587,-0.8587,-0.8698,-0.8818,-0.894,-0.906,-0.9177,-0.9291,-0.9294,-0.9435,-0.9867,-0.987,-1.0017,-1.0449,-1.0449,-1.0596,-1.1031,-1.1312,-1.1301,-1.1155,-1.1151,-1.1148,-1.1138,-1.0999,-1.0941,-1.0928,-1.0778,-1.0721,-1.0738,-1.0887,-1.085,-1.0721,-1.0721,-1.0721,-1.0721,-1.0721,-1.0721,-1.0721,-1.0721,-1.0721,-1.0721,-1.0721,-1.0721,-1.0755,-1.0904,-1.1869,-1.2974,-1.3295,-1.4288,-1.4833,-1.3617,-1.3486,-1.3141,-1.1604,-1.2654,-1.4085,-1.5264,-1.6726,-1.8222,-1.959,-1.9627,-1.9362,-1.9108,-1.9078,-1.9078,-1.9078,-1.9078,-1.9078,-1.9078,-1.9307,-1.9452,-1.9452,-1.9718,-1.9875,-1.9875,-2.0128,-2.0267,-2.0267,-2.0515,-2.078,-2.1189,-2.1195,-2.1333,-2.1741,-2.1747,-2.1753,-0.6657,-0.6972,-0.7296,-0.7375,-0.7638,-0.7915,-0.8076,-0.8239,-0.8369,-0.841,-0.8448,-0.8451,-0.8369,-0.8353,-0.838,-0.8462,-0.8475,-0.8503,-0.8576,-0.8554,-0.8516,-0.8481,-0.8508,-0.8648,-0.8738,-0.8938,-0.8851,-0.8587,-0.8971,-0.9094,-0.8946,-0.9068,-0.9188,-0.9299,-0.9593,-0.9735,-0.9879,-1.0167,-1.0458,-1.0894,-1.1038,-1.1329,-1.1469,-1.146,-1.1362,-1.1307,-1.1206,-1.1162,-1.1158,-1.1111,-1.109,-1.1087,-1.1033,-1.1012,-1.1019,-1.1073,-1.1056,-1.0999,-1.0904,-1.0806,-1.0721,-1.0721,-1.0721,-1.0721,-1.0721,-1.0721,-1.0721,-1.0721,-1.0795,-1.0884,-1.0934,-1.1285,-1.1805,-1.1967,-1.2421,-1.2591,-1.2284,-1.2212,-1.2091,-1.1616,-1.3372,-1.5113,-1.5592,-1.7662,-1.934,-1.9887,-1.9645,-1.9374,-1.9108,-1.9078,-1.9078,-1.9078,-1.9229,-1.9338,-1.9338,-1.9585,-1.9742,-1.9742,-1.9996,-2.0146,-2.0146,-2.04,-2.0539,-2.0539,-2.0623,-2.0804,-2.0804,-2.0804,-2.0943,-2.1081,-2.1081,-2.1081,-0.6937,-0.7249,-0.7538,-0.7622,-0.785,-0.8087,-0.8206,-0.8296,-0.8353,-0.8353,-0.8318,-0.825,-0.8256,-0.8106,-0.816,-0.8452,-0.8353,-0.8407,-0.8565,-0.8552,-0.8516,-0.8612,-0.8637,-0.8778,-0.9142,-0.9209,-0.912,-0.8853,-0.9146,-0.928,-0.8948,-0.9106,-0.9228,-0.9446,-0.9735,-1.0026,-1.0314,-1.0603,-1.0894,-1.1188,-1.1476,-1.1619,-1.1616,-1.1518,-1.147,-1.1467,-1.1369,-1.1324,-1.1321,-1.1267,-1.1243,-1.124,-1.1185,-1.1162,-1.1168,-1.1223,-1.1209,-1.1151,-1.1056,-1.0962,-1.087,-1.0819,-1.0802,-1.0802,-1.0802,-1.0802,-1.0812,-1.0863,-1.0948,-1.1036,-1.109,-1.1175,-1.1284,-1.1436,-1.147,-1.1501,-1.1599,-1.1619,-1.1619,-1.1619,-1.3928,-1.5793,-1.5793,-1.8325,-2.0134,-2.0038,-1.9869,-1.9664,-1.9398,-1.9277,-1.9217,-1.9217,-1.9368,-1.9464,-1.9464,-1.9808,-2.0026,-2.0026,-2.0273,-2.0418,-2.0418,-2.0581,-2.0665,-2.0665,-2.0665,-2.0665,-2.0665,-2.0665,-2.0665,-2.0665,-2.0665,-2.0665,-0.7249,-0.7437,-0.7589,-0.7815,-0.7964,-0.8084,-0.8198,-0.8225,-0.8223,-0.8209,-0.8111,-0.8113,-0.823,-0.8097,-0.8063,-0.8554,-0.8359,-0.8326,-0.8554,-0.8494,-0.8596,-0.9102,-0.9016,-0.9124,-0.9649,-0.9667,-0.9534,-0.9125,-0.9359,-0.9368,-0.8962,-0.9179,-0.959,-0.9879,-0.9879,-1.0314,-1.1044,-1.1044,-1.1188,-1.1619,-1.1619,-1.1619,-1.1619,-1.1619,-1.1619,-1.1619,-1.1619,-1.1619,-1.1609,-1.1463,-1.1402,-1.1389,-1.1243,-1.1185,-1.1202,-1.1348,-1.1311,-1.1185,-1.1185,-1.1175,-1.1138,-1.1002,-1.0958,-1.0958,-1.0958,-1.0955,-1.0978,-1.1121,-1.1162,-1.1199,-1.1352,-1.1396,-1.144,-1.1586,-1.1619,-1.1619,-1.1619,-1.1619,-1.1619,-1.1619,-1.4018,-1.6131,-1.6272,-1.8821,-2.0581,-2.0334,-2.0297,-2.0201,-1.9923,-1.9652,-1.9489,-1.9489,-1.9501,-1.9507,-1.9507,-1.9989,-2.0297,-2.0297,-2.0533,-2.0665,-2.0665,-2.0665,-2.0665,-2.0665,-2.0665,-2.0665,-2.0665,-2.0665,-2.0665,-2.0665,-2.0665,-2.0665,-0.7399,-0.7622,-0.7796,-0.7856,-0.7964,-0.8062,-0.8092,-0.81,-0.8051,-0.7875,-0.7859,-0.7822,-0.7492,-0.7794,-0.8029,-0.806,-0.8193,-0.8421,-0.8568,-0.8562,-0.8687,-0.9111,-0.9088,-0.9218,-0.9658,-0.9747,-0.9802,-0.9664,-0.9823,-0.9826,-0.9504,-0.9938,-1.0311,-1.0311,-1.0606,-1.0753,-1.1044,-1.1332,-1.1476,-1.1619,-1.1619,-1.1619,-1.1619,-1.1619,-1.1619,-1.1619,-1.1619,-1.1619,-1.1616,-1.1575,-1.1562,-1.1558,-1.1518,-1.1504,-1.1508,-1.1548,-1.1538,-1.1504,-1.1504,-1.1355,-1.1158,-1.1121,-1.1107,-1.1107,-1.1107,-1.1033,-1.0978,-1.1121,-1.1162,-1.1199,-1.1352,-1.1474,-1.1569,-1.1609,-1.1619,-1.1619,-1.1619,-1.1619,-1.1619,-1.1619,-1.4018,-1.6836,-1.9105,-2.0237,-2.0647,-2.0575,-2.0569,-2.0406,-1.9947,-1.9827,-1.9778,-1.9778,-1.9953,-2.0068,-2.0068,-2.0376,-2.0569,-2.0569,-2.0629,-2.0665,-2.0665,-2.0665,-2.0665,-2.0665,-2.0665,-2.0665,-2.0665,-2.0665,-2.0665,-2.0665,-2.0665,-2.0665,-0.7546,-0.7731,-0.7872,-0.7872,-0.7964,-0.8027,-0.7924,-0.7899,-0.7801,-0.7572,-0.7556,-0.7413,-0.7217,-0.7513,-0.7746,-0.7926,-0.8143,-0.8337,-0.8557,-0.872,-0.8987,-0.9253,-0.9519,-0.9679,-1.0012,-1.0081,-1.0039,-1.0022,-1.0104,-1.004,-0.9977,-1.0242,-1.0599,-1.0746,-1.0897,-1.1044,-1.1332,-1.1476,-1.1619,-1.1619,-1.1619,-1.1619,-1.1619,-1.1619,-1.1619,-1.1619,-1.1619,-1.1619,-1.1619,-1.1619,-1.1619,-1.1619,-1.1619,-1.1619,-1.1619,-1.1619,-1.1619,-1.1619,-1.1619,-1.1508,-1.1352,-1.1284,-1.1263,-1.1263,-1.1263,-1.1206,-1.1172,-1.1321,-1.1362,-1.1382,-1.1467,-1.1555,-1.1619,-1.1619,-1.1619,-1.1619,-1.1619,-1.1619,-1.2043,-1.3313,-1.5004,-1.7122,-2.0098,-2.0665,-2.0665,-2.0665,-2.0665,-2.0563,-2.0267,-2.0128,-2.0062,-2.0062,-2.0189,-2.0279,-2.0279,-2.0521,-2.0665,-2.0665,-2.0665,-2.0665,-2.0665,-2.0665,-2.0665,-2.0665,-2.0665,-2.0665,-2.0665,-2.0665,-2.0665,-2.0665,-2.0665,-2.0665,-0.769,-0.7796,-0.7872,-0.7872,-0.794,-0.7951,-0.7728,-0.7641,-0.7594,-0.7351,-0.7121,-0.7109,-0.7077,-0.7217,-0.7421,-0.7817,-0.806,-0.8179,-0.8668,-0.8851,-0.9253,-0.9661,-0.9943,-1.0267,-1.0393,-1.0432,-1.0416,-1.0245,-1.0278,-1.029,-1.0432,-1.0537,-1.0746,-1.1044,-1.1044,-1.1188,-1.1619,-1.1619,-1.1619,-1.1619,-1.1619,-1.1619,-1.1619,-1.1619,-1.1619,-1.1619,-1.1619,-1.1619,-1.1619,-1.1619,-1.1619,-1.1619,-1.1619,-1.1619,-1.1619,-1.1619,-1.1619,-1.1619,-1.1619,-1.1619,-1.1599,-1.1463,-1.1419,-1.1419,-1.1419,-1.1406,-1.1423,-1.1575,-1.1606,-1.1592,-1.1613,-1.1619,-1.1619,-1.1619,-1.1619,-1.1619,-1.1619,-1.1619,-1.2466,-1.5566,-1.6131,-1.7122,-2.0098,-2.0665,-2.0665,-2.0665,-2.0665,-2.0665,-2.0665,-2.0472,-2.0327,-2.0327,-2.0327,-2.0327,-2.0327,-2.0539,-2.0665,-2.0665,-2.0665,-2.0665,-2.0665,-2.0665,-2.0665,-2.0665,-2.0665,-2.0665,-2.0665,-2.0665,-2.0665,-2.0665,-2.0665,-2.0665,-0.7809,-0.7856,-0.7872,-0.7872,-0.7815,-0.7725,-0.7584,-0.7431,-0.7351,-0.7058,-0.7238,-0.7159,-0.6792,-0.7118,-0.7551,-0.7564,-0.782,-0.8306,-0.8933,-0.9117,-0.9386,-1.0057,-1.0021,-0.9961,-1.0393,-1.0335,-1.0352,-1.0684,-1.0795,-1.0862,-1.0862,-1.1172,-1.1476,-1.1476,-1.1476,-1.1476,-1.1619,-1.1619,-1.1619,-1.1619,-1.1619,-1.1619,-1.1619,-1.1619,-1.1619,-1.1619,-1.1619,-1.1619,-1.1619,-1.1619,-1.1619,-1.1619,-1.1619,-1.1619,-1.1619,-1.1619,-1.1619,-1.1619,-1.1619,-1.1619,-1.1616,-1.1589,-1.1579,-1.1579,-1.1579,-1.1491,-1.1423,-1.1575,-1.1528,-1.146,-1.1586,-1.1619,-1.1619,-1.1619,-1.1619,-1.1619,-1.1619,-1.1619,-1.2466,-1.5566,-1.6131,-1.7122,-2.0098,-2.0665,-2.0665,-2.0665,-2.0665,-2.0665,-2.0665,-2.0629,-2.0599,-2.0599,-2.0599,-2.0599,-2.0599,-2.0641,-2.0665,-2.0665,-2.0665,-2.0665,-2.0665,-2.0665,-2.0665,-2.0665,-2.0665,-2.0665,-2.0665,-2.0665,-2.0665,-2.0665,-2.0665,-2.0665,-0.7839,-0.7872,-0.7872,-0.7872,-0.7736,-0.7559,-0.7603,-0.7382,-0.7125,-0.7099,-0.7124,-0.6988,-0.6752,-0.7171,-0.7437,-0.7315,-0.773,-0.8167,-0.886,-0.9051,-0.952,-1.0267,-1.0357,-1.0457,-1.0606,-1.0744,-1.086,-1.0934,-1.1149,-1.1332,-1.1332,-1.1476,-1.1619,-1.1619,-1.1619,-1.1619,-1.1619,-1.1619,-1.1619,-1.1619,-1.1619,-1.1619,-1.1619,-1.1619,-1.1619,-1.1619,-1.1619,-1.1619,-1.1619,-1.1619,-1.1619,-1.1619,-1.1619,-1.1619,-1.1619,-1.1619,-1.1619,-1.1619,-1.1619,-1.1619,-1.1619,-1.1619,-1.1619,-1.1619,-1.1619,-1.1569,-1.1525,-1.1599,-1.1565,-1.1528,-1.1599,-1.1619,-1.1619,-1.1619,-1.1619,-1.1619,-1.1619,-1.1619,-1.2466,-1.5566,-1.6131,-1.7122,-2.0098,-2.0665,-2.0665,-2.0665,-2.0665,-2.0665,-2.0665,-2.0665,-2.0665,-2.0665,-2.0665,-2.0665,-2.0665,-2.0665,-2.0665,-2.0665,-2.0665,-2.0665,-2.0665,-2.0665,-2.0665,-2.0665,-2.0665,-2.0665,-2.0665,-2.0665,-2.0665,-2.0665,-2.0665,-2.0665,-0.7809,-0.7853,-0.7867,-0.7842,-0.7655,-0.753,-0.7513,-0.7249,-0.7062,-0.7193,-0.6979,-0.6882,-0.6876,-0.7105,-0.7363,-0.7323,-0.7619,-0.8213,-0.8916,-0.93,-0.9726,-1.0486,-1.0727,-1.0859,-1.0946,-1.1137,-1.1206,-1.1178,-1.1476,-1.1619,-1.1619,-1.1619,-1.1619,-1.1619,-1.1619,-1.1619,-1.1619,-1.1619,-1.1619,-1.1619,-1.1619,-1.1619,-1.1619,-1.1619,-1.1619,-1.1619,-1.1619,-1.1619,-1.1619,-1.1619,-1.1619,-1.1619,-1.1619,-1.1619,-1.1619,-1.1619,-1.1619,-1.1619,-1.1619,-1.1619,-1.1619,-1.1619,-1.1619,-1.1619,-1.1619,-1.1619,-1.1619,-1.1619,-1.1619,-1.1619,-1.1619,-1.1619,-1.1619,-1.1619,-1.1619,-1.1619,-1.1619,-1.1903,-1.2892,-1.5566,-1.6413,-1.7404,-2.0237,-2.0665,-2.0665,-2.0665,-2.0665,-2.0665,-2.0665,-2.0665,-2.0665,-2.0665,-2.0665,-2.0665,-2.0665,-2.0665,-2.0665,-2.0665,-2.0665,-2.0665,-2.0665,-2.0665,-2.0665,-2.0665,-2.0665,-2.0665,-2.0665,-2.0665,-2.0665,-2.0665,-2.0665,-2.0665,-0.7714,-0.7793,-0.7845,-0.7741,-0.7532,-0.729,-0.7379,-0.7153,-0.7036,-0.7155,-0.7099,-0.7039,-0.6969,-0.7044,-0.7152,-0.7699,-0.7859,-0.8353,-0.9513,-0.9853,-1.0349,-1.0792,-1.077,-1.094,-1.1248,-1.1229,-1.1172,-1.1476,-1.1619,-1.1619,-1.1619,-1.1619,-1.1619,-1.1619,-1.1619,-1.1619,-1.1619,-1.1619,-1.1619,-1.1619,-1.1619,-1.1619,-1.1619,-1.1619,-1.1619,-1.1619,-1.1619,-1.1619,-1.1619,-1.1619,-1.1619,-1.1619,-1.1619,-1.1619,-1.1619,-1.1619,-1.1619,-1.1619,-1.1619,-1.1619,-1.1619,-1.1619,-1.1619,-1.1619,-1.1619,-1.1619,-1.1619,-1.1619,-1.1619,-1.1619,-1.1619,-1.1619,-1.1619,-1.1619,-1.1619,-1.1619,-1.1619,-1.2753,-1.4164,-1.5849,-1.7268,-1.8692,-2.0382,-2.0665,-2.0665,-2.0665,-2.0665,-2.0665,-2.0665,-2.0665,-2.0665,-2.0665,-2.0665,-2.0665,-2.0665,-2.0665,-2.0665,-2.0665,-2.0665,-2.0665,-2.0665,-2.0665,-2.0665,-2.0665,-2.0665,-2.0665,-2.0665,-2.0665,-2.0665,-2.0665,-2.0665,-2.0665,-0.7663,-0.7785,-0.7845,-0.7731,-0.7462,-0.7293,-0.756,-0.7265,-0.7003,-0.7325,-0.7262,-0.7071,-0.7045,-0.7131,-0.7295,-0.7594,-0.7802,-0.8153,-0.9145,-0.9423,-0.9856,-1.0751,-1.0859,-1.109,-1.1504,-1.1439,-1.1476,-1.1619,-1.1619,-1.1619,-1.1619,-1.1619,-1.1619,-1.1619,-1.1619,-1.1619,-1.1619,-1.1619,-1.1619,-1.1619,-1.1619,-1.1619,-1.1619,-1.1619,-1.1619,-1.1619,-1.1619,-1.1619,-1.1619,-1.1619,-1.1619,-1.1619,-1.1619,-1.1619,-1.1619,-1.1619,-1.1619,-1.1619,-1.1619,-1.1619,-1.1619,-1.1619,-1.1619,-1.1619,-1.1619,-1.1619,-1.1619,-1.1619,-1.1619,-1.1619,-1.1619,-1.1619,-1.1619,-1.1619,-1.1619,-1.1619,-1.1619,-1.2043,-1.3174,-1.5566,-1.6554,-1.783,-2.0243,-2.0665,-2.0665,-2.0665,-2.0665,-2.0665,-2.0665,-2.0665,-2.0665,-2.0665,-2.0665,-2.0665,-2.0665,-2.0665,-2.0665,-2.0665,-2.0665,-2.0665,-2.0665,-2.0665,-2.0665,-2.0665,-2.0665,-2.0744,-2.0901,-2.0901,-2.0991,-2.1154,-2.1154,-2.1154,-0.7649,-0.7709,-0.7793,-0.7676,-0.7514,-0.7436,-0.7666,-0.7263,-0.7017,-0.7446,-0.7322,-0.7139,-0.7139,-0.7265,-0.7413,-0.7615,-0.7867,-0.8252,-0.8938,-0.9264,-0.9781,-1.0646,-1.0894,-1.1155,-1.1518,-1.1592,-1.1619,-1.1619,-1.1619,-1.1619,-1.1619,-1.1619,-1.1619,-1.1619,-1.1619,-1.1619,-1.1619,-1.166,-1.166,-1.1619,-1.166,-1.166,-1.1619,-1.1619,-1.1619,-1.1619,-1.1619,-1.1619,-1.1619,-1.1619,-1.1619,-1.1619,-1.1619,-1.1619,-1.1619,-1.1619,-1.1619,-1.1619,-1.1619,-1.1619,-1.1619,-1.1619,-1.1619,-1.1619,-1.1619,-1.1619,-1.1619,-1.1619,-1.1619,-1.1619,-1.1619,-1.1619,-1.1619,-1.1619,-1.1619,-1.1619,-1.1619,-1.1903,-1.2892,-1.5004,-1.6136,-1.7409,-1.9675,-2.0388,-2.0665,-2.0665,-2.0665,-2.0665,-2.0665,-2.0665,-2.0665,-2.0665,-2.0665,-2.0665,-2.0665,-2.0665,-2.0665,-2.0665,-2.0665,-2.0665,-2.0665,-2.0665,-2.0702,-2.078,-2.078,-2.0913,-2.1185,-2.1185,-2.1287,-2.148,-2.148,-2.1432,-0.7517,-0.7644,-0.7674,-0.7551,-0.7567,-0.7615,-0.7437,-0.7328,-0.7266,-0.7404,-0.7248,-0.7139,-0.7139,-0.7265,-0.7468,-0.7767,-0.8187,-0.8689,-0.9296,-0.9897,-1.0385,-1.0683,-1.0978,-1.1223,-1.1379,-1.1531,-1.1619,-1.1619,-1.1619,-1.1619,-1.1619,-1.1619,-1.1619,-1.1619,-1.1619,-1.1619,-1.1619,-1.1759,-1.1759,-1.1619,-1.1762,-1.1755,-1.1619,-1.1619,-1.1619,-1.1619,-1.1619,-1.1619,-1.1619,-1.1619,-1.1619,-1.1619,-1.1619,-1.1619,-1.1619,-1.1619,-1.1619,-1.1619,-1.1619,-1.1619,-1.1619,-1.1619,-1.1619,-1.1619,-1.1619,-1.1619,-1.1619,-1.1619,-1.1619,-1.1619,-1.1619,-1.1619,-1.1619,-1.1619,-1.1619,-1.1619,-1.1619,-1.2753,-1.388,-1.388,-1.6287,-1.8406,-1.8412,-1.968,-2.0665,-2.0665,-2.0665,-2.0665,-2.0665,-2.0665,-2.0665,-2.0665,-2.0665,-2.0665,-2.0665,-2.0665,-2.0665,-2.0665,-2.0665,-2.0665,-2.0665,-2.0665,-2.0786,-2.1052,-2.1058,-2.1197,-2.1474,-2.1474,-2.1474,-2.148,-2.148,-2.1329,-0.7023,-0.7357,-0.7379,-0.6953,-0.7166,-0.7449,-0.7144,-0.6707,-0.642,-0.7217,-0.6706,-0.634,-0.6962,-0.718,-0.7444,-0.8153,-0.8387,-0.876,-0.9568,-1.0029,-1.0388,-1.0683,-1.1165,-1.1494,-1.1541,-1.1592,-1.1619,-1.1619,-1.1619,-1.1619,-1.1619,-1.1619,-1.1619,-1.1619,-1.1619,-1.1664,-1.1762,-1.1809,-1.186,-1.1921,-1.186,-1.1809,-1.1759,-1.1664,-1.1619,-1.1619,-1.1619,-1.1619,-1.1619,-1.1619,-1.1619,-1.1619,-1.1619,-1.1619,-1.1619,-1.1619,-1.1619,-1.1619,-1.1619,-1.1619,-1.1619,-1.1619,-1.1619,-1.1619,-1.1619,-1.1619,-1.1619,-1.1619,-1.1619,-1.1619,-1.1619,-1.1619,-1.1619,-1.1619,-1.1619,-1.1619,-1.1619,-1.2043,-1.261,-1.3741,-1.5434,-1.7127,-1.8266,-1.968,-2.0665,-2.0665,-2.0665,-2.0665,-2.0665,-2.0665,-2.0665,-2.0665,-2.0665,-2.0665,-2.0665,-2.0665,-2.0665,-2.0665,-2.0665,-2.0665,-2.0665,-2.0665,-2.0708,-2.0786,-2.0792,-2.1022,-2.148,-2.148,-2.1667,-2.2011,-2.2011,-2.1873,-0.6006,-0.6769,-0.7126,-0.6967,-0.7199,-0.7299,-0.664,-0.6481,-0.6444,-0.6678,-0.6403,-0.6343,-0.6962,-0.7145,-0.7399,-0.8058,-0.8336,-0.8737,-0.9466,-0.993,-1.0365,-1.0833,-1.127,-1.1535,-1.1535,-1.1586,-1.1619,-1.1619,-1.1619,-1.1619,-1.1619,-1.1619,-1.1619,-1.1619,-1.1619,-1.1687,-1.183,-1.1891,-1.1965,-1.206,-1.1965,-1.1887,-1.1826,-1.1684,-1.1619,-1.1619,-1.1619,-1.1619,0.0,-1.1619,-1.1619,-1.1619,-1.1619,-1.1619,-1.1619,-1.1619,-1.1619,-1.1619,-1.1619,-1.1619,-1.1619,-1.1619,-1.1619,-1.1619,-1.1619,-1.1619,-1.1619,-1.1619,-1.1619,-1.1619,-1.1619,-1.1619,-1.1619,-1.1619,-1.1619,-1.1619,-1.1619,-1.1619,-1.1903,-1.2896,-1.4303,-1.5712,-1.7268,-1.8826,-1.9959,-2.0665,-2.0665,-2.0665,-2.0665,-2.0665,-2.0665,-2.0665,-2.0665,-2.0665,-2.0665,-2.0665,-2.0665,-2.0665,-2.0665,-2.0665,-2.0665,-2.0665,-2.0714,-2.0816,-2.0816,-2.1082,-2.1625,-2.1728,-2.1939,-2.2259,-2.2259,-2.212,0.0,-0.5976,-0.6969,-0.7158,-0.7381,-0.7229,-0.5916,-0.6438,0.0,-0.5925,-0.6169,-0.6707,-0.7081,-0.7207,-0.7318,-0.7682,-0.8163,-0.8693,-0.9167,-0.9751,-1.0395,-1.1111,-1.1321,-1.1406,-1.1406,-1.1535,-1.1619,-1.1619,-1.1619,-1.1619,-1.1619,-1.1619,-1.1619,-1.1619,-1.1619,-1.1694,-1.1843,-1.1989,-1.2074,-1.2094,-1.2074,-1.1986,-1.184,-1.1691,-1.1619,-1.1619,-1.1619,-1.1619,-1.1619,-1.1619,-1.1619,-1.1619,-1.1619,-1.1619,-1.1619,-1.1619,-1.1619,-1.1619,-1.1619,-1.1619,-1.1619,-1.1619,-1.1619,-1.1619,-1.1619,-1.1619,-1.1619,-1.1619,-1.1619,-1.1619,-1.1619,-1.1619,-1.1619,-1.1619,-1.1619,-1.1619,-1.1619,-1.1619,-1.1619,-1.1619,-1.2892,-1.4445,-1.5849,-1.7409,-1.9111,-2.0527,-2.0665,-2.0665,-2.0665,-2.0665,-2.0665,-2.0665,-2.0665,-2.0665,-2.0665,-2.0665,-2.0665,-2.0665,-2.0665,-2.0665,-2.0665,-2.0665,-2.078,-2.1028,-2.107,-2.1335,-2.1842,-2.2126,-2.2259,-2.2259,-2.2259,-2.2132,-0.1687,0.0,-0.6486,-0.6479,-0.6664,-0.6644,0.0,-0.5036,-0.5137,-0.5565,-0.5097,-0.5145,-0.7168,-0.727,-0.7403,-0.8387,-0.8832,-0.9235,-0.992,-1.0527,-1.1053,-1.1463,-1.1545,-1.1565,-1.1565,-1.1599,-1.1619,-1.1619,-1.1619,-1.1619,-1.1619,-1.1619,-1.1619,-1.1619,-1.1619,-1.1745,-1.2006,-1.2043,-1.2176,-1.2396,-1.2169,-1.2043,-1.1999,-1.1738,-1.1619,-1.1619,-1.1619,-1.1619,-1.1619,-1.1619,-1.1619,-1.1619,-1.1619,-1.1619,-1.1619,-1.1619,-1.1619,-1.1619,-1.1619,-1.1619,-1.1619,-1.1619,-1.1619,-1.1619,-1.1619,-1.1619,-1.1619,-1.1619,-1.1619,-1.1619,-1.1619,-1.1619,-1.1619,-1.1619,-1.1619,-1.1619,-1.1619,-1.1619,-1.1619,-1.1619,-1.3737,-1.5707,-1.599,-1.8396,-2.0243,-2.0665,-2.0665,-2.0665,-2.0665,-2.0665,-2.0665,-2.0665,-2.0665,-2.0665,-2.0665,-2.0665,-2.0665,-2.0665,-2.0665,-2.0665,-2.0665,-2.0665,-2.0696,-2.0762,-2.1166,-2.1444,-2.1577,-2.2036,-2.2259,-2.2259,-2.2259,-2.2229,-0.0639,-0.262,-0.5001,-0.6019,-0.6415,-0.6262,-0.5196,-0.4363,-0.3897,-0.4304,-0.4385,-0.4892,-0.6412,-0.6832,-0.7249,-0.8285,-0.8745,-0.9349,-1.0358,-1.0873,-1.1277,-1.1582,-1.1619,-1.1619,-1.1619,-1.1619,-1.1619,-1.1619,-1.1619,-1.1619,-1.1619,-1.1619,-1.1619,-1.1619,-1.1619,-1.1762,-1.2057,-1.206,-1.221,-1.2498,-1.2274,-1.2132,-1.2054,-1.1823,-1.1681,-1.1619,-1.1619,-1.1619,-1.1619,-1.1619,-1.1619,-1.1619,-1.1619,-1.1619,-1.1619,-1.1619,-1.1619,-1.1619,-1.1619,-1.1619,-1.1619,-1.1619,-1.1619,-1.1619,-1.1619,-1.1619,-1.1619,-1.1619,-1.1619,-1.1619,-1.1619,-1.1619,-1.1619,-1.1619,-1.1619,-1.1619,-1.1619,-1.1619,-1.1619,-1.1619,-1.2892,-1.4441,-1.5849,-1.7544,-1.9105,-2.0527,-2.0665,-2.0665,-2.0665,-2.0665,-2.0665,-2.0665,-2.0665,-2.0665,-2.0665,-2.0665,-2.0665,-2.0665,-2.0665,-2.0665,-2.0665,-2.0665,-2.0665,-2.0665,-2.1203,-2.148,-2.148,-2.2005,-2.2259,-2.2259,-2.2259,-2.2259,-0.0398,-0.1437,-0.2948,-0.4886,-0.5621,-0.5637,-0.4704,0.0,0.0,-0.2969,-0.3886,-0.4961,-0.5831,-0.6471,-0.7095,-0.8021,-0.8571,-0.943,-1.0649,-1.1002,-1.1277,-1.1582,-1.1619,-1.1619,-1.1619,-1.1619,-1.1619,-1.1619,-1.1619,-1.1619,-1.1619,-1.1619,-1.1619,-1.1619,-1.1619,-1.1752,-1.2023,-1.205,-1.2199,-1.2467,-1.2349,-1.221,-1.2057,-1.1901,-1.1752,-1.1619,-1.1619,-1.1619,-1.1619,-1.1619,-1.1619,-1.1619,-1.1619,-1.1619,-1.1619,-1.1619,-1.1619,-1.1619,-1.1619,-1.1619,-1.1619,-1.1619,-1.1619,-1.1619,-1.1619,-1.1619,-1.1619,-1.1619,-1.1619,-1.1619,-1.1619,-1.1619,-1.1619,-1.1619,-1.1619,-1.1619,-1.1619,-1.1619,-1.1619,-1.1619,-1.176,-1.2749,-1.5287,-1.6131,-1.7404,-1.9959,-2.0527,-2.0665,-2.0665,-2.0665,-2.0665,-2.0665,-2.0665,-2.0665,-2.0665,-2.0665,-2.0665,-2.0665,-2.0665,-2.0665,-2.0665,-2.0665,-2.0665,-2.0665,-2.1203,-2.148,-2.148,-2.2005,-2.2259,-2.2259,-2.2259,-2.2259,-0.0084,-0.0263,-0.0534,-0.0856,-0.2213,-0.3399,-0.3255,-0.3369,-0.3495,0.0,-0.3303,-0.43,-0.6693,-0.7241,-0.7639,-0.8603,-0.949,-1.0337,-1.1002,-1.1134,-1.1277,-1.1582,-1.1619,-1.1619,-1.1619,-1.1619,-1.1619,-1.1619,-1.1619,-1.1619,-1.1619,-1.1619,-1.1619,-1.1619,-1.1619,-1.1697,-1.1864,-1.1996,-1.2149,-1.2322,-1.2301,-1.221,-1.2057,-1.1901,-1.1752,-1.1619,-1.1619,-1.1619,-1.1619,-1.1619,-1.1619,-1.1619,-1.1619,-1.1619,-1.1619,-1.1619,-1.1619,-1.1619,-1.1619,-1.1619,-1.1619,-1.1619,-1.1619,-1.1619,-1.1619,-1.1619,-1.1619,-1.1619,-1.1619,-1.1619,-1.1619,-1.1619,-1.1619,-1.1619,-1.1619,-1.1619,-1.1619,-1.1619,-1.1619,-1.1619,-1.261,-1.3741,-1.4164,-1.6423,-1.8266,-1.8686,-1.982,-2.0665,-2.0665,-2.0665,-2.0665,-2.0665,-2.0665,-2.0665,-2.0665,-2.0665,-2.0665,-2.0665,-2.0665,-2.0665,-2.0665,-2.0665,-2.0665,-2.0665,-2.1203,-2.148,-2.148,-2.2005,-2.2259,-2.2259,-2.2259,-2.2259,-0.0,-0.0,-0.0,-0.0,-0.0645,-0.1354,-0.1343,-0.1543,-0.1649,-0.1745,-0.2753,-0.4142,-0.6025,-0.6859,-0.772,-0.8905,-0.9852,-1.067,-1.1104,-1.1236,-1.1369,-1.1592,-1.1619,-1.1619,-1.1619,-1.1619,-1.1619,-1.1619,-1.1619,-1.1619,-1.1619,-1.1619,-1.1619,-1.1619,-1.1619,-1.165,-1.1714,-1.1864,-1.2057,-1.2288,-1.2206,-1.2132,-1.2057,-1.1901,-1.1752,-1.1619,-1.1619,-1.1619,-1.1619,-1.1619,-1.1619,-1.1619,-1.1619,-1.1619,-1.1619,-1.1619,-1.1619,-1.1619,-1.1619,-1.1619,-1.1619,-1.1619,-1.1619,-1.1619,-1.1619,-1.1619,-1.1619,-1.1619,-1.1619,-1.1619,-1.1619,-1.1619,-1.1619,-1.1619,-1.1619,-1.1619,-1.1619,-1.1619,-1.1619,-1.1619,-1.2896,-1.416,-1.5004,-1.6987,-1.8692,-1.9535,-2.0243,-2.0665,-2.0665,-2.0665,-2.0665,-2.0665,-2.0665,-2.0665,-2.0665,-2.0665,-2.0665,-2.0665,-2.0665,-2.0665,-2.0665,-2.0665,-2.0665,-2.0665,-2.1203,-2.148,-2.148,-2.2005,-2.2259,-2.2265,-2.2558,-2.2558,-0.0,-0.0,-0.0,-0.0,-0.0,-0.0,-0.0,-0.0,-0.0102,-0.0413,-0.2293,-0.4037,-0.486,-0.6358,-0.7945,-0.9233,-1.0176,-1.0826,-1.1121,-1.1263,-1.1406,-1.1596,-1.1619,-1.1619,-1.1619,-1.1619,-1.1619,-1.1619,-1.1619,-1.1619,-1.1619,-1.1619,-1.1619,-1.1619,-1.1619,-1.1619,-1.1619,-1.1728,-1.1915,-1.2182,-1.2101,-1.2043,-1.2003,-1.1884,-1.1752,-1.1619,-1.1619,-1.1619,-1.1619,-1.1619,-1.1619,-1.1619,-1.1619,-1.1619,-1.1619,-1.1619,-1.1619,-1.1619,-1.1619,-1.1619,-1.1619,-1.1619,-1.1619,-1.1619,-1.1619,-1.1619,-1.1619,-1.1619,-1.1619,-1.1619,-1.1619,-1.1619,-1.1619,-1.1619,-1.1619,-1.1619,-1.1619,-1.1619,-1.1619,-1.1619,-1.261,-1.388,-1.5287,-1.6846,-1.8406,-1.9959,-2.0527,-2.0665,-2.0665,-2.0665,-2.0665,-2.0665,-2.0665,-2.0665,-2.0665,-2.0665,-2.0665,-2.0665,-2.0665,-2.0665,-2.0665,-2.0665,-2.0665,-2.0665,-2.1203,-2.148,-2.148,-2.2005,-2.2259,-2.2265,-2.2707,-2.2856,-0.0,-0.0,-0.0,-0.0,-0.0,-0.0,-0.0,-0.0,-0.0,-0.0,-0.1709,-0.3265,-0.339,-0.6306,-0.8884,-0.9563,-1.0309,-1.0826,-1.1121,-1.1172,-1.129,-1.1586,-1.1619,-1.1619,-1.1619,-1.1619,-1.1619,-1.1619,-1.1619,-1.1619,-1.1619,-1.1619,-1.1619,-1.1619,-1.1619,-1.1619,-1.1619,-1.163,-1.1711,-1.1867,-1.1999,-1.1986,-1.1847,-1.1837,-1.1752,-1.1619,-1.1619,-1.1619,-1.1619,-1.1619,-1.1619,-1.1619,-1.1619,-1.1619,-1.1619,-1.1619,-1.1619,-1.1619,-1.1619,-1.1619,-1.1619,-1.1619,-1.1619,-1.1619,-1.1619,-1.1619,-1.1619,-1.1619,-1.1619,-1.1619,-1.1619,-1.1619,-1.1619,-1.1619,-1.1619,-1.1619,-1.1619,-1.1619,-1.1619,-1.1619,-1.1619,-1.2183,-1.3741,-1.5287,-1.6841,-1.8266,-1.982,-2.0665,-2.0665,-2.0665,-2.0665,-2.0665,-2.0665,-2.0665,-2.0665,-2.0665,-2.0665,-2.0665,-2.0665,-2.0665,-2.0665,-2.0665,-2.0665,-2.0665,-2.1203,-2.148,-2.148,-2.2005,-2.2259,-2.2265,-2.2707,-2.2856,-0.0,-0.0,-0.0,-0.0,-0.0,-0.0,-0.0,-0.0,-0.0,-0.0,-0.2045,-0.3906,-0.3848,-0.6862,-0.9257,-0.935,-1.0127,-1.0766,-1.0733,-1.1047,-1.1348,-1.1463,-1.1562,-1.1619,-1.1619,-1.1619,-1.1619,-1.1619,-1.1619,-1.1619,-1.1619,-1.1619,-1.1619,-1.1619,-1.1619,-1.1619,-1.1619,-1.1619,-1.1647,-1.1701,-1.1759,-1.1803,-1.1826,-1.1738,-1.167,-1.1619,-1.1619,-1.1619,-1.1619,-1.1619,-1.1619,-1.1619,-1.1619,-1.1619,-1.1619,-1.1619,-1.1619,-1.1619,-1.1619,-1.1619,-1.1619,-1.1619,-1.1619,-1.1619,-1.1619,-1.1619,-1.1619,-1.1619,-1.1619,-1.1619,-1.1619,-1.1619,-1.1619,-1.1619,-1.1619,-1.1619,-1.1619,-1.1619,-1.1619,-1.1619,-1.3174,-1.4583,-1.5146,-1.7263,-1.9105,-1.968,-2.0388,-2.0665,-2.0665,-2.0665,-2.0665,-2.0665,-2.0665,-2.0665,-2.0665,-2.0665,-2.0665,-2.0665,-2.0665,-2.0665,-2.0665,-2.0665,-2.0665,-2.0665,-2.1203,-2.148,-2.148,-2.2301,-2.2707,-2.2707,-2.3302,-2.3593,-0.0,-0.0,-0.0,-0.0,-0.0,-0.0,-0.0,-0.0,-0.0,-0.0,-0.1629,-0.3535,-0.5297,-0.7811,-0.9462,-0.9091,-1.0133,-1.0756,-1.0386,-1.0842,-1.1267,-1.1314,-1.1413,-1.1474,-1.1474,-1.1518,-1.1548,-1.1548,-1.1592,-1.1619,-1.1619,-1.1619,-1.1619,-1.1619,-1.1619,-1.1619,-1.1619,-1.1619,-1.1619,-1.1619,-1.1619,-1.167,-1.1759,-1.1664,-1.1619,-1.1619,-1.1619,-1.1619,-1.1619,-1.1619,-1.1619,-1.1619,-1.1619,-1.1619,-1.1619,-1.1619,-1.1619,-1.1619,-1.1619,-1.1619,-1.1619,-1.1619,-1.1619,-1.1619,-1.1619,-1.1619,-1.1619,-1.1619,-1.1619,-1.1619,-1.1619,-1.1619,-1.1619,-1.1619,-1.1619,-1.1619,-1.1619,-1.1619,-1.1619,-1.1619,-1.3317,-1.5004,-1.599,-1.783,-1.9529,-2.0527,-2.0665,-2.0665,-2.0665,-2.0665,-2.0665,-2.0665,-2.0665,-2.0665,-2.0665,-2.0665,-2.0665,-2.0665,-2.0665,-2.0665,-2.0665,-2.0665,-2.0665,-2.0665,-2.1118,-2.1491,-2.1485,-2.2319,-2.288,-2.288,-2.3703,-2.3992,-0.0,-0.0,-0.0,-0.0,-0.0,-0.0,-0.0,-0.0,-0.0,-0.0,-0.0,-0.1815,-0.75,-0.9136,-0.9512,-0.9215,-1.005,-1.0635,-1.037,-1.067,-1.1002,-1.1141,-1.1162,-1.1162,-1.1162,-1.1301,-1.1389,-1.1392,-1.1531,-1.1616,-1.1619,-1.1619,-1.1619,-1.1619,-1.1619,-1.1619,-1.1619,-1.1619,-1.1619,-1.1619,-1.1619,-1.1619,-1.1619,-1.1619,-1.1619,-1.1619,-1.1619,-1.1619,-1.1619,-1.1619,-1.1619,-1.1619,-1.1616,-1.1616,-1.1616,-1.1616,-1.1616,-1.1616,-1.1616,-1.1616,-1.1616,-1.1619,-1.1619,-1.1619,-1.1619,-1.1619,-1.1619,-1.1619,-1.1619,-1.1619,-1.1619,-1.1619,-1.1619,-1.1619,-1.1619,-1.1619,-1.1619,-1.1619,-1.1619,-1.1619,-1.1619,-1.261,-1.5566,-1.6131,-1.7122,-2.0243,-2.0665,-2.0665,-2.0665,-2.0665,-2.0665,-2.0665,-2.0665,-2.0665,-2.0665,-2.0665,-2.0665,-2.0665,-2.0665,-2.0665,-2.0665,-2.0665,-2.0665,-2.0665,-2.0925,-2.1193,-2.1616,-2.218,-2.2739,-2.3031,-2.3754,-2.3881,-0.0,-0.0,-0.0,-0.0,-0.0,-0.0,-0.0,-0.0,-0.0,-0.0,-0.1594,-0.3718,-0.6,-0.8246,-0.971,-0.9516,-1.019,-1.0601,-1.0245,-1.0611,-1.0965,-1.1006,-1.1101,-1.1162,-1.1162,-1.1202,-1.1274,-1.1382,-1.1433,-1.1504,-1.1613,-1.1619,-1.1619,-1.1619,-1.1619,-1.1619,-1.1619,-1.1619,-1.1619,-1.1619,-1.1619,-1.1619,-1.1619,-1.1619,-1.1619,-1.1619,-1.1619,-1.1619,-1.1619,-1.1619,-1.1619,-1.1609,-1.1501,-1.146,-1.1447,-1.1338,-1.1297,-1.1314,-1.1419,-1.146,-1.1477,-1.1586,-1.1619,-1.1619,-1.1619,-1.1619,-1.1619,-1.1619,-1.1619,-1.1619,-1.1619,-1.1619,-1.1619,-1.1619,-1.1619,-1.1619,-1.1619,-1.1619,-1.1619,-1.1619,-1.2466,-1.388,-1.5707,-1.6982,-1.8401,-2.0388,-2.0665,-2.0665,-2.0665,-2.0665,-2.0665,-2.0665,-2.0665,-2.0665,-2.0665,-2.0665,-2.0665,-2.0665,-2.0943,-2.0943,-2.0671,-2.0665,-2.0665,-2.0665,-2.0925,-2.1193,-2.1616,-2.2275,-2.2745,-2.3177,-2.3694,-2.3838,-0.0,-0.0,-0.0,-0.0,-0.0,-0.0,-0.0,-0.0,-0.0,-0.0,-0.1338,-0.3467,-0.6573,-0.8698,-1.0019,-0.9791,-1.0326,-1.0588,-1.019,-1.0531,-1.0856,-1.0856,-1.0934,-1.0989,-1.0989,-1.1043,-1.1114,-1.1209,-1.1267,-1.1341,-1.1433,-1.144,-1.1467,-1.1528,-1.1528,-1.1558,-1.1619,-1.1619,-1.1589,-1.1528,-1.1528,-1.1497,-1.1443,-1.1562,-1.1619,-1.1619,-1.1619,-1.1619,-1.1613,-1.1555,-1.1528,-1.1514,-1.1358,-1.1301,-1.129,-1.1196,-1.1162,-1.1175,-1.1267,-1.1341,-1.1406,-1.1497,-1.1569,-1.1619,-1.1619,-1.1619,-1.1619,-1.1619,-1.1619,-1.1619,-1.1619,-1.1572,-1.1545,-1.1606,-1.1619,-1.1619,-1.1619,-1.1619,-1.1619,-1.1619,-1.2327,-1.3456,-1.5008,-1.6418,-1.7975,-1.9535,-2.0243,-2.0665,-2.0665,-2.0665,-2.0665,-2.0665,-2.0665,-2.0665,-2.0665,-2.0665,-2.0804,-2.0943,-2.1075,-2.1214,-2.1081,-2.0943,-2.0804,-2.0665,-2.0962,-2.1321,-2.1735,-2.2306,-2.2873,-2.3311,-2.3572,-2.3708,-0.0,-0.0,-0.0,-0.0,-0.0,-0.0,-0.0,-0.0,-0.0,-0.0,-0.0,-0.1986,-0.8192,-0.9877,-1.0225,-0.9646,-1.019,-1.0455,-1.0057,-1.0455,-1.0721,-1.0721,-1.0721,-1.0721,-1.0721,-1.0846,-1.0931,-1.0948,-1.107,-1.1148,-1.1162,-1.1162,-1.1226,-1.1365,-1.1369,-1.1436,-1.1575,-1.1575,-1.1508,-1.1369,-1.1369,-1.1297,-1.1172,-1.145,-1.1575,-1.1575,-1.1575,-1.1575,-1.1565,-1.1426,-1.1369,-1.1355,-1.1202,-1.1141,-1.1141,-1.1128,-1.1121,-1.1124,-1.1138,-1.1243,-1.1372,-1.1385,-1.1494,-1.1619,-1.1619,-1.1619,-1.1619,-1.1619,-1.1619,-1.1616,-1.1603,-1.1494,-1.1423,-1.1548,-1.1589,-1.1603,-1.1616,-1.176,-1.176,-1.176,-1.1903,-1.2466,-1.4022,-1.5429,-1.6841,-1.8406,-1.982,-2.0665,-2.0665,-2.0665,-2.0665,-2.0665,-2.0665,-2.0665,-2.0665,-2.0665,-2.0804,-2.1214,-2.1214,-2.1352,-2.1766,-2.149,-2.1075,-2.0804,-2.1075,-2.149,-2.1766,-2.2438,-2.2988,-2.3293,-2.3561,-2.3541,-0.0,-0.0,-0.0,-0.0,-0.0,-0.0,-0.0,-0.0,-0.0,-0.0,-0.0403,-0.2008,-0.5633,-0.7367,-0.8296,-0.8709,-0.9652,-1.0054,-0.9111,-0.9915,-1.0721,-1.0721,-1.0721,-1.0721,-1.0721,-1.0751,-1.0819,-1.0941,-1.0978,-1.1043,-1.1158,-1.1162,-1.1179,-1.1209,-1.1212,-1.1226,-1.126,-1.126,-1.1246,-1.1212,-1.1212,-1.1196,-1.1165,-1.1229,-1.126,-1.126,-1.126,-1.126,-1.1257,-1.1226,-1.1212,-1.1199,-1.1053,-1.0995,-1.0982,-1.086,-1.0816,-1.0833,-1.0951,-1.109,-1.1229,-1.1352,-1.1494,-1.1619,-1.1619,-1.1619,-1.1619,-1.1619,-1.1619,-1.1592,-1.147,-1.1416,-1.1369,-1.128,-1.1352,-1.1474,-1.1592,-1.261,-1.346,-1.346,-1.4303,-1.5571,-1.7132,-1.77,-1.8406,-1.9959,-2.0527,-2.0665,-2.0665,-2.0665,-2.0665,-2.0665,-2.0665,-2.0665,-2.0665,-2.0665,-2.0804,-2.1214,-2.149,-2.1766,-2.1766,-2.1766,-2.149,-2.1075,-2.149,-2.1766,-2.1766,-2.2238,-2.2546,-2.2966,-2.3026,-2.302,-0.0,-0.0,-0.0,-0.0,-0.0,-0.0,-0.0,-0.0,-0.0,-0.0,-0.0807,-0.2554,-0.5367,-0.6445,-0.7386,-0.8443,-0.8038,-0.7905,-0.8573,-0.9244,-0.9915,-1.0588,-1.0721,-1.0721,-1.0721,-1.0721,-1.0755,-1.0833,-1.0839,-1.087,-1.0948,-1.0951,-1.0985,-1.1056,-1.106,-1.1094,-1.1162,-1.1162,-1.1128,-1.106,-1.106,-1.1023,-1.0955,-1.1097,-1.1162,-1.1162,-1.1162,-1.1162,-1.1158,-1.1087,-1.106,-1.1046,-1.0897,-1.0839,-1.0829,-1.0751,-1.0721,-1.0731,-1.0812,-1.0938,-1.1073,-1.1155,-1.128,-1.1402,-1.1402,-1.1402,-1.1402,-1.1402,-1.1402,-1.1382,-1.1304,-1.1229,-1.1179,-1.1165,-1.1223,-1.144,-1.2219,-1.3072,-1.3788,-1.4574,-1.5429,-1.6158,-1.7107,-1.784,-1.8971,-2.0527,-2.0665,-2.0665,-2.0665,-2.0665,-2.0665,-2.0665,-2.0665,-2.0665,-2.0665,-2.0665,-2.0943,-2.149,-2.1628,-2.1904,-2.231,-2.2317,-2.2035,-2.149,-2.1897,-2.2035,-2.2035,-2.2448,-2.2722,-2.2859,-2.2859,-2.2859,-0.0,-0.0,-0.0,-0.0,-0.0,-0.0,-0.0,-0.0,-0.0,-0.0,-0.1075,-0.2826,-0.5235,-0.5915,-0.6455,-0.7641,-0.6164,-0.5628,-0.7902,-0.8437,-0.9108,-1.0585,-1.0721,-1.0721,-1.0721,-1.0721,-1.0721,-1.0721,-1.0721,-1.0721,-1.0721,-1.0721,-1.0778,-1.0904,-1.0911,-1.0968,-1.1084,-1.1087,-1.1026,-1.0911,-1.0911,-1.0843,-1.0727,-1.0975,-1.1087,-1.1087,-1.1087,-1.1087,-1.1077,-1.0958,-1.0911,-1.0897,-1.0768,-1.0721,-1.0721,-1.0721,-1.0721,-1.0721,-1.0721,-1.0819,-1.0948,-1.0948,-1.1046,-1.1162,-1.1162,-1.1162,-1.1162,-1.1162,-1.1162,-1.1158,-1.1131,-1.1036,-1.0972,-1.1067,-1.1087,-1.1509,-1.265,-1.3074,-1.3796,-1.5326,-1.6077,-1.6575,-1.6752,-1.7949,-1.9256,-2.0527,-2.0665,-2.0665,-2.0665,-2.0665,-2.0665,-2.0665,-2.0665,-2.0665,-2.0665,-2.0665,-2.0943,-2.1766,-2.1766,-2.2179,-2.2859,-2.2859,-2.2585,-2.2042,-2.231,-2.231,-2.231,-2.2722,-2.2859,-2.2859,-2.2859,-2.2859,-0.0,-0.0,-0.0,-0.0,-0.0,-0.0,-0.0,-0.0,-0.0,-0.0,-0.0667,-0.1614,-0.2551,-0.3764,-0.4708,-0.4836,-0.4559,-0.4956,-0.6431,-0.7769,-0.9108,-1.0585,-1.0721,-1.0721,-1.0721,-1.0721,-1.0721,-1.0721,-1.0721,-1.0721,-1.0721,-1.0721,-1.0727,-1.0751,-1.0751,-1.0761,-1.0778,-1.0778,-1.0768,-1.0751,-1.0751,-1.0741,-1.0721,-1.0761,-1.0778,-1.0778,-1.0778,-1.0778,-1.0778,-1.0758,-1.0751,-1.0748,-1.0727,-1.0721,-1.0721,-1.0721,-1.0721,-1.0721,-1.0721,-1.0819,-1.0948,-1.0948,-1.1046,-1.1162,-1.1162,-1.1162,-1.1162,-1.1162,-1.1162,-1.1134,-1.1009,-1.0962,-1.0921,-1.0806,-1.0778,-1.085,-1.1379,-1.2532,-1.3763,-1.5273,-1.7764,-1.9728,-1.9763,-2.0095,-2.0527,-2.0665,-2.0665,-2.0665,-2.0665,-2.0665,-2.0665,-2.0665,-2.0665,-2.0665,-2.0665,-2.0665,-2.0943,-2.1766,-2.1766,-2.2179,-2.2859,-2.2859,-2.2866,-2.2722,-2.2866,-2.2585,-2.231,-2.2722,-2.2859,-2.2859,-2.2859,-2.2859,-0.0,-0.0,-0.0,-0.0,-0.0,-0.0,-0.0,-0.0,-0.0,-0.0,-0.053,-0.1333,-0.2011,-0.2689,-0.3499,-0.4571,-0.3762,-0.3357,-0.4023,-0.6028,-0.7902,-0.9377,-1.0183,-1.0721,-1.0721,-1.0721,-1.0721,-1.0721,-1.0721,-1.0721,-1.0721,-1.0721,-1.0721,-1.0721,-1.0721,-1.0721,-1.0721,-1.0721,-1.0721,-1.0721,-1.0721,-1.0721,-1.0721,-1.0721,-1.0721,-1.0721,-1.0721,-1.0721,-1.0721,-1.0721,-1.0721,-1.0721,-1.0721,-1.0721,-1.0721,-1.0721,-1.0721,-1.0721,-1.0721,-1.0765,-1.0819,-1.0819,-1.0863,-1.0914,-1.0914,-1.0914,-1.0914,-1.0914,-1.0914,-1.09,-1.0836,-1.0819,-1.0802,-1.0734,-1.0721,-1.0755,-1.0887,-1.1985,-1.3746,-1.6131,-1.7933,-1.9437,-2.0137,-2.0496,-2.0665,-2.0665,-2.0665,-2.0665,-2.0665,-2.0665,-2.0665,-2.0665,-2.0665,-2.0665,-2.0665,-2.0665,-2.0943,-2.149,-2.1628,-2.2035,-2.2585,-2.2722,-2.2859,-2.2859,-2.2859,-2.2859,-2.2585,-2.2859,-2.2859,-2.2859,-2.2859,-2.2859,-0.0,-0.0,-0.0,-0.0,-0.0,-0.0,-0.0,-0.0,-0.0127,-0.0389,-0.0785,-0.1316,-0.2,-0.2147,-0.2692,-0.4035,-0.3095,-0.2288,-0.2686,-0.4827,-0.6967,-0.844,-0.9782,-1.0721,-1.0721,-1.0721,-1.0721,-1.0721,-1.0721,-1.0721,-1.0721,-1.0721,-1.0721,-1.0721,-1.0721,-1.0721,-1.0721,-1.0721,-1.0721,-1.0721,-1.0721,-1.0721,-1.0721,-1.0721,-1.0721,-1.0721,-1.0721,-1.0721,-1.0721,-1.0721,-1.0721,-1.0721,-1.0721,-1.0721,-1.0721,-1.0721,-1.0721,-1.0721,-1.0721,-1.0721,-1.0721,-1.0721,-1.0721,-1.0721,-1.0721,-1.0721,-1.0721,-1.0721,-1.0721,-1.0721,-1.0721,-1.0721,-1.0721,-1.0721,-1.0721,-1.0721,-1.0721,-1.1769,-1.3643,-1.6298,-1.7454,-1.8444,-1.9888,-2.0394,-2.0569,-2.0569,-2.0569,-2.0545,-2.0478,-2.0472,-2.0472,-2.0472,-2.0527,-2.0569,-2.0569,-2.0629,-2.0804,-2.1214,-2.1558,-2.1795,-2.2199,-2.2616,-2.2752,-2.2752,-2.2826,-2.2859,-2.2859,-2.2859,-2.2859,-2.2859,-2.2859,-2.2819,-0.0,-0.0,-0.0,-0.0,-0.0,-0.0,-0.0,-0.0,-0.0379,-0.1646,-0.1407,-0.1167,-0.1974,-0.2135,-0.2289,-0.2289,-0.2289,-0.2691,-0.4031,-0.5501,-0.6967,-0.844,-0.9782,-1.0721,-1.0721,-1.0721,-1.0721,-1.0721,-1.0721,-1.0721,-1.0721,-1.0721,-1.0721,-1.0721,-1.0721,-1.0721,-1.0721,-1.0721,-1.0721,-1.0721,-1.0721,-1.0721,-1.0721,-1.0721,-1.0721,-1.0721,-1.0721,-1.0721,-1.0721,-1.0721,-1.0721,-1.0721,-1.0721,-1.0721,-1.0721,-1.0721,-1.0721,-1.0721,-1.0721,-1.0721,-1.0721,-1.0721,-1.0721,-1.0721,-1.0721,-1.0721,-1.0721,-1.0721,-1.0721,-1.0721,-1.0721,-1.0721,-1.0721,-1.0721,-1.0721,-1.0721,-1.0721,-1.1769,-1.321,-1.4791,-1.6293,-1.7995,-1.959,-2.0122,-2.0297,-2.0297,-2.0297,-2.0207,-1.9959,-1.9923,-1.9923,-1.9923,-2.0152,-2.0297,-2.0297,-2.0527,-2.0804,-2.1214,-2.1239,-2.1501,-2.1906,-2.231,-2.2438,-2.2438,-2.2719,-2.2859,-2.2859,-2.2859,-2.2859,-2.2859,-2.2859,-2.2712,-0.0,-0.0,-0.0,-0.0,-0.0,-0.0,-0.0,-0.0,-0.0369,-0.174,-0.1764,-0.1662,-0.1945,-0.2105,-0.2265,-0.2151,-0.2155,-0.2423,-0.2826,-0.4164,-0.5635,-0.6967,-0.844,-0.9646,-1.0588,-1.0721,-1.0721,-1.0721,-1.0721,-1.0721,-1.0721,-1.0721,-1.0721,-1.0721,-1.0721,-1.0721,-1.0721,-1.0721,-1.0721,-1.0721,-1.0721,-1.0721,-1.0721,-1.0721,-1.0721,-1.0721,-1.0721,-1.0721,-1.0721,-1.0721,-1.0721,-1.0721,-1.0721,-1.0721,-1.0721,-1.0721,-1.0721,-1.0721,-1.0721,-1.0721,-1.0721,-1.0721,-1.0721,-1.0721,-1.0721,-1.0721,-1.0721,-1.0721,-1.0721,-1.0721,-1.0721,-1.0721,-1.0721,-1.0721,-1.0721,-1.0721,-1.0721,-1.1115,-1.2161,-1.4385,-1.5468,-1.6838,-1.9196,-1.9845,-2.0026,-2.0026,-2.0026,-1.9996,-1.9899,-1.9887,-1.9887,-1.9887,-2.0122,-2.0207,-2.0038,-2.0267,-2.0482,-2.0306,-2.0734,-2.1079,-2.1213,-2.1879,-2.2225,-2.2412,-2.2525,-2.2672,-2.2859,-2.2859,-2.2766,-2.2579,-2.2579,-2.2418,-0.0,-0.0,-0.0,-0.0,-0.0,-0.0,-0.0,-0.0,-0.0237,-0.1097,-0.173,-0.2003,-0.2041,-0.2065,-0.2092,-0.2133,-0.2139,-0.2143,-0.2153,-0.3362,-0.4701,-0.5635,-0.7369,-0.8975,-0.9915,-1.0452,-1.0721,-1.0721,-1.0721,-1.0721,-1.0721,-1.0721,-1.0721,-1.0721,-1.0721,-1.0721,-1.0721,-1.0721,-1.0721,-1.0721,-1.0721,-1.0721,-1.0721,-1.0721,-1.0721,-1.0721,-1.0721,-1.0721,-1.0721,-1.0721,-1.0721,-1.0721,-1.0721,-1.0721,-1.0721,-1.0721,-1.0721,-1.0721,-1.0721,-1.0721,-1.0721,-1.0721,-1.0721,-1.0721,-1.0721,-1.0721,-1.0721,-1.0721,-1.0721,-1.0721,-1.0721,-1.0721,-1.0721,-1.0721,-1.0721,-1.0721,-1.0721,-1.0721,-1.1376,-1.3735,-1.4358,-1.5262,-1.7725,-1.8685,-1.9078,-1.9078,-1.9554,-1.982,-1.9633,-1.9694,-1.9712,-1.9621,-1.9851,-1.9935,-1.976,-1.9989,-2.0074,-1.9899,-2.0454,-2.0793,-2.0793,-2.1451,-2.1931,-2.2124,-2.2225,-2.2418,-2.2712,-2.2712,-2.2612,-2.2412,-2.2318,-2.2171,0.0,0.0,0.0,-0.0,-0.0,-0.0,-0.0,-0.0,-0.0,-0.0,-0.1083,-0.1945,-0.2005,-0.2016,-0.2036,-0.2097,-0.2107,-0.2119,-0.2149,-0.336,-0.4298,-0.43,-0.6838,-0.8573,-0.8573,-0.9915,-1.0721,-1.0721,-1.0721,-1.0721,-1.0721,-1.0721,-1.0721,-1.0721,-1.0721,-1.0721,-1.0721,-1.0721,-1.0721,-1.0721,-1.0721,-1.0721,-1.0721,-1.0721,-1.0721,-1.0721,-1.0721,-1.0721,-1.0721,-1.0721,-1.0721,-1.0721,-1.0721,-1.0721,-1.0721,-1.0721,-1.0721,-1.0721,-1.0721,-1.0721,-1.0721,-1.0721,-1.0721,-1.0721,-1.0721,-1.0721,-1.0721,-1.0721,-1.0721,-1.0721,-1.0721,-1.0721,-1.0721,-1.0721,-1.0721,-1.0721,-1.0721,-1.0721,-1.1115,-1.2557,-1.2816,-1.3265,-1.5039,-1.6405,-1.734,-1.734,-1.8749,-1.967,-1.9145,-1.9295,-1.9356,-1.9102,-1.9307,-1.9464,-1.9458,-1.9712,-1.9869,-1.9863,-2.0273,-2.0507,-2.0507,-2.1149,-2.1543,-2.155,-2.183,-2.2118,-2.2405,-2.2405,-2.2405,-2.2398,-2.2098,-2.1957,-0.0,0.0,0.0,0.0,0.0,0.0,-0.0,-0.0,-0.0,-0.0,-0.0681,-0.1393,-0.194,-0.1955,-0.1975,-0.2034,-0.2062,-0.2087,-0.2118,-0.2519,-0.3058,-0.4162,-0.5902,-0.7369,-0.844,-0.9915,-1.0721,-1.0721,-1.0721,-1.0721,-1.0721,-1.0721,-1.0721,-1.0721,-1.0721,-1.0721,-1.0721,-1.0721,-1.0721,-1.0721,-1.0721,-1.0721,-1.0721,-1.0721,-1.0721,-1.0721,-1.0721,-1.0721,-1.0721,-1.0721,-1.0721,-1.0721,-1.0721,-1.0721,-1.0721,-1.0721,-1.0721,-1.0721,-1.0721,-1.0721,-1.0721,-1.0721,-1.0721,-1.0721,-1.0721,-1.0721,-1.0721,-1.0721,-1.0721,-1.0721,-1.0721,-1.0721,-1.0721,-1.0721,-1.0721,-1.0721,-1.0721,-1.0721,-1.1115,-1.2557,-1.2816,-1.3223,-1.4721,-1.5391,-1.5909,-1.6952,-1.7532,-1.8058,-1.8962,-1.9138,-1.9157,-1.9084,-1.9307,-1.9386,-1.9199,-1.9428,-1.9501,-1.9314,-1.961,-1.9952,-2.0221,-2.0605,-2.108,-2.155,-2.163,-2.1817,-2.2104,-2.2104,-2.2104,-2.2091,-2.159,-2.1349,-0.0,-0.0,-0.0,-0.0,0.0,0.0,-0.0,-0.0,-0.0,-0.0,-0.0334,-0.0795,-0.1779,-0.1912,-0.1928,-0.1975,-0.1996,-0.2027,-0.2082,-0.2091,-0.2359,-0.3301,-0.517,-0.6777,-0.7575,-0.948,-1.0721,-1.0721,-1.0721,-1.0721,-1.0721,-1.0721,-1.0721,-1.0721,-1.0721,-1.0721,-1.0721,-1.0721,-1.0721,-1.0721,-1.0721,-1.0721,-1.0721,-1.0721,-1.0721,-1.0721,-1.0721,-1.0721,-1.0721,-1.0721,-1.0721,-1.0721,-1.0721,-1.0721,-1.0721,-1.0721,-1.0721,-1.0721,-1.0721,-1.0721,-1.0721,-1.0721,-1.0721,-1.0721,-1.0721,-1.0721,-1.0721,-1.0721,-1.0721,-1.0721,-1.0721,-1.0721,-1.0721,-1.0721,-1.0721,-1.0721,-1.0721,-1.0721,-1.0982,-1.1769,-1.1901,-1.2161,-1.2947,-1.36,-1.4254,-1.5159,-1.6285,-1.7358,-1.8168,-1.8776,-1.9193,-1.909,-1.9211,-1.9241,-1.909,-1.9217,-1.9241,-1.9084,-1.945,-1.9705,-1.9845,-2.0354,-2.0814,-2.1241,-2.137,-2.145,-2.1617,-2.1744,-2.1744,-2.1617,-2.1269,-2.1109,-0.0,-0.0,-0.0,-0.0,-0.0,0.0,-0.0,-0.0,-0.0,-0.0,-0.0,-0.0335,-0.1387,-0.1747,-0.1875,-0.2021,-0.1915,-0.1953,-0.2046,-0.2059,-0.2189,-0.2321,-0.4686,-0.6423,-0.6553,-0.9019,-1.0697,-1.0697,-1.0711,-1.0714,-1.0697,-1.0711,-1.0721,-1.0721,-1.0721,-1.0721,-1.0721,-1.0721,-1.0721,-1.0721,-1.0721,-1.0721,-1.0721,-1.0721,-1.0721,-1.0721,-1.0721,-1.0721,-1.0721,-1.0721,-1.0721,-1.0721,-1.0721,-1.0721,-1.0721,-1.0721,-1.0721,-1.0721,-1.0721,-1.0721,-1.0721,-1.0721,-1.0721,-1.0721,-1.0721,-1.0721,-1.0721,-1.0721,-1.0721,-1.0721,-1.0721,-1.0721,-1.0721,-1.0721,-1.0721,-1.0721,-1.0721,-1.0721,-1.0721,-1.0721,-1.0721,-1.0721,-1.0721,-1.1769,-1.2684,-1.2816,-1.5327,-1.7102,-1.7007,-1.8482,-1.9332,-1.9102,-1.9078,-1.9078,-1.9078,-1.9078,-1.9078,-1.9078,-1.9328,-1.9577,-1.9705,-2.0227,-2.0609,-2.0609,-2.0982,-2.1109,-2.1109,-2.141,-2.1403,-2.1109,-2.1109,-2.1109,-0.0,-0.0,-0.0,-0.0,-0.0,0.0,-0.0,-0.0,-0.0,-0.0,-0.0,-0.01,-0.0317,-0.0755,-0.1308,-0.186,-0.1925,-0.1898,-0.2011,-0.2027,-0.2417,-0.3471,-0.5158,-0.6582,-0.7611,-0.9407,-1.0534,-1.0534,-1.0649,-1.0666,-1.0541,-1.0653,-1.0721,-1.0721,-1.0721,-1.0721,-1.0721,-1.0721,-1.0721,-1.0721,-1.0721,-1.0721,-1.0721,-1.0721,-1.0721,-1.0721,-1.0721,-1.0721,-1.0721,-1.0721,-1.0721,-1.0721,-1.0721,-1.0721,-1.0721,-1.0721,-1.0721,-1.0721,-1.0721,-1.0721,-1.0721,-1.0721,-1.0721,-1.0721,-1.0721,-1.0721,-1.0721,-1.0721,-1.0721,-1.0721,-1.0721,-1.0721,-1.0721,-1.0721,-1.0721,-1.0721,-1.0721,-1.0721,-1.0721,-1.0721,-1.0721,-1.0721,-1.0721,-1.0982,-1.1508,-1.2684,-1.4286,-1.5739,-1.6856,-1.8325,-1.9132,-1.9084,-1.9078,-1.9078,-1.9078,-1.9078,-1.9078,-1.9078,-1.9206,-1.9462,-1.9979,-2.0106,-2.0482,-2.0982,-2.1109,-2.1109,-2.1109,-2.141,-2.1403,-2.1109,-2.1109,-2.1109,-0.0,-0.0,-0.0,-0.0,-0.0,0.0,0.0,-0.0,-0.0,-0.0,-0.0,-0.0,-0.0,-0.0208,-0.0731,-0.1703,-0.1659,-0.1609,-0.1898,-0.1933,-0.2201,-0.2833,-0.4242,-0.5659,-0.7036,-0.8458,-0.9736,-1.0385,-1.0524,-1.0571,-1.0493,-1.0636,-1.0721,-1.0721,-1.0721,-1.0721,-1.0721,-1.0721,-1.0721,-1.0721,-1.0721,-1.0721,-1.0721,-1.0721,-1.0721,-1.0721,-1.0721,-1.0721,-1.0721,-1.0721,-1.0721,-1.0721,-1.0721,-1.0721,-1.0721,-1.0721,-1.0721,-1.0721,-1.0721,-1.0721,-1.0721,-1.0721,-1.0721,-1.0721,-1.0721,-1.0721,-1.0721,-1.0721,-1.0721,-1.0721,-1.0721,-1.0721,-1.0721,-1.0721,-1.0721,-1.0721,-1.0721,-1.0721,-1.0721,-1.0721,-1.0721,-1.0721,-1.0721,-1.0721,-1.0982,-1.1637,-1.36,-1.5168,-1.5814,-1.777,-1.9078,-1.9078,-1.9078,-1.9078,-1.9078,-1.9078,-1.9078,-1.9078,-1.92,-1.9456,-1.9839,-2.0227,-2.0609,-2.1109,-2.1109,-2.1109,-2.1109,-2.1256,-2.1256,-2.1109,-2.1109,-2.1109,-0.0,-0.0,-0.0,-0.0,-0.0,-0.0,0.0,0.0,0.0,-0.0,-0.0,-0.0,-0.0,-0.0,-0.0302,-0.1346,-0.1396,-0.1317,-0.1854,-0.18,-0.1733,-0.1865,-0.3354,-0.487,-0.6185,-0.7439,-0.872,-1.0099,-1.0159,-1.0216,-1.0402,-1.0578,-1.0677,-1.0677,-1.0704,-1.0721,-1.0721,-1.0721,-1.0721,-1.0721,-1.0721,-1.0721,-1.0721,-1.0721,-1.0721,-1.0721,-1.0721,-1.0721,-1.0721,-1.0721,-1.0721,-1.0721,-1.0721,-1.0721,-1.0721,-1.0721,-1.0721,-1.0721,-1.0721,-1.0721,-1.0721,-1.0721,-1.0721,-1.0721,-1.0721,-1.0721,-1.0721,-1.0721,-1.0721,-1.0721,-1.0721,-1.0721,-1.0721,-1.0721,-1.0721,-1.0721,-1.0721,-1.0721,-1.0721,-1.0721,-1.0721,-1.0721,-1.0721,-1.0721,-1.0721,-1.0721,-1.3079,-1.4907,-1.4907,-1.7383,-1.9078,-1.9078,-1.9078,-1.9078,-1.9078,-1.9078,-1.9078,-1.92,-1.945,-1.9705,-1.9833,-2.0348,-2.0856,-2.1109,-2.1109,-2.1109,-2.1109,-2.1109,-2.1109,-2.1109,-2.1109,-2.1109,-0.0,-0.0,-0.0,-0.0,-0.0,-0.0,-0.0,0.0,-0.0,-0.0,0.0,-0.0,-0.0,0.0,0.0,-0.0189,-0.079,-0.1315,-0.176,-0.1326,-0.1286,-0.179,-0.3934,-0.5748,-0.6697,-0.741,-0.8437,-0.9911,-0.9105,-0.8958,-0.9962,-1.0365,-1.0517,-1.0517,-1.0649,-1.0721,-1.0721,-1.0721,-1.0721,-1.0721,-1.0721,-1.0721,-1.0721,-1.0721,-1.0721,-1.0721,-1.0721,-1.0721,-1.0721,-1.0721,-1.0721,-1.0721,-1.0721,-1.0721,-1.0721,-1.0721,-1.0721,-1.0721,-1.0721,-1.0721,-1.0721,-1.0721,-1.0721,-1.0721,-1.0721,-1.0721,-1.0721,-1.0721,-1.0721,-1.0721,-1.0721,-1.0721,-1.0721,-1.0721,-1.0721,-1.0721,-1.0721,-1.0721,-1.0721,-1.0721,-1.0721,-1.0721,-1.0721,-1.0721,-1.0721,-1.0721,-1.3079,-1.4907,-1.4907,-1.7383,-1.9078,-1.9078,-1.9078,-1.9078,-1.9078,-1.9078,-1.92,-1.9577,-1.9577,-1.9833,-2.0482,-2.0856,-2.1109,-2.1109,-2.1109,-2.1109,-2.1109,-2.1109,-2.1109,-2.1109,-2.1109,-2.1109,-0.0,-0.0,-0.0,-0.0,-0.0,-0.0,-0.0,-0.0,-0.0,-0.0,0.0,0.0,0.0,0.0,0.0,0.0,-0.0291,-0.0787,-0.1724,-0.1292,-0.1133,-0.179,-0.248,-0.3752,-0.62,-0.7576,-0.8644,-0.9274,-0.9121,-0.917,-0.9897,-1.0117,-1.0276,-1.0368,-1.051,-1.0588,-1.0588,-1.0677,-1.0721,-1.0721,-1.0721,-1.0721,-1.0721,-1.0721,-1.0721,-1.0721,-1.0721,-1.0721,-1.0721,-1.0721,-1.0721,-1.0721,-1.0721,-1.0721,-1.0721,-1.0721,-1.0721,-1.0721,-1.0721,-1.0721,-1.0721,-1.0721,-1.0721,-1.0721,-1.0721,-1.0721,-1.0721,-1.0721,-1.0721,-1.0721,-1.0721,-1.0721,-1.0721,-1.0721,-1.0721,-1.0721,-1.0721,-1.0721,-1.0721,-1.0721,-1.0721,-1.0721,-1.0721,-1.0721,-1.0982,-1.1769,-1.36,-1.5168,-1.6073,-1.7899,-1.9078,-1.9078,-1.9078,-1.9078,-1.9078,-1.9328,-1.945,-1.9577,-1.9966,-2.0348,-2.0856,-2.0982,-2.1109,-2.1109,-2.1109,-2.1109,-2.1109,-2.1109,-2.1109,-2.1109,-2.1109,-2.1109,-0.0,-0.0,-0.0,-0.0,-0.0,-0.0,-0.0,-0.0,-0.0,-0.0,-0.0,0.0,0.0,0.0,-0.0,-0.0,0.0,-0.0386,-0.1413,-0.1063,-0.089,-0.1492,-0.1011,-0.2185,-0.6117,-0.7813,-0.8573,-0.8187,-0.8495,-0.8937,-0.9673,-0.9883,-1.0039,-1.0151,-1.0337,-1.0432,-1.0432,-1.0544,-1.0619,-1.0656,-1.0656,-1.068,-1.0721,-1.0721,-1.0721,-1.0721,-1.0721,-1.0721,-1.0721,-1.0721,-1.0721,-1.0721,-1.0721,-1.0721,-1.0721,-1.0721,-1.0721,-1.0721,-1.0721,-1.0721,-1.0721,-1.0721,-1.0721,-1.0721,-1.0721,-1.0721,-1.0721,-1.0721,-1.0721,-1.0721,-1.0721,-1.0721,-1.0721,-1.0721,-1.0721,-1.0721,-1.0721,-1.0721,-1.0721,-1.0721,-1.0721,-1.085,-1.1244,-1.0982,-1.1247,-1.2553,-1.3993,-1.5424,-1.6845,-1.8285,-1.9078,-1.9078,-1.92,-1.92,-1.92,-1.9584,-1.9839,-1.9833,-2.0475,-2.0856,-2.1109,-2.1109,-2.1109,-2.1109,-2.1109,-2.1109,-2.1109,-2.1109,-2.1109,-2.1109,-2.1109,-2.1109,-0.0,-0.0,-0.0,-0.0,-0.0,-0.0,-0.0,-0.0,-0.0,-0.0,-0.0,-0.0,-0.0,-0.0,-0.0,-0.0,-0.0,0.0,0.0,-0.0367,-0.028,-0.0858,-0.0388,-0.2088,-0.747,-0.7963,-0.755,-0.6428,-0.6412,-0.7336,-0.9357,-0.9673,-0.9829,-0.9836,-1.0131,-1.0287,-1.0287,-1.0293,-1.0365,-1.05,-1.05,-1.0575,-1.0721,-1.0721,-1.0721,-1.0721,-1.0721,-1.0721,-1.0721,-1.0721,-1.0721,-1.0721,-1.0721,-1.0721,-1.0721,-1.0721,-1.0721,-1.0721,-1.0721,-1.0721,-1.0721,-1.0721,-1.0721,-1.0721,-1.0721,-1.0721,-1.0721,-1.0721,-1.0721,-1.0721,-1.0721,-1.0721,-1.0721,-1.0721,-1.0721,-1.0721,-1.0721,-1.0721,-1.0721,-1.0721,-1.0721,-1.1115,-1.2557,-1.1641,-1.1247,-1.2553,-1.3993,-1.5424,-1.6845,-1.8285,-1.9078,-1.9078,-1.945,-1.9577,-1.9577,-1.9845,-2.0234,-2.0609,-2.0856,-2.1109,-2.1109,-2.1109,-2.1109,-2.1109,-2.1109,-2.1109,-2.1109,-2.1109,-2.1109,-2.1109,-2.1109,-2.1109,-0.0,-0.0,-0.0,-0.0,-0.0,-0.0,-0.0,-0.0,-0.0,-0.0,-0.0,-0.0,-0.0,-0.0,-0.0,-0.0,-0.0,-0.0093,0.0,-0.009,-0.0091,-0.0275,-0.0094,-0.0675,-0.2541,-0.5595,-0.6935,-0.579,-0.6872,-0.8148,-0.9191,-0.9418,-0.9578,-0.968,-0.9971,-1.0127,-1.0127,-1.0229,-1.0304,-1.0351,-1.0449,-1.0517,-1.0571,-1.0673,-1.0721,-1.0721,-1.0721,-1.0721,-1.0721,-1.0721,-1.0721,-1.0721,-1.0721,-1.0721,-1.0721,-1.0721,-1.0721,-1.0721,-1.0721,-1.0721,-1.0721,-1.0721,-1.0721,-1.0721,-1.0721,-1.0721,-1.0721,-1.0721,-1.0721,-1.0721,-1.0721,-1.0721,-1.0721,-1.0721,-1.0721,-1.0721,-1.0721,-1.0721,-1.0721,-1.0721,-1.0721,-1.1111,-1.2557,-1.2425,-1.2943,-1.5289,-1.5939,-1.685,-1.8156,-1.881,-1.92,-1.9456,-1.9577,-1.9705,-1.9973,-2.0227,-2.0609,-2.0862,-2.0982,-2.1109,-2.1109,-2.1109,-2.1109,-2.1109,-2.1109,-2.1109,-2.1109,-2.1109,-2.1109,-2.1109,-2.1109,-2.1109,-0.0,-0.0,-0.0,-0.0,-0.0,-0.0,-0.0,-0.0,-0.0,-0.0,-0.0,-0.0,-0.0,-0.0,-0.0,-0.0,-0.0,-0.0,0.0,-0.0,-0.0,-0.0,-0.0,-0.0559,-0.1865,-0.3637,-0.4997,-0.5855,-0.7541,-0.867,-0.8853,-0.9242,-0.9425,-0.9523,-0.9815,-0.9968,-0.9968,-1.0066,-1.0144,-1.0198,-1.029,-1.0361,-1.0419,-1.0517,-1.0565,-1.0568,-1.0616,-1.0639,-1.0643,-1.0697,-1.0721,-1.0721,-1.0721,-1.0721,-1.0721,-1.0721,-1.0721,-1.0721,-1.0721,-1.0721,-1.0721,-1.0721,-1.0721,-1.0721,-1.0721,-1.0721,-1.0721,-1.0721,-1.0721,-1.0721,-1.0721,-1.0721,-1.0721,-1.0721,-1.0721,-1.0853,-1.1376,-1.1508,-1.1508,-1.1508,-1.1901,-1.2425,-1.3341,-1.3988,-1.4898,-1.6716,-1.698,-1.7501,-1.8944,-1.92,-1.9328,-1.9577,-1.9833,-2.0094,-2.0482,-2.0609,-2.0856,-2.1109,-2.1109,-2.1109,-2.1109,-2.1109,-2.1109,-2.1109,-2.1109,-2.1109,-2.1109,-2.1109,-2.1109,-2.1109,-2.1109,-2.1109]},{"header":{"parameterUnit":"m.s-1","parameterCategory":1,"la1":30.6,"la2":29.2853,"lo1":-89.7004,"lo2":-87.6739,"dy":0.0162,"dx":0.0183,"nx":112,"ny":82,"refTime":"2024-09-25T18:00:00:Z","depth":0,"parameterNumber":3,"parameterNumberName":"V-component_of_WINDS"},"data":[0.0,0.0,0.0,0.0,0.0,0.0,0.0,0.0,0.0,0.0,0.0,0.0,0.0,0.0,0.0,0.0,0.0,0.0,0.0,0.0,0.0,0.0,0.0,0.0,0.0,0.0,0.0,0.0,0.0,0.0,0.0,0.0,0.0,0.0,0.0,0.0,0.0,0.0,0.0,0.0,0.0,0.0,0.0,0.0,0.0,0.0,0.0,0.0,0.0,0.0,0.0,0.0,0.0,0.0,0.0,0.0,0.0,0.0,0.0,0.0,0.0,0.0,0.0,0.0,0.0,0.0,0.0,0.0,0.0,0.0,0.0,0.0,0.0,0.0,0.0,0.0,0.0,0.0,0.0,0.0,0.0,0.0,0.0,0.0,0.0,0.0,0.0,0.0,0.0,0.0,-4.3397,-4.5456,-4.7605,-4.8909,-4.8909,-4.806,-4.6494,-4.4139,0.0,0.0,0.0,0.0,0.0,0.0,0.0,0.0,0.0,0.0,0.0,0.0,0.0,0.0,0.0,0.0,0.0,0.0,0.0,0.0,0.0,0.0,0.0,0.0,0.0,0.0,0.0,0.0,0.0,0.0,0.0,0.0,0.0,0.0,0.0,0.0,0.0,0.0,0.0,0.0,0.0,0.0,0.0,0.0,0.0,0.0,0.0,0.0,0.0,0.0,0.0,0.0,0.0,0.0,0.0,0.0,0.0,0.0,0.0,0.0,0.0,0.0,0.0,0.0,0.0,0.0,0.0,0.0,0.0,0.0,0.0,0.0,0.0,0.0,0.0,0.0,0.0,0.0,0.0,0.0,0.0,0.0,0.0,0.0,0.0,0.0,0.0,0.0,0.0,0.0,0.0,0.0,0.0,0.0,0.0,0.0,0.0,0.0,0.0,0.0,0.0,0.0,0.0,0.0,-4.3212,-4.6932,-4.8261,-4.8909,-4.8909,-4.7546,-4.5916,-4.4123,0.0,0.0,0.0,0.0,0.0,0.0,0.0,0.0,0.0,0.0,0.0,0.0,0.0,0.0,0.0,0.0,0.0,0.0,0.0,0.0,0.0,0.0,0.0,0.0,0.0,0.0,0.0,0.0,0.0,0.0,0.0,0.0,0.0,0.0,0.0,0.0,0.0,0.0,0.0,0.0,0.0,0.0,0.0,0.0,0.0,0.0,0.0,0.0,0.0,0.0,0.0,0.0,0.0,0.0,0.0,0.0,0.0,0.0,0.0,0.0,0.0,0.0,0.0,0.0,0.0,0.0,0.0,0.0,0.0,0.0,0.0,0.0,0.0,0.0,0.0,0.0,0.0,0.0,0.0,0.0,0.0,0.0,0.0,0.0,0.0,0.0,0.0,0.0,0.0,0.0,0.0,0.0,0.0,0.0,0.0,0.0,0.0,0.0,0.0,0.0,0.0,0.0,0.0,-4.3185,-4.4835,-4.8023,-4.867,-4.8707,-4.8282,-4.7564,-4.5888,-4.2897,-4.1231,0.0,0.0,0.0,0.0,0.0,0.0,0.0,0.0,0.0,0.0,0.0,0.0,0.0,0.0,0.0,0.0,0.0,0.0,0.0,0.0,0.0,0.0,0.0,0.0,0.0,0.0,0.0,0.0,0.0,0.0,0.0,0.0,0.0,0.0,0.0,0.0,0.0,0.0,0.0,0.0,0.0,0.0,0.0,0.0,0.0,0.0,0.0,0.0,0.0,0.0,0.0,0.0,0.0,0.0,0.0,0.0,0.0,0.0,0.0,0.0,0.0,0.0,0.0,0.0,0.0,0.0,0.0,0.0,0.0,0.0,0.0,0.0,0.0,0.0,0.0,0.0,0.0,0.0,0.0,0.0,0.0,0.0,0.0,0.0,0.0,0.0,0.0,0.0,0.0,0.0,0.0,0.0,0.0,0.0,0.0,0.0,0.0,0.0,0.0,0.0,0.0,0.0,-4.5871,-4.6627,-4.867,-4.8909,-4.8651,-4.8025,-4.7471,-4.5653,-4.2101,-4.056,0.0,0.0,0.0,0.0,0.0,0.0,0.0,0.0,0.0,0.0,0.0,0.0,0.0,0.0,0.0,0.0,0.0,0.0,0.0,0.0,0.0,0.0,0.0,0.0,0.0,0.0,0.0,0.0,0.0,0.0,0.0,0.0,0.0,0.0,0.0,0.0,0.0,0.0,0.0,0.0,0.0,0.0,0.0,0.0,0.0,0.0,0.0,0.0,0.0,0.0,0.0,0.0,0.0,0.0,0.0,0.0,0.0,0.0,0.0,0.0,0.0,0.0,0.0,0.0,0.0,0.0,0.0,0.0,0.0,0.0,0.0,0.0,0.0,0.0,0.0,0.0,0.0,0.0,0.0,0.0,0.0,0.0,0.0,0.0,0.0,0.0,0.0,0.0,0.0,0.0,0.0,0.0,0.0,0.0,0.0,0.0,0.0,0.0,0.0,0.0,0.0,0.0,-4.6126,-4.7877,-4.8816,-4.8909,-4.889,-4.8834,-4.675,-4.4669,-4.2825,-3.9795,0.0,0.0,0.0,0.0,0.0,0.0,0.0,0.0,0.0,0.0,0.0,0.0,0.0,0.0,0.0,0.0,0.0,0.0,0.0,0.0,0.0,0.0,0.0,0.0,0.0,0.0,0.0,0.0,0.0,0.0,0.0,0.0,0.0,0.0,0.0,0.0,0.0,0.0,0.0,0.0,0.0,0.0,0.0,0.0,0.0,0.0,0.0,0.0,0.0,0.0,0.0,0.0,0.0,0.0,0.0,0.0,0.0,0.0,0.0,0.0,0.0,0.0,0.0,0.0,0.0,0.0,0.0,0.0,0.0,0.0,0.0,0.0,0.0,0.0,0.0,0.0,0.0,0.0,0.0,0.0,0.0,0.0,0.0,0.0,0.0,0.0,0.0,0.0,0.0,0.0,0.0,0.0,0.0,0.0,0.0,0.0,0.0,0.0,0.0,0.0,0.0,0.0,-4.5734,-4.7453,-4.8779,-4.8909,-4.8688,-4.819,-4.733,-4.5237,-4.1537,0.0,0.0,0.0,0.0,0.0,0.0,0.0,0.0,0.0,0.0,0.0,0.0,0.0,0.0,0.0,0.0,0.0,0.0,0.0,0.0,0.0,0.0,0.0,0.0,0.0,0.0,0.0,0.0,0.0,0.0,0.0,0.0,0.0,0.0,0.0,0.0,0.0,0.0,0.0,0.0,0.0,0.0,0.0,0.0,0.0,0.0,0.0,0.0,0.0,0.0,0.0,0.0,0.0,0.0,0.0,0.0,0.0,0.0,0.0,0.0,0.0,0.0,0.0,0.0,0.0,0.0,0.0,0.0,0.0,0.0,0.0,0.0,0.0,0.0,0.0,0.0,0.0,0.0,0.0,0.0,0.0,0.0,0.0,0.0,0.0,0.0,0.0,0.0,0.0,0.0,0.0,0.0,0.0,0.0,0.0,0.0,0.0,0.0,0.0,0.0,0.0,0.0,-4.364,-4.5912,-4.7787,-4.9156,-4.906,-4.8797,-4.8503,-4.7266,-4.4759,-4.0672,0.0,0.0,0.0,0.0,0.0,0.0,0.0,0.0,0.0,0.0,0.0,0.0,0.0,0.0,0.0,0.0,0.0,0.0,0.0,0.0,0.0,0.0,0.0,0.0,0.0,0.0,0.0,0.0,0.0,0.0,0.0,0.0,0.0,0.0,0.0,0.0,0.0,0.0,0.0,0.0,0.0,0.0,0.0,0.0,0.0,0.0,0.0,0.0,0.0,0.0,0.0,0.0,0.0,0.0,0.0,0.0,0.0,0.0,0.0,0.0,0.0,0.0,0.0,0.0,0.0,0.0,0.0,0.0,0.0,0.0,0.0,0.0,0.0,0.0,0.0,0.0,0.0,0.0,0.0,0.0,0.0,0.0,0.0,0.0,0.0,0.0,0.0,0.0,0.0,0.0,0.0,0.0,0.0,0.0,0.0,0.0,0.0,0.0,0.0,0.0,0.0,0.0,-4.3802,-4.6884,-4.9211,-5.0045,-4.9398,-4.9241,-5.0035,-4.6363,-4.2994,0.0,0.0,0.0,0.0,0.0,0.0,0.0,0.0,0.0,0.0,0.0,0.0,0.0,0.0,0.0,0.0,0.0,0.0,0.0,0.0,0.0,0.0,0.0,0.0,0.0,0.0,0.0,0.0,0.0,0.0,0.0,0.0,0.0,0.0,0.0,0.0,0.0,0.0,0.0,0.0,0.0,0.0,0.0,0.0,0.0,0.0,0.0,0.0,0.0,0.0,0.0,0.0,0.0,0.0,0.0,0.0,0.0,0.0,0.0,0.0,0.0,0.0,0.0,0.0,0.0,0.0,0.0,0.0,0.0,0.0,0.0,0.0,0.0,0.0,0.0,0.0,0.0,0.0,0.0,0.0,0.0,0.0,0.0,0.0,0.0,0.0,0.0,0.0,0.0,0.0,0.0,0.0,0.0,0.0,0.0,0.0,0.0,0.0,0.0,0.0,0.0,0.0,0.0,-4.4641,-4.7753,-5.0064,-5.0917,-5.0303,-4.9893,-5.0152,-4.7456,-4.4234,-4.0635,0.0,0.0,0.0,0.0,0.0,0.0,0.0,0.0,0.0,0.0,0.0,0.0,0.0,0.0,0.0,0.0,0.0,0.0,0.0,0.0,0.0,0.0,0.0,0.0,0.0,0.0,0.0,0.0,0.0,0.0,0.0,0.0,0.0,0.0,0.0,0.0,0.0,0.0,0.0,0.0,0.0,0.0,0.0,0.0,0.0,0.0,0.0,0.0,0.0,0.0,0.0,0.0,0.0,0.0,0.0,0.0,0.0,0.0,0.0,0.0,0.0,0.0,0.0,0.0,0.0,0.0,0.0,0.0,0.0,0.0,0.0,0.0,0.0,0.0,0.0,0.0,0.0,0.0,0.0,0.0,0.0,0.0,0.0,0.0,0.0,0.0,0.0,0.0,0.0,0.0,0.0,0.0,0.0,0.0,0.0,0.0,0.0,0.0,0.0,0.0,0.0,0.0,-4.4966,-4.8107,-5.0564,-5.177,-5.1175,-5.0673,-5.0673,-4.8407,-4.5231,-4.1126,0.0,0.0,0.0,0.0,0.0,0.0,0.0,0.0,0.0,0.0,0.0,0.0,0.0,0.0,0.0,0.0,0.0,0.0,0.0,0.0,0.0,0.0,0.0,0.0,0.0,0.0,0.0,0.0,0.0,0.0,0.0,0.0,0.0,0.0,0.0,0.0,0.0,0.0,0.0,0.0,0.0,0.0,0.0,0.0,0.0,0.0,0.0,0.0,0.0,0.0,0.0,0.0,0.0,0.0,0.0,0.0,0.0,0.0,0.0,0.0,0.0,0.0,0.0,0.0,0.0,0.0,0.0,0.0,0.0,0.0,0.0,0.0,0.0,0.0,0.0,0.0,0.0,0.0,0.0,0.0,0.0,0.0,0.0,0.0,0.0,0.0,0.0,0.0,0.0,0.0,0.0,0.0,0.0,0.0,0.0,0.0,0.0,0.0,0.0,0.0,0.0,0.0,-4.5074,-4.8237,-5.0842,-5.2529,-5.1992,-5.1472,-5.1416,-4.9187,-4.6067,-4.1962,0.0,0.0,0.0,0.0,0.0,0.0,0.0,0.0,0.0,0.0,0.0,0.0,0.0,0.0,0.0,0.0,0.0,0.0,0.0,0.0,0.0,0.0,0.0,0.0,0.0,0.0,0.0,0.0,0.0,0.0,0.0,0.0,0.0,0.0,0.0,0.0,0.0,0.0,0.0,0.0,0.0,0.0,0.0,0.0,0.0,0.0,0.0,0.0,0.0,0.0,0.0,0.0,0.0,0.0,0.0,0.0,0.0,0.0,0.0,0.0,-3.4899,-3.3776,0.0,0.0,0.0,0.0,0.0,0.0,0.0,0.0,0.0,0.0,0.0,0.0,0.0,0.0,0.0,0.0,0.0,0.0,0.0,0.0,0.0,0.0,0.0,0.0,0.0,0.0,0.0,0.0,0.0,0.0,0.0,0.0,0.0,0.0,0.0,0.0,0.0,0.0,0.0,0.0,-4.5902,-4.9086,-5.1733,-5.3366,-5.2828,-5.2085,-5.1454,-4.9707,-4.6903,-4.2797,-4.0698,0.0,0.0,0.0,0.0,0.0,0.0,0.0,0.0,0.0,0.0,0.0,0.0,0.0,0.0,0.0,0.0,0.0,0.0,0.0,0.0,0.0,0.0,0.0,0.0,0.0,0.0,0.0,0.0,0.0,0.0,0.0,0.0,0.0,0.0,0.0,0.0,0.0,0.0,0.0,0.0,0.0,0.0,0.0,0.0,0.0,0.0,0.0,0.0,0.0,0.0,0.0,0.0,0.0,0.0,0.0,0.0,0.0,0.0,0.0,-3.8053,-3.6521,0.0,0.0,0.0,0.0,0.0,0.0,0.0,0.0,0.0,0.0,0.0,0.0,0.0,0.0,0.0,0.0,0.0,0.0,0.0,0.0,0.0,0.0,0.0,0.0,0.0,0.0,0.0,0.0,0.0,0.0,0.0,0.0,0.0,0.0,0.0,0.0,0.0,0.0,0.0,0.0,-4.6744,-4.9936,-5.2438,-5.3683,-5.3441,-5.2847,-5.2048,-5.045,-4.824,-4.5342,-4.2519,0.0,0.0,0.0,0.0,0.0,0.0,0.0,0.0,0.0,0.0,0.0,0.0,0.0,0.0,0.0,0.0,0.0,0.0,0.0,0.0,0.0,0.0,0.0,0.0,0.0,0.0,0.0,0.0,0.0,0.0,0.0,0.0,0.0,0.0,0.0,0.0,0.0,0.0,0.0,0.0,0.0,0.0,0.0,0.0,0.0,0.0,0.0,0.0,0.0,0.0,0.0,0.0,0.0,-4.4105,-4.533,-4.6018,-4.5672,-4.6026,-4.6658,-4.2001,-4.0558,-4.1288,-3.973,0.0,0.0,0.0,0.0,0.0,0.0,0.0,0.0,0.0,0.0,0.0,0.0,0.0,0.0,0.0,0.0,0.0,0.0,0.0,0.0,0.0,0.0,-4.1895,-4.4438,-4.5199,-4.4509,-4.1642,0.0,0.0,0.0,0.0,0.0,0.0,0.0,0.0,0.0,0.0,0.0,-4.757,-5.0639,-5.2921,-5.372,-5.3813,-5.3478,-5.2679,-5.1342,-4.9782,-4.8017,-4.4599,-4.2166,0.0,0.0,0.0,0.0,0.0,0.0,0.0,0.0,0.0,0.0,0.0,0.0,0.0,0.0,0.0,0.0,0.0,0.0,0.0,0.0,0.0,0.0,0.0,0.0,0.0,0.0,0.0,0.0,0.0,0.0,0.0,0.0,-3.3838,-3.542,0.0,0.0,0.0,0.0,0.0,0.0,0.0,0.0,0.0,0.0,0.0,0.0,0.0,-4.2468,-4.4031,-4.5854,-4.6814,-4.6948,-4.8735,-4.9677,-4.9792,-4.9602,-4.9614,-4.9694,-4.8786,0.0,-4.535,-4.426,0.0,0.0,0.0,0.0,0.0,0.0,0.0,0.0,0.0,0.0,0.0,0.0,0.0,0.0,0.0,0.0,0.0,0.0,0.0,0.0,0.0,0.0,-4.9694,-4.9387,-4.9879,-5.012,-4.8975,-4.5532,-4.2326,-4.1188,-4.0577,-3.9878,0.0,0.0,0.0,0.0,0.0,0.0,-4.8428,-5.1026,-5.2921,-5.372,-5.3813,-5.3478,-5.2679,-5.2401,-5.1268,-4.889,-4.7571,-4.5881,-4.3615,-4.1089,0.0,0.0,0.0,0.0,0.0,0.0,0.0,0.0,0.0,0.0,0.0,0.0,0.0,0.0,0.0,0.0,0.0,0.0,0.0,0.0,0.0,0.0,0.0,0.0,0.0,0.0,0.0,0.0,0.0,-3.371,-3.5556,-3.6403,-3.6506,-3.6304,0.0,0.0,0.0,0.0,0.0,0.0,0.0,0.0,0.0,-4.5524,-4.6483,-4.779,-4.952,-5.0892,-5.1798,-5.2318,-5.3629,-5.4516,-5.4998,-5.4729,-5.4706,-5.4836,-5.4396,-5.3536,-5.2116,-4.8491,-4.6667,-4.6037,0.0,0.0,0.0,0.0,-4.4543,-4.4113,-4.5335,-4.5285,-4.4524,-4.3586,0.0,0.0,0.0,0.0,0.0,0.0,0.0,-4.5581,-4.7435,-4.9802,-5.1968,-5.3193,-5.3626,-5.3676,-5.3309,-5.1342,-4.8605,-4.5057,-4.442,-4.3664,-4.0977,-4.1256,0.0,0.0,0.0,-4.8723,-5.0729,-5.3144,-5.463,-5.45,-5.4481,-5.4166,-5.3348,-5.2865,-5.1936,-5.0395,-4.9094,-4.7683,-4.6141,-4.3726,-4.1702,0.0,0.0,0.0,0.0,0.0,0.0,0.0,0.0,0.0,0.0,0.0,0.0,0.0,0.0,0.0,0.0,0.0,0.0,0.0,0.0,0.0,0.0,0.0,0.0,0.0,0.0,0.0,0.0,-3.5967,-3.7318,-3.7685,-3.8377,-3.8514,0.0,0.0,0.0,0.0,0.0,0.0,-4.4515,-4.6721,-4.8814,-5.0755,-5.1488,-5.2682,-5.4416,-5.5171,-5.5885,-5.6522,-5.7216,-5.7891,-5.8529,-5.8272,-5.825,-5.8433,-5.7968,-5.7666,-5.7158,-5.2436,-5.0511,-5.0368,-4.9379,-4.9073,-4.925,-4.9844,-4.9541,-4.8996,-5.0524,-5.0317,-4.9175,-4.7823,-4.701,-4.6341,-4.4858,0.0,0.0,0.0,0.0,-4.9295,-5.1963,-5.2956,-5.384,-5.6059,-5.6251,-5.5938,-5.6065,-5.5752,-5.4056,-4.9287,-4.8691,-4.785,-4.4376,-4.4766,0.0,-4.4785,-4.8147,-5.1342,-5.3014,-5.502,-5.5967,-5.5094,-5.5001,-5.4686,-5.3868,-5.3255,-5.2568,-5.1769,-5.0339,-4.9169,-4.8351,-4.616,-4.4469,-4.3448,0.0,0.0,0.0,0.0,0.0,0.0,0.0,0.0,0.0,0.0,0.0,0.0,0.0,0.0,0.0,0.0,0.0,0.0,0.0,0.0,0.0,0.0,0.0,0.0,0.0,0.0,0.0,0.0,0.0,-4.0236,-4.1175,0.0,0.0,0.0,0.0,-4.4958,-4.6741,-4.8395,-4.9841,-5.0943,-5.274,-5.5383,-5.5499,-5.6445,-5.8295,-5.8372,-5.843,-5.8468,-5.8507,-5.8546,-5.8584,-5.8566,-5.8566,-5.8584,-5.8491,-5.8433,-5.8259,-5.6069,-5.4776,-5.4149,-5.3321,-5.2993,-5.2932,-5.297,-5.2807,-5.2571,-5.2927,-5.2305,-5.1653,-5.3445,-5.3283,-5.2021,-5.0107,-4.9625,0.0,0.0,-5.2096,-5.349,-5.4496,-5.5873,-5.7188,-5.7767,-5.7314,-5.6873,-5.7299,-5.7043,-5.6063,-5.3851,-5.2865,-5.1788,-4.9986,0.0,-4.98,-4.9819,-5.1342,-5.307,-5.4686,-5.5707,-5.5967,-5.5094,-5.5001,-5.4686,-5.3868,-5.3775,-5.3404,-5.2587,-5.1751,-5.0878,-5.0023,-4.8389,-4.6773,-4.5194,-4.2649,0.0,0.0,0.0,0.0,0.0,0.0,0.0,0.0,0.0,0.0,0.0,0.0,0.0,0.0,0.0,0.0,0.0,0.0,0.0,0.0,0.0,0.0,0.0,0.0,0.0,0.0,0.0,0.0,-4.3115,-4.4901,0.0,-4.5263,-4.6027,-4.7245,-4.8822,-5.1114,-5.2873,-5.3918,-5.5383,-5.6869,-5.8394,-5.8452,-5.9012,-6.0209,-6.0209,-6.0209,-6.0209,-6.0209,-6.0209,-6.0209,-6.0209,-6.019,-6.0133,-6.0113,-6.0113,-6.0053,-5.9333,-5.8214,-5.6923,-5.6636,-5.6498,-5.6492,-5.6492,-5.6428,-5.6345,-5.6451,-5.6217,-5.5881,-5.5868,-5.5704,-5.5343,-5.4486,-5.4746,-5.5456,-5.6045,-5.6644,-5.727,-5.8149,-5.8784,-5.935,-5.9718,-5.9426,-5.9098,-5.9273,-5.9006,-5.8427,-5.7472,-5.5964,-5.4242,-5.2357,-5.2439,-5.2576,-5.1843,-5.359,-5.5373,-5.6469,-5.7342,-5.7528,-5.671,-5.6617,-5.606,-5.4704,-5.4574,-5.3794,-5.1936,-5.1565,-5.0785,-4.9392,-4.8779,-4.7961,-4.6865,-4.4952,-4.2092,0.0,0.0,0.0,0.0,0.0,0.0,0.0,0.0,0.0,0.0,0.0,0.0,0.0,0.0,0.0,0.0,0.0,0.0,0.0,0.0,0.0,0.0,0.0,0.0,0.0,-4.3511,-4.621,-4.6308,-4.8566,-4.9881,-4.932,-5.0287,-5.1544,-5.2956,-5.5219,-5.6747,-5.7288,-5.8662,-5.9706,-6.0286,-6.0306,-6.0557,-6.1099,-6.1099,-6.1099,-6.1099,-6.1099,-6.1099,-6.1099,-6.108,-6.1041,-6.1002,-6.1001,-6.1,-6.1017,-6.0976,-6.0258,-5.9177,-5.9177,-5.9152,-5.9146,-5.9146,-5.9146,-5.9108,-5.8819,-5.8704,-5.8546,-5.7503,-5.7478,-5.7819,-5.7618,-5.8299,-5.9196,-5.9505,-5.9611,-5.9756,-6.0334,-6.0475,-6.0449,-6.0449,-6.0395,-6.0218,-5.9992,-5.9931,-5.9887,-5.962,-5.8245,-5.6597,-5.4868,-5.5246,-5.5454,-5.4408,-5.5893,-5.7305,-5.7843,-5.8382,-5.8401,-5.7602,-5.7509,-5.6822,-5.515,-5.476,-5.3813,-5.1918,-5.1268,-5.0469,-4.9355,-4.8779,-4.824,-4.7701,-4.5825,-4.3373,-4.0346,0.0,0.0,0.0,0.0,0.0,0.0,0.0,0.0,0.0,0.0,0.0,0.0,0.0,0.0,0.0,0.0,0.0,0.0,0.0,0.0,0.0,0.0,0.0,-4.3518,-4.7154,-4.9842,-4.99,-5.2124,-5.3652,-5.3652,-5.5161,-5.6476,-5.7327,-5.8971,-5.9938,-5.9938,-6.0673,-6.1099,-6.1099,-6.1099,-6.1099,-6.1099,-6.1099,-6.1099,-6.1099,-6.1099,-6.1099,-6.1099,-6.1022,-6.1002,-6.1002,-6.0999,-6.0997,-6.0976,-6.0933,-6.0911,-6.0911,-6.0911,-6.0846,-6.08,-6.08,-6.08,-6.0685,-5.9838,-5.955,-5.9415,-5.863,-5.8918,-5.9531,-5.9534,-6.0131,-6.08,-6.08,-6.08,-6.08,-6.08,-6.08,-6.0641,-5.9981,-6.0072,-6.0131,-5.9395,-5.9817,-6.0321,-6.0293,-5.972,-5.8859,-5.7779,-5.8219,-5.8479,-5.7658,-5.8215,0.0,-5.8716,-5.8716,-5.8401,-5.7621,-5.7546,-5.6859,-5.5187,-5.4314,-5.3478,-5.2624,-5.1008,-5.0098,-5.0098,-4.8612,-4.7776,-4.7776,-4.5342,-4.3689,-4.2909,0.0,0.0,0.0,0.0,0.0,0.0,0.0,0.0,0.0,0.0,0.0,0.0,0.0,0.0,0.0,0.0,0.0,0.0,0.0,0.0,0.0,-4.7289,-4.932,-4.8121,-5.0558,-5.2917,-5.4116,-5.5993,-5.7192,-5.7192,-5.8178,-5.8932,-5.9165,-6.017,-6.077,-6.077,-6.0983,-6.1099,-6.1099,-6.1099,-6.1099,-6.1099,-6.1099,-6.1099,-6.1099,-6.1099,-6.1099,-6.1099,-6.108,-6.1061,-6.1002,-6.1001,-6.098,-6.0933,-6.0911,-6.0869,-6.0823,-6.0869,-6.0846,-6.08,-6.0846,-6.0846,-6.0762,-6.0531,-6.0435,-6.0416,-6.0165,-6.0262,-6.0435,-6.0435,-6.0608,-6.08,-6.08,-6.08,-6.08,-6.08,-6.08,-6.0757,-6.0572,-6.0616,-6.0616,-6.0403,-6.0527,-6.0572,-6.0368,-5.9931,-5.9597,-5.9533,-5.9488,-5.934,-5.8822,-5.8716,-5.8716,-5.8716,-5.8716,-5.8624,-5.8401,-5.8382,-5.7713,-5.6079,-5.5169,-5.3831,-5.1844,-5.0711,-5.0098,-5.0098,-4.9689,-4.9447,-4.9447,-4.7051,-4.5695,0.0,0.0,0.0,0.0,0.0,0.0,0.0,0.0,0.0,0.0,0.0,0.0,0.0,0.0,0.0,0.0,0.0,0.0,0.0,0.0,0.0,0.0,-5.1196,-5.344,-5.3904,-5.5258,-5.6534,-5.7521,-5.8836,-5.9648,-5.9648,-6.0112,-6.0402,-6.0402,-6.0847,-6.1099,-6.1099,-6.1099,-6.1099,-6.1099,-6.1099,-6.1099,-6.1099,-6.1099,-6.1099,-6.1099,-6.1099,-6.1099,-6.1099,-6.108,-6.1041,-6.1002,-6.1001,-6.0978,-6.0933,-6.0911,-6.0869,-6.0846,0.0,0.0,0.0,0.0,-6.0823,-6.08,-6.08,-6.08,-6.08,-6.08,-6.08,-6.08,-6.08,-6.08,-6.08,-6.08,-6.08,-6.08,-6.08,-6.08,-6.0757,-6.0641,-6.071,-6.0757,-6.0616,-6.071,-6.071,-6.0368,-6.0131,0.0,-6.0072,-5.9673,-5.9253,-5.9025,-5.8825,-5.8716,-5.8716,-5.8716,-5.8716,-5.8716,-5.8716,-5.8196,-5.6915,-5.5689,0.0,0.0,0.0,-5.0488,-5.0116,-5.0098,0.0,0.0,0.0,0.0,0.0,0.0,0.0,0.0,-4.5533,-4.5737,0.0,0.0,0.0,0.0,0.0,0.0,0.0,0.0,0.0,0.0,0.0,0.0,0.0,0.0,0.0,0.0,-5.4175,-5.6476,-5.959,-6.0035,-6.0035,-6.0035,-6.0673,-6.1099,-6.1099,-6.1099,-6.1099,-6.1099,-6.1099,-6.1099,-6.1099,-6.1099,0.0,0.0,0.0,-6.1099,-6.1099,-6.1099,-6.1099,-6.1099,-6.1099,-6.1099,-6.1099,-6.1022,-6.1002,-6.1002,-6.0999,-6.1017,-6.0976,-6.0933,-6.0911,-6.0869,-6.0823,-6.08,-6.0823,-6.08,-6.08,-6.08,-6.08,0.0,0.0,-6.08,-6.08,-6.08,-6.08,-6.08,-6.08,-6.08,-6.08,-6.08,-6.08,-6.08,-6.0734,-6.0422,-6.0546,-6.0666,-6.0422,-6.0546,-6.0616,-6.0349,-6.0218,-6.0102,-5.9855,-5.9215,-5.8781,-5.8781,-5.8739,-5.8716,-5.8716,-5.8716,-5.8716,-5.8716,-5.8716,0.0,-5.7583,-5.606,-5.4816,-5.3998,-5.2605,-5.1454,-5.0692,-5.0748,-5.1119,-5.1788,-5.1806,-5.2512,-5.3943,-5.3943,-5.394,-5.3917,-4.9395,-4.8839,0.0,0.0,0.0,0.0,0.0,0.0,0.0,0.0,0.0,0.0,0.0,0.0,0.0,0.0,0.0,-5.4774,-5.7327,-5.9377,-6.0673,-6.0867,-6.0867,-6.0867,-6.1002,-6.1099,-6.1099,-6.1099,-6.1099,-6.1099,-6.1099,-6.1099,-6.1099,-6.1099,-6.1099,-6.1099,-6.1099,-6.1099,-6.1099,-6.1099,-6.1099,-6.1099,-6.1099,0.0,-6.1099,-6.1022,-6.1002,-6.1002,-6.0999,-6.0976,-6.0933,-6.0911,-6.0869,-6.0823,-6.08,-6.0823,-6.0869,-6.0823,-6.08,-6.08,-6.08,-6.08,-6.08,-6.08,-6.08,-6.08,-6.08,-6.08,0.0,-6.08,-6.08,-6.08,-6.08,-6.08,-6.0781,-6.0734,-6.0546,-6.0449,-6.0666,-6.0321,-6.0042,-6.0265,-5.9817,-5.9484,-5.9758,-5.9397,-5.9103,-5.9103,-5.8847,-5.8716,-5.8716,-5.8716,-5.8716,-5.8716,-5.8716,-5.8382,-5.7583,-5.6617,-5.5689,-5.4834,-5.4481,-5.424,-5.4073,-5.4741,-5.4853,-5.4314,-5.4314,-5.4463,-5.4779,-5.4779,-5.5368,-5.651,-5.3584,-5.2878,0.0,0.0,0.0,0.0,0.0,0.0,0.0,0.0,0.0,0.0,0.0,-4.7154,-4.9262,0.0,-5.4948,-5.754,-5.9048,-6.017,-6.0983,-6.1099,-6.1099,-6.1099,-6.1099,-6.1099,-6.1099,-6.1099,-6.1099,-6.1099,-6.1099,-6.1099,-6.1099,-6.1099,-6.1099,-6.1099,-6.1099,-6.1099,-6.1099,-6.1524,-6.1756,-6.1756,-6.1756,-6.1756,-6.1737,-6.1215,-6.1002,-6.1002,-6.0959,-6.0933,-6.0911,-6.0869,-6.0823,-6.08,-6.08,-6.0823,-6.0846,-6.0823,-6.08,-6.08,-6.08,-6.08,-6.08,-6.08,-6.08,-6.08,-6.08,-6.08,-6.08,-6.08,-6.08,-6.08,-6.08,-6.08,-6.0757,-6.0572,-6.0422,-6.0293,-6.0293,-6.0042,-5.9855,-6.0011,-5.9739,-5.9571,-5.9758,-5.9467,-5.9215,-5.9215,-5.9045,-5.8887,-5.8698,-5.8716,-5.8716,-5.8716,-5.8716,-5.8549,-5.8141,-5.736,-5.6543,-5.5707,-5.5652,-5.5652,-5.5652,-5.6079,-5.6283,-5.6265,-5.6265,-5.641,-5.6759,-5.7167,-5.7511,-5.7728,-5.6897,-5.6528,0.0,0.0,0.0,0.0,0.0,0.0,0.0,-4.2879,-4.4272,-4.6187,-4.903,-5.1796,-5.3865,-5.5625,-5.7443,-5.9551,-6.0035,-6.0364,-6.1002,-6.1099,-6.1099,-6.1099,-6.1099,-6.1099,-6.1099,-6.1099,-6.1099,-6.1099,-6.1099,-6.1176,-6.135,-6.135,-6.1427,-6.1601,-6.1601,-6.1601,-6.1601,-6.2298,-6.2646,-6.2646,-6.2646,-6.2665,-6.2607,-6.1679,-6.1233,-6.1193,-6.0971,-6.0869,-6.0888,-6.0823,-6.08,-6.08,-6.08,-6.08,-6.08,-6.08,-6.08,-6.08,-6.08,-6.08,-6.08,-6.08,-6.08,-6.08,-6.08,-6.08,-6.08,-6.08,-6.08,-6.08,-6.08,-6.0757,-6.0641,-6.0349,-6.0189,-6.0053,-5.9918,-5.9923,-5.9914,-5.9893,-5.9988,-5.998,-5.9828,-5.9537,-5.927,-5.9196,-5.914,-5.9025,-5.8739,-5.8716,-5.8716,-5.8716,-5.8716,-5.8716,-5.8716,-5.8122,-5.7472,-5.6822,-5.6766,-5.6766,-5.6766,-5.6933,-5.7305,-5.7955,-5.8141,-5.8489,-5.8992,-5.9641,-5.9509,-5.8676,-5.932,-5.9255,-3.7851,-3.7986,-3.8934,-4.197,-4.2222,-4.3305,0.0,-5.0326,-5.0616,-5.3149,-5.5161,-5.6553,-5.6824,-5.8294,-5.9551,-5.9841,-6.0499,-6.1002,-6.1099,-6.1099,-6.1099,-6.1099,-6.1099,-6.1099,-6.1099,-6.1099,-6.1099,-6.1099,-6.1099,-6.1447,-6.222,-6.2259,-6.2607,-6.3381,-6.34,-6.34,-6.34,-6.3497,-6.3536,-6.3536,-6.3536,-6.3516,-6.3417,-6.2487,-6.2017,-6.1935,-6.1154,-6.0823,-6.0823,-6.08,-6.08,-6.08,-6.08,-6.08,-6.08,-6.08,-6.08,-6.08,-6.08,-6.08,-6.08,-6.08,-6.08,-6.08,-6.08,-6.08,-6.08,-6.08,-6.08,-6.08,-6.08,-6.0572,-6.0368,-6.0293,-5.9785,-5.9484,-6.0102,-6.0359,-6.0389,-6.0284,-6.0582,-6.0657,-5.9923,-5.9758,-5.9605,-5.9233,-5.8966,-5.8739,-5.8698,-5.8716,-5.8716,-5.8716,-5.8716,-5.8716,-5.8716,-5.8624,-5.8531,-5.8438,-5.8438,-5.8438,-5.8438,-5.9125,-5.9552,-5.9645,-6.0388,-6.0772,-6.0715,-6.0807,-6.0654,-6.0333,-6.0425,-5.9991,-4.2222,-4.3363,-4.4485,-4.5916,-4.7115,-4.8817,-5.2182,-5.3072,-5.3768,-5.5838,-5.7617,-5.8816,-5.8816,-5.9783,-6.0596,-6.0596,-6.0886,-6.1099,-6.1099,-6.1099,-6.0925,-6.046,-6.0809,-6.1099,-6.1099,-6.1099,-6.1099,-6.1099,-6.1099,-6.1485,-6.2356,-6.2394,-6.2801,-6.3671,-6.369,-6.369,-6.369,-6.4193,-6.4425,-6.4405,-6.4405,-6.4363,-6.426,-6.3329,-6.2606,-6.2059,-6.1189,-6.08,-6.08,-6.08,-6.08,-6.08,-6.08,-6.08,-6.08,-6.08,-6.08,-6.08,-6.08,-6.08,-6.08,-6.08,-6.08,-6.08,-6.08,-6.08,-6.08,-6.08,-6.08,-6.08,-6.08,-6.071,-6.0661,-6.0942,-6.0738,-6.0716,-6.1343,-6.151,-6.1595,-6.1715,-6.1355,-6.0969,-6.0814,-6.0042,-5.9378,-5.9252,-5.9083,-5.8926,-5.8739,-5.8716,-5.8716,-5.8716,-5.8716,-5.8716,-5.8716,-5.8716,-5.8716,-5.8716,-5.9144,-5.9404,-5.9404,-6.0221,-6.0667,-6.0667,-6.102,-6.1143,-6.0993,-6.1474,-6.1347,-6.072,-6.1181,-6.12,-4.5297,-4.7076,-4.8508,-4.8972,-5.0848,-5.284,-5.3942,-5.5045,-5.6263,-5.7714,-5.9203,-6.0228,-6.0228,-6.0712,-6.1099,-6.1099,-6.1099,-6.1099,-6.1099,-6.0905,-6.0634,-6.0267,-6.0557,-6.0867,-6.1079,-6.1099,-6.1099,-6.1099,-6.1331,-6.1834,-6.2704,-6.2994,-6.3516,-6.4348,-6.4387,-6.4387,-6.4367,-6.4985,-6.5274,-6.5211,-6.5211,-6.5167,-6.5103,-6.4166,-6.3253,-6.2397,-6.1762,-6.1493,-6.1473,-6.1243,-6.1146,-6.1127,-6.0877,-6.08,-6.0819,-6.1069,-6.1012,-6.08,-6.08,-6.08,-6.08,-6.08,-6.08,-6.08,-6.08,-6.08,-6.08,-6.08,-6.08,-6.0858,-6.1089,-6.108,-6.1134,-6.1706,-6.1783,-6.1846,-6.2351,-6.2642,-6.2833,-6.292,-6.2334,-6.1787,-6.1713,-6.0679,-5.9872,-5.9776,-5.9532,-5.9248,-5.8777,-5.8716,-5.8716,-5.8716,-5.8716,-5.8716,-5.8716,-5.8902,-5.9032,-5.9032,-5.9812,-6.0277,-6.0277,-6.1094,-6.154,-6.154,-6.1763,-6.1812,-6.1659,-6.2252,-6.217,-6.1477,-6.205,-6.2327,-4.578,-4.7076,-4.8798,-5.0422,-5.2144,-5.3884,-5.5548,-5.725,-5.8739,-5.9629,-6.048,-6.106,-6.106,-6.1079,-6.1099,-6.1099,-6.1099,-6.1099,-6.1099,-6.0422,-6.0209,-6.0963,-6.0402,-6.0248,-6.1021,-6.1099,-6.1099,-6.1099,-6.1892,-6.2743,-6.3613,-6.4464,-6.5296,-6.6108,-6.6127,-6.6088,-6.6024,-6.6044,-6.6041,-6.5974,-6.5974,-6.5971,-6.5919,-6.498,-6.4089,-6.3262,-6.3243,-6.3224,-6.3166,-6.2377,-6.205,-6.1973,-6.1127,-6.08,-6.0896,-6.1743,-6.1531,-6.08,-6.08,-6.08,-6.08,-6.08,-6.08,-6.08,-6.08,-6.08,-6.08,-6.08,-6.08,-6.0993,-6.1839,-6.178,-6.1697,-6.2548,-6.2509,-6.2382,-6.2718,-6.3446,-6.3877,-6.338,-6.3617,-6.3535,-6.2378,-6.1881,-6.1518,-6.1199,-6.0407,-5.9589,-5.8809,-5.8716,-5.8716,-5.8716,-5.8716,-5.8716,-5.8716,-5.9422,-5.9868,-5.9868,-6.0685,-6.1168,-6.1168,-6.1949,-6.2376,-6.2376,-6.3137,-6.3482,-6.3326,-6.3345,-6.3299,-6.3139,-6.3158,-6.3176,-4.7366,-4.961,-5.1912,-5.2472,-5.4349,-5.6321,-5.7462,-5.8623,-5.9551,-5.9841,-6.0112,-6.0132,-5.9551,-5.9435,-5.9629,-6.0209,-6.0306,-6.0499,-6.1021,-6.0867,-6.0596,-6.0344,-6.0538,-6.0577,-6.0268,-6.0713,-6.1041,-6.1099,-6.1872,-6.2723,-6.3652,-6.4522,-6.5373,-6.6166,-6.6163,-6.6123,-6.6102,-6.6058,-6.6032,-6.5982,-6.5958,-6.5928,-6.5884,-6.4993,-6.4436,-6.4128,-6.3551,-6.3301,-6.3281,-6.3012,-6.2897,-6.2878,-6.257,-6.2454,-6.2493,-6.2801,-6.2704,-6.2377,-6.1839,-6.1281,-6.08,-6.08,-6.08,-6.08,-6.08,-6.08,-6.08,-6.08,-6.1223,-6.1723,-6.2012,-6.2406,-6.2926,-6.3789,-6.3901,-6.4028,-6.4703,-6.5095,-6.5237,-6.5045,-6.4288,-6.356,-6.3122,-6.2108,-6.134,-6.1206,-6.0463,-5.9627,-5.8809,-5.8716,-5.8716,-5.8716,-5.9181,-5.9515,-5.9515,-6.0277,-6.076,-6.076,-6.154,-6.2004,-6.2004,-6.2784,-6.3212,-6.3212,-6.3472,-6.3557,-6.3557,-6.3557,-6.3511,-6.3465,-6.3465,-6.3465,-4.9359,-5.1583,-5.3633,-5.4233,-5.5857,-5.754,-5.8391,-5.9029,-5.9435,-5.9435,-5.9184,-5.87,-5.7831,-5.7675,-5.8062,-5.9204,-5.9435,-5.9822,-6.0944,-6.0847,-6.0596,-6.0326,-6.05,-6.0539,-6.0268,-6.0712,-6.1021,-6.1061,-6.2123,-6.3031,-6.3671,-6.4793,-6.5663,-6.6165,-6.6123,-6.6099,-6.6055,-6.6009,-6.5982,-6.5972,-6.5923,-6.5897,-6.5878,-6.532,-6.5051,-6.5032,-6.4474,-6.4224,-6.4205,-6.3897,-6.3762,-6.3743,-6.3435,-6.3301,-6.3339,-6.3647,-6.357,-6.3243,-6.2704,-6.2166,-6.1647,-6.1358,-6.1262,-6.1262,-6.1262,-6.1262,-6.132,-6.1608,-6.2089,-6.2589,-6.2897,-6.3378,-6.3993,-6.4859,-6.5051,-6.5224,-6.5782,-6.5897,-6.5897,-6.5897,-6.4829,-6.3938,-6.3938,-6.2872,-6.1967,-6.167,-6.115,-6.0518,-5.9701,-5.9329,-5.9144,-5.9144,-5.9608,-5.9905,-5.9905,-6.0964,-6.1633,-6.1633,-6.2394,-6.284,-6.284,-6.3342,-6.3602,-6.3602,-6.3602,-6.3602,-6.3602,-6.3602,-6.3602,-6.3602,-6.3602,-6.3602,-5.1583,-5.2917,-5.4,-5.5606,-5.667,-5.7521,-5.8333,-5.8526,-5.8507,-5.841,-5.7714,-5.6826,-5.5901,-5.5842,-5.6478,-5.8104,-5.8547,-5.9242,-6.0867,-6.0441,-6.021,-6.0905,-6.0326,-6.0152,-6.092,-6.1036,-6.1057,-6.106,-6.2625,-6.363,-6.3768,-6.5315,-6.6144,-6.6102,-6.6102,-6.6055,-6.5996,-6.5996,-6.5972,-6.5897,-6.5897,-6.5897,-6.5897,-6.5897,-6.5897,-6.5897,-6.5897,-6.5897,-6.584,-6.5013,-6.4666,-6.4589,-6.3762,-6.3435,-6.3531,-6.4359,-6.4147,-6.3435,-6.3435,-6.3378,-6.3166,-6.2397,-6.2147,-6.2147,-6.2147,-6.2127,-6.2262,-6.307,-6.3301,-6.3512,-6.4378,-6.4628,-6.4878,-6.5705,-6.5897,-6.5897,-6.5897,-6.5897,-6.5897,-6.5897,-6.5249,-6.4699,-6.4664,-6.405,-6.3342,-6.258,-6.2469,-6.2171,-6.1317,-6.0481,-5.998,-5.998,-6.0017,-6.0035,-6.0035,-6.1521,-6.2469,-6.2469,-6.3193,-6.3602,-6.3602,-6.3602,-6.3602,-6.3602,-6.3602,-6.3602,-6.3602,-6.3602,-6.3602,-6.3602,-6.3602,-6.3602,-5.2647,-5.4233,-5.547,-5.5896,-5.667,-5.7366,-5.7579,-5.7637,-5.7288,-5.6031,-5.5047,-5.3947,-5.2476,-5.3754,-5.5378,-5.6459,-5.8294,-5.9919,-6.0963,-6.0925,-6.0848,-6.0963,-6.0809,-6.077,-6.0978,-6.1537,-6.1885,-6.1887,-6.2909,-6.3838,-6.4558,-6.552,-6.6036,-6.6036,-6.6029,-6.6025,-6.5996,-6.5947,-6.5923,-6.5897,-6.5897,-6.5897,-6.5897,-6.5897,-6.5897,-6.5897,-6.5897,-6.5897,-6.5878,-6.5647,-6.557,-6.5551,-6.532,-6.5243,-6.5263,-6.5493,-6.5436,-6.5243,-6.5243,-6.4397,-6.3281,-6.307,-6.2993,-6.2993,-6.2993,-6.257,-6.2262,-6.307,-6.3301,-6.3512,-6.4378,-6.507,-6.5609,-6.584,-6.5897,-6.5897,-6.5897,-6.5897,-6.5897,-6.5897,-6.5249,-6.4519,-6.3986,-6.3698,-6.3546,-6.3323,-6.3305,-6.2803,-6.1391,-6.102,-6.0871,-6.0871,-6.141,-6.1763,-6.1763,-6.271,-6.3305,-6.3305,-6.349,-6.3602,-6.3602,-6.3602,-6.3602,-6.3602,-6.3602,-6.3602,-6.3602,-6.3602,-6.3602,-6.3602,-6.3602,-6.3602,-5.3691,-5.5006,-5.6012,-5.6012,-5.667,-5.7114,-5.6379,-5.6205,-5.5509,-5.3036,-5.2111,-5.1125,-4.9022,-5.1032,-5.3426,-5.4663,-5.7039,-5.9319,-6.0886,-6.108,-6.1041,-6.1001,-6.096,-6.1113,-6.1475,-6.1899,-6.25,-6.3274,-6.3794,-6.4299,-6.4822,-6.5592,-6.599,-6.5986,-6.6001,-6.5996,-6.5947,-6.5923,-6.5897,-6.5897,-6.5897,-6.5897,-6.5897,-6.5897,-6.5897,-6.5897,-6.5897,-6.5897,-6.5897,-6.5897,-6.5897,-6.5897,-6.5897,-6.5897,-6.5897,-6.5897,-6.5897,-6.5897,-6.5897,-6.5263,-6.4378,-6.3993,-6.3878,-6.3878,-6.3878,-6.3551,-6.3358,-6.4205,-6.4436,-6.4551,-6.5032,-6.5532,-6.5897,-6.5897,-6.5897,-6.5897,-6.5897,-6.5897,-6.5781,-6.5437,-6.499,-6.4464,-6.3742,-6.3602,-6.3602,-6.3602,-6.3602,-6.3286,-6.2376,-6.1949,-6.1744,-6.1744,-6.2134,-6.2413,-6.2413,-6.3156,-6.3602,-6.3602,-6.3602,-6.3602,-6.3602,-6.3602,-6.3602,-6.3602,-6.3602,-6.3602,-6.3602,-6.3602,-6.3602,-6.3602,-6.3602,-6.3602,-5.4716,-5.547,-5.6012,-5.6012,-5.6495,-5.6573,-5.4987,-5.4368,-5.3191,-4.993,-4.9115,-4.8288,-4.5982,-4.8292,-5.1183,-5.3099,-5.559,-5.8197,-6.0712,-6.1041,-6.1001,-6.0997,-6.1051,-6.1354,-6.2105,-6.2336,-6.3091,-6.4682,-6.4894,-6.4971,-6.4949,-6.5604,-6.5986,-6.5996,-6.5996,-6.5972,-6.5897,-6.5897,-6.5897,-6.5897,-6.5897,-6.5897,-6.5897,-6.5897,-6.5897,-6.5897,-6.5897,-6.5897,-6.5897,-6.5897,-6.5897,-6.5897,-6.5897,-6.5897,-6.5897,-6.5897,-6.5897,-6.5897,-6.5897,-6.5897,-6.5782,-6.5013,-6.4762,-6.4762,-6.4762,-6.4686,-6.4782,-6.5647,-6.582,-6.5743,-6.5859,-6.5897,-6.5897,-6.5897,-6.5897,-6.5897,-6.5897,-6.5897,-6.5663,-6.4837,-6.4699,-6.4464,-6.3742,-6.3602,-6.3602,-6.3602,-6.3602,-6.3602,-6.3602,-6.3007,-6.2562,-6.2562,-6.2562,-6.2562,-6.2562,-6.3212,-6.3602,-6.3602,-6.3602,-6.3602,-6.3602,-6.3602,-6.3602,-6.3602,-6.3602,-6.3602,-6.3602,-6.3602,-6.3602,-6.3602,-6.3602,-6.3602,-5.5567,-5.5896,-5.6012,-5.6012,-5.5606,-5.4967,-5.3962,-5.205,-4.993,-4.794,-4.6352,-4.5198,-4.4781,-4.6924,-4.9782,-5.2978,-5.5644,-5.8179,-6.0674,-6.1002,-6.0981,-6.0914,-6.1533,-6.2017,-6.2105,-6.3461,-6.4447,-6.471,-6.5384,-6.5789,-6.5789,-6.5876,-6.5923,-6.5923,-6.5923,-6.5923,-6.5897,-6.5897,-6.5897,-6.5897,-6.5897,-6.5897,-6.5897,-6.5897,-6.5897,-6.5897,-6.5897,-6.5897,-6.5897,-6.5897,-6.5897,-6.5897,-6.5897,-6.5897,-6.5897,-6.5897,-6.5897,-6.5897,-6.5897,-6.5897,-6.5878,-6.5724,-6.5667,-6.5667,-6.5667,-6.5166,-6.4782,-6.5647,-6.5378,-6.4993,-6.5705,-6.5897,-6.5897,-6.5897,-6.5897,-6.5897,-6.5897,-6.5897,-6.5663,-6.4837,-6.4699,-6.4464,-6.3742,-6.3602,-6.3602,-6.3602,-6.3602,-6.3602,-6.3602,-6.349,-6.3397,-6.3397,-6.3397,-6.3397,-6.3397,-6.3527,-6.3602,-6.3602,-6.3602,-6.3602,-6.3602,-6.3602,-6.3602,-6.3602,-6.3602,-6.3602,-6.3602,-6.3602,-6.3602,-6.3602,-6.3602,-6.3602,-5.578,-5.6012,-5.6012,-5.6012,-5.5045,-5.3788,-5.244,-5.0143,-4.7674,-4.5465,-4.4353,-4.3505,-4.2633,-4.5275,-4.8318,-5.0449,-5.331,-5.6325,-5.9283,-5.9669,-6.011,-6.1354,-6.1893,-6.249,-6.3376,-6.4205,-6.4898,-6.5341,-6.5741,-6.5947,-6.5947,-6.5923,-6.5897,-6.5897,-6.5897,-6.5897,-6.5897,-6.5897,-6.5897,-6.5897,-6.5897,-6.5897,-6.5897,-6.5897,-6.5897,-6.5897,-6.5897,-6.5897,-6.5897,-6.5897,-6.5897,-6.5897,-6.5897,-6.5897,-6.5897,-6.5897,-6.5897,-6.5897,-6.5897,-6.5897,-6.5897,-6.5897,-6.5897,-6.5897,-6.5897,-6.5609,-6.5359,-6.5782,-6.559,-6.5378,-6.5782,-6.5897,-6.5897,-6.5897,-6.5897,-6.5897,-6.5897,-6.5897,-6.5663,-6.4837,-6.4699,-6.4464,-6.3742,-6.3602,-6.3602,-6.3602,-6.3602,-6.3602,-6.3602,-6.3602,-6.3602,-6.3602,-6.3602,-6.3602,-6.3602,-6.3602,-6.3602,-6.3602,-6.3602,-6.3602,-6.3602,-6.3602,-6.3602,-6.3602,-6.3602,-6.3602,-6.3602,-6.3602,-6.3602,-6.3602,-6.3602,-6.3602,-5.5567,-5.5877,-5.5973,-5.5799,-5.4465,-5.2746,-5.1032,-4.8504,-4.5885,-4.357,-4.2853,-4.2256,-4.1089,-4.3624,-4.6491,-4.8276,-5.0977,-5.4146,-5.7931,-5.8721,-5.9721,-6.1832,-6.2425,-6.3195,-6.4547,-6.4812,-6.5216,-6.5914,-6.5923,-6.5897,-6.5897,-6.5897,-6.5897,-6.5897,-6.5897,-6.5897,-6.5897,-6.5897,-6.5897,-6.5897,-6.5897,-6.5897,-6.5897,-6.5897,-6.5897,-6.5897,-6.5897,-6.5897,-6.5897,-6.5897,-6.5897,-6.5897,-6.5897,-6.5897,-6.5897,-6.5897,-6.5897,-6.5897,-6.5897,-6.5897,-6.5897,-6.5897,-6.5897,-6.5897,-6.5897,-6.5897,-6.5897,-6.5897,-6.5897,-6.5897,-6.5897,-6.5897,-6.5897,-6.5897,-6.5897,-6.5897,-6.5897,-6.5827,-6.5561,-6.4837,-6.4628,-6.4389,-6.3698,-6.3602,-6.3602,-6.3602,-6.3602,-6.3602,-6.3602,-6.3602,-6.3602,-6.3602,-6.3602,-6.3602,-6.3602,-6.3602,-6.3602,-6.3602,-6.3602,-6.3602,-6.3602,-6.3602,-6.3602,-6.3602,-6.3602,-6.3602,-6.3602,-6.3602,-6.3602,-6.3602,-6.3602,-6.3602,-5.489,-5.5451,-5.5818,-5.5084,-5.3594,-5.1873,-5.0124,-4.7156,-4.4427,-4.3339,-4.1863,-4.0962,-4.1647,-4.209,-4.3914,-4.8613,-5.0328,-5.2741,-5.7618,-5.968,-6.1023,-6.1997,-6.3507,-6.4508,-6.4614,-6.5351,-6.5876,-6.5923,-6.5897,-6.5897,-6.5897,-6.5897,-6.5897,-6.5897,-6.5897,-6.5897,-6.5897,-6.5897,-6.5897,-6.5897,-6.5897,-6.5897,-6.5897,-6.5897,-6.5897,-6.5897,-6.5897,-6.5897,-6.5897,-6.5897,-6.5897,-6.5897,-6.5897,-6.5897,-6.5897,-6.5897,-6.5897,-6.5897,-6.5897,-6.5897,-6.5897,-6.5897,-6.5897,-6.5897,-6.5897,-6.5897,-6.5897,-6.5897,-6.5897,-6.5897,-6.5897,-6.5897,-6.5897,-6.5897,-6.5897,-6.5897,-6.5897,-6.5608,-6.5238,-6.4769,-6.4445,-6.4128,-6.3673,-6.3602,-6.3602,-6.3602,-6.3602,-6.3602,-6.3602,-6.3602,-6.3602,-6.3602,-6.3602,-6.3602,-6.3602,-6.3602,-6.3602,-6.3602,-6.3602,-6.3602,-6.3602,-6.3602,-6.3602,-6.3602,-6.3602,-6.3602,-6.3602,-6.3602,-6.3602,-6.3602,-6.3602,-6.3602,-5.4523,-5.5393,-5.5818,-5.5006,-5.3091,-5.1083,-4.984,-4.6526,-4.3601,-4.3192,-4.1716,-4.062,-4.1001,-4.1501,-4.3018,-4.6632,-4.7904,-5.0063,-5.465,-5.6307,-5.8115,-6.0973,-6.2382,-6.371,-6.5243,-6.5711,-6.5923,-6.5897,-6.5897,-6.5897,-6.5897,-6.5897,-6.5897,-6.5897,-6.5897,-6.5897,-6.5897,-6.5897,-6.5897,-6.5897,-6.5897,-6.5897,-6.5897,-6.5897,-6.5897,-6.5897,-6.5897,-6.5897,-6.5897,-6.5897,-6.5897,-6.5897,-6.5897,-6.5897,-6.5897,-6.5897,-6.5897,-6.5897,-6.5897,-6.5897,-6.5897,-6.5897,-6.5897,-6.5897,-6.5897,-6.5897,-6.5897,-6.5897,-6.5897,-6.5897,-6.5897,-6.5897,-6.5897,-6.5897,-6.5897,-6.5897,-6.5897,-6.5781,-6.5485,-6.4837,-6.4592,-6.4292,-6.3717,-6.3602,-6.3602,-6.3602,-6.3602,-6.3602,-6.3602,-6.3602,-6.3602,-6.3602,-6.3602,-6.3602,-6.3602,-6.3602,-6.3602,-6.3602,-6.3602,-6.3602,-6.3602,-6.3602,-6.3602,-6.3602,-6.3602,-6.3843,-6.4326,-6.4326,-6.4605,-6.5106,-6.5106,-6.5106,-5.3578,-5.4851,-5.5451,-5.4619,-5.263,-5.051,-4.9092,-4.5854,-4.3085,-4.2775,-4.1527,-4.0489,-4.0489,-4.12,-4.2582,-4.4906,-4.6388,-4.8661,-5.2704,-5.463,-5.692,-6.0377,-6.1781,-6.3262,-6.532,-6.5743,-6.5897,-6.5897,-6.5897,-6.5897,-6.5897,-6.5897,-6.5897,-6.5897,-6.5897,-6.5897,-6.5897,-6.6128,-6.6128,-6.5897,-6.6128,-6.6128,-6.5897,-6.5897,-6.5897,-6.5897,-6.5897,-6.5897,-6.5897,-6.5897,-6.5897,-6.5897,-6.5897,-6.5897,-6.5897,-6.5897,-6.5897,-6.5897,-6.5897,-6.5897,-6.5897,-6.5897,-6.5897,-6.5897,-6.5897,-6.5897,-6.5897,-6.5897,-6.5897,-6.5897,-6.5897,-6.5897,-6.5897,-6.5897,-6.5897,-6.5897,-6.5897,-6.5827,-6.5561,-6.499,-6.4718,-6.4407,-6.3854,-6.3691,-6.3602,-6.3602,-6.3602,-6.3602,-6.3602,-6.3602,-6.3602,-6.3602,-6.3602,-6.3602,-6.3602,-6.3602,-6.3602,-6.3602,-6.3602,-6.3602,-6.3602,-6.3602,-6.3713,-6.3955,-6.3955,-6.4363,-6.5199,-6.5199,-6.5515,-6.6109,-6.6109,-6.5961,-5.1841,-5.3539,-5.46,-5.373,-5.2189,-5.0207,-4.7626,-4.4993,-4.2845,-4.1989,-4.1104,-4.0489,-4.0489,-4.12,-4.2354,-4.4047,-4.6432,-4.9279,-5.2722,-5.6126,-5.8896,-6.0589,-6.2262,-6.3647,-6.4532,-6.5397,-6.5897,-6.5897,-6.5897,-6.5897,-6.5897,-6.5897,-6.5897,-6.5897,-6.5897,-6.5897,-6.5897,-6.6686,-6.6686,-6.5897,-6.6705,-6.6667,-6.5897,-6.5897,-6.5897,-6.5897,-6.5897,-6.5897,-6.5897,-6.5897,-6.5897,-6.5897,-6.5897,-6.5897,-6.5897,-6.5897,-6.5897,-6.5897,-6.5897,-6.5897,-6.5897,-6.5897,-6.5897,-6.5897,-6.5897,-6.5897,-6.5897,-6.5897,-6.5897,-6.5897,-6.5897,-6.5897,-6.5897,-6.5897,-6.5897,-6.5897,-6.5897,-6.5608,-6.5299,-6.5299,-6.472,-6.419,-6.4209,-6.3873,-6.3602,-6.3602,-6.3602,-6.3602,-6.3602,-6.3602,-6.3602,-6.3602,-6.3602,-6.3602,-6.3602,-6.3602,-6.3602,-6.3602,-6.3602,-6.3602,-6.3602,-6.3602,-6.3973,-6.4791,-6.4809,-6.5236,-6.6091,-6.6091,-6.6091,-6.6109,-6.6109,-6.5645,-4.8439,-4.9969,-5.0893,-4.9475,-4.8674,-4.7703,-4.5754,-4.4221,-4.296,-4.2002,-4.1176,-4.0602,-4.0519,-4.0719,-4.222,-4.624,-4.7567,-4.9683,-5.426,-5.6876,-5.8915,-6.0589,-6.332,-6.5186,-6.5455,-6.5743,-6.5897,-6.5897,-6.5897,-6.5897,-6.5897,-6.5897,-6.5897,-6.5897,-6.5897,-6.6147,-6.6705,-6.6974,-6.7263,-6.7609,-6.7263,-6.6974,-6.6686,-6.6147,-6.5897,-6.5897,-6.5897,-6.5897,-6.5897,-6.5897,-6.5897,-6.5897,-6.5897,-6.5897,-6.5897,-6.5897,-6.5897,-6.5897,-6.5897,-6.5897,-6.5897,-6.5897,-6.5897,-6.5897,-6.5897,-6.5897,-6.5897,-6.5897,-6.5897,-6.5897,-6.5897,-6.5897,-6.5897,-6.5897,-6.5897,-6.5897,-6.5897,-6.5781,-6.5635,-6.5348,-6.4909,-6.4483,-6.423,-6.3873,-6.3602,-6.3602,-6.3602,-6.3602,-6.3602,-6.3602,-6.3602,-6.3602,-6.3602,-6.3602,-6.3602,-6.3602,-6.3602,-6.3602,-6.3602,-6.3602,-6.3602,-6.3602,-6.3732,-6.3973,-6.3992,-6.4698,-6.6109,-6.6109,-6.6685,-6.7744,-6.7744,-6.7317,-4.5622,-4.741,-4.8404,-4.7322,-4.6773,-4.6086,-4.4428,-4.3366,-4.2483,-4.1576,-4.1007,-4.0621,-4.0519,-4.1043,-4.2505,-4.5701,-4.7278,-4.9548,-5.3683,-5.6319,-5.8781,-6.1435,-6.3916,-6.5416,-6.5416,-6.5705,-6.5897,-6.5897,-6.5897,-6.5897,-6.5897,-6.5897,-6.5897,-6.5897,-6.5897,-6.6282,-6.709,-6.7436,-6.7859,-6.8398,-6.7859,-6.7417,-6.7071,-6.6263,-6.5897,-6.5897,-6.5897,-6.5897,0.0,-6.5897,-6.5897,-6.5897,-6.5897,-6.5897,-6.5897,-6.5897,-6.5897,-6.5897,-6.5897,-6.5897,-6.5897,-6.5897,-6.5897,-6.5897,-6.5897,-6.5897,-6.5897,-6.5897,-6.5897,-6.5897,-6.5897,-6.5897,-6.5897,-6.5897,-6.5897,-6.5897,-6.5897,-6.5897,-6.5827,-6.558,-6.5188,-6.4822,-6.4445,-6.4069,-6.3786,-6.3602,-6.3602,-6.3602,-6.3602,-6.3602,-6.3602,-6.3602,-6.3602,-6.3602,-6.3602,-6.3602,-6.3602,-6.3602,-6.3602,-6.3602,-6.3602,-6.3602,-6.375,-6.4066,-6.4066,-6.4883,-6.6555,-6.6871,-6.7521,-6.8506,-6.8506,-6.8078,0.0,-4.5389,-4.663,-4.6503,-4.5954,-4.5009,-4.3466,-4.2444,0.0,-4.0862,-4.0668,-4.0622,-4.0677,-4.1944,-4.3153,-4.3566,-4.6297,-4.9298,-5.1991,-5.5299,-5.8954,-6.3012,-6.4205,-6.4686,-6.4686,-6.5416,-6.5897,-6.5897,-6.5897,-6.5897,-6.5897,-6.5897,-6.5897,-6.5897,-6.5897,-6.632,-6.7167,-6.7994,-6.8475,-6.859,-6.8475,-6.7975,-6.7148,-6.6301,-6.5897,-6.5897,-6.5897,-6.5897,-6.5897,-6.5897,-6.5897,-6.5897,-6.5897,-6.5897,-6.5897,-6.5897,-6.5897,-6.5897,-6.5897,-6.5897,-6.5897,-6.5897,-6.5897,-6.5897,-6.5897,-6.5897,-6.5897,-6.5897,-6.5897,-6.5897,-6.5897,-6.5897,-6.5897,-6.5897,-6.5897,-6.5897,-6.5897,-6.5897,-6.5897,-6.5897,-6.5561,-6.5156,-6.4769,-6.4407,-6.4004,-6.3647,-6.3602,-6.3602,-6.3602,-6.3602,-6.3602,-6.3602,-6.3602,-6.3602,-6.3602,-6.3602,-6.3602,-6.3602,-6.3602,-6.3602,-6.3602,-6.3602,-6.3955,-6.4716,-6.4846,-6.5664,-6.7224,-6.8097,-6.8506,-6.8506,-6.8506,-6.8116,-3.8635,0.0,-4.214,-4.1489,-4.2073,-4.2551,0.0,-4.1768,-4.1834,-4.0892,-4.0776,-4.1164,-4.2268,-4.231,-4.3654,-4.8182,-5.0087,-5.2375,-5.6261,-5.9704,-6.2685,-6.5013,-6.5474,-6.559,-6.559,-6.5782,-6.5897,-6.5897,-6.5897,-6.5897,-6.5897,-6.5897,-6.5897,-6.5897,-6.5897,-6.6609,-6.809,-6.8302,-6.9052,-7.0302,-6.9013,-6.8302,-6.8052,-6.6571,-6.5897,-6.5897,-6.5897,-6.5897,-6.5897,-6.5897,-6.5897,-6.5897,-6.5897,-6.5897,-6.5897,-6.5897,-6.5897,-6.5897,-6.5897,-6.5897,-6.5897,-6.5897,-6.5897,-6.5897,-6.5897,-6.5897,-6.5897,-6.5897,-6.5897,-6.5897,-6.5897,-6.5897,-6.5897,-6.5897,-6.5897,-6.5897,-6.5897,-6.5897,-6.5897,-6.5897,-6.5329,-6.4803,-6.4734,-6.4153,-6.3717,-6.3602,-6.3602,-6.3602,-6.3602,-6.3602,-6.3602,-6.3602,-6.3602,-6.3602,-6.3602,-6.3602,-6.3602,-6.3602,-6.3602,-6.3602,-6.3602,-6.3602,-6.3695,-6.3899,-6.5144,-6.5998,-6.6407,-6.7818,-6.8506,-6.8506,-6.8506,-6.8413,-3.6615,-3.8681,-4.0729,-4.0275,-4.1084,-4.1898,-4.1571,-4.151,-4.1419,-4.0946,-4.0859,-4.1332,-4.2902,-4.3134,-4.4511,-4.8853,-5.0895,-5.3704,-5.8742,-6.1666,-6.3955,-6.5686,-6.5897,-6.5897,-6.5897,-6.5897,-6.5897,-6.5897,-6.5897,-6.5897,-6.5897,-6.5897,-6.5897,-6.5897,-6.5897,-6.6705,-6.8379,-6.8398,-6.9244,-7.0879,-6.961,-6.8802,-6.8359,-6.7051,-6.6244,-6.5897,-6.5897,-6.5897,-6.5897,-6.5897,-6.5897,-6.5897,-6.5897,-6.5897,-6.5897,-6.5897,-6.5897,-6.5897,-6.5897,-6.5897,-6.5897,-6.5897,-6.5897,-6.5897,-6.5897,-6.5897,-6.5897,-6.5897,-6.5897,-6.5897,-6.5897,-6.5897,-6.5897,-6.5897,-6.5897,-6.5897,-6.5897,-6.5897,-6.5897,-6.5897,-6.5561,-6.5137,-6.4769,-6.435,-6.3986,-6.3647,-6.3602,-6.3602,-6.3602,-6.3602,-6.3602,-6.3602,-6.3602,-6.3602,-6.3602,-6.3602,-6.3602,-6.3602,-6.3602,-6.3602,-6.3602,-6.3602,-6.3602,-6.3602,-6.5255,-6.6109,-6.6109,-6.7725,-6.8506,-6.8506,-6.8506,-6.8506,-3.6482,-3.8723,-4.087,-4.0527,-4.1299,-4.2105,-4.2101,0.0,0.0,-4.1163,-4.1302,-4.1914,-4.3557,-4.4631,-4.6098,-4.8581,-5.1221,-5.4879,-6.0396,-6.2397,-6.3955,-6.5686,-6.5897,-6.5897,-6.5897,-6.5897,-6.5897,-6.5897,-6.5897,-6.5897,-6.5897,-6.5897,-6.5897,-6.5897,-6.5897,-6.6647,-6.8186,-6.834,-6.9186,-7.0706,-7.0033,-6.9244,-6.8379,-6.7494,-6.6647,-6.5897,-6.5897,-6.5897,-6.5897,-6.5897,-6.5897,-6.5897,-6.5897,-6.5897,-6.5897,-6.5897,-6.5897,-6.5897,-6.5897,-6.5897,-6.5897,-6.5897,-6.5897,-6.5897,-6.5897,-6.5897,-6.5897,-6.5897,-6.5897,-6.5897,-6.5897,-6.5897,-6.5897,-6.5897,-6.5897,-6.5897,-6.5897,-6.5897,-6.5897,-6.5897,-6.5853,-6.5589,-6.4923,-6.4699,-6.4389,-6.3786,-6.3647,-6.3602,-6.3602,-6.3602,-6.3602,-6.3602,-6.3602,-6.3602,-6.3602,-6.3602,-6.3602,-6.3602,-6.3602,-6.3602,-6.3602,-6.3602,-6.3602,-6.3602,-6.5255,-6.6109,-6.6109,-6.7725,-6.8506,-6.8506,-6.8506,-6.8506,-3.8691,-4.0214,-4.0778,-3.9248,-4.0525,-4.2011,-4.1356,-4.1641,-4.2062,0.0,-4.3175,-4.4657,-4.6158,-4.7735,-4.963,-5.2107,-5.5226,-5.8627,-6.2397,-6.3147,-6.3955,-6.5686,-6.5897,-6.5897,-6.5897,-6.5897,-6.5897,-6.5897,-6.5897,-6.5897,-6.5897,-6.5897,-6.5897,-6.5897,-6.5897,-6.634,-6.7282,-6.8032,-6.8898,-6.9879,-6.9763,-6.9244,-6.8379,-6.7494,-6.6647,-6.5897,-6.5897,-6.5897,-6.5897,-6.5897,-6.5897,-6.5897,-6.5897,-6.5897,-6.5897,-6.5897,-6.5897,-6.5897,-6.5897,-6.5897,-6.5897,-6.5897,-6.5897,-6.5897,-6.5897,-6.5897,-6.5897,-6.5897,-6.5897,-6.5897,-6.5897,-6.5897,-6.5897,-6.5897,-6.5897,-6.5897,-6.5897,-6.5897,-6.5897,-6.5897,-6.5635,-6.5348,-6.5238,-6.4666,-6.423,-6.4109,-6.383,-6.3602,-6.3602,-6.3602,-6.3602,-6.3602,-6.3602,-6.3602,-6.3602,-6.3602,-6.3602,-6.3602,-6.3602,-6.3602,-6.3602,-6.3602,-6.3602,-6.3602,-6.5255,-6.6109,-6.6109,-6.7725,-6.8506,-6.8506,-6.8506,-6.8506,-3.8047,-3.9824,-4.0996,-4.0176,-4.2202,-4.4315,-4.3944,-4.4172,-4.4442,-4.4419,-4.5013,-4.6182,-4.8199,-4.9586,-5.1653,-5.5442,-5.8096,-6.0512,-6.2974,-6.3724,-6.4474,-6.5743,-6.5897,-6.5897,-6.5897,-6.5897,-6.5897,-6.5897,-6.5897,-6.5897,-6.5897,-6.5897,-6.5897,-6.5897,-6.5897,-6.607,-6.6436,-6.7282,-6.8379,-6.9687,-6.9225,-6.8802,-6.8379,-6.7494,-6.6647,-6.5897,-6.5897,-6.5897,-6.5897,-6.5897,-6.5897,-6.5897,-6.5897,-6.5897,-6.5897,-6.5897,-6.5897,-6.5897,-6.5897,-6.5897,-6.5897,-6.5897,-6.5897,-6.5897,-6.5897,-6.5897,-6.5897,-6.5897,-6.5897,-6.5897,-6.5897,-6.5897,-6.5897,-6.5897,-6.5897,-6.5897,-6.5897,-6.5897,-6.5897,-6.5897,-6.558,-6.5219,-6.499,-6.452,-6.4128,-6.3897,-6.3717,-6.3602,-6.3602,-6.3602,-6.3602,-6.3602,-6.3602,-6.3602,-6.3602,-6.3602,-6.3602,-6.3602,-6.3602,-6.3602,-6.3602,-6.3602,-6.3602,-6.3602,-6.5255,-6.6109,-6.6109,-6.7725,-6.8506,-6.8524,-6.8408,-6.8408,-3.7812,-3.9531,-4.1094,-4.1894,-4.3906,-4.5801,-4.6211,-4.6465,-4.6777,-4.7342,-4.7738,-4.8582,-5.047,-5.1779,-5.3969,-5.8297,-6.0003,-6.1396,-6.307,-6.3878,-6.4686,-6.5763,-6.5897,-6.5897,-6.5897,-6.5897,-6.5897,-6.5897,-6.5897,-6.5897,-6.5897,-6.5897,-6.5897,-6.5897,-6.5897,-6.5897,-6.5897,-6.6513,-6.7571,-6.909,-6.8629,-6.8302,-6.8071,-6.7398,-6.6647,-6.5897,-6.5897,-6.5897,-6.5897,-6.5897,-6.5897,-6.5897,-6.5897,-6.5897,-6.5897,-6.5897,-6.5897,-6.5897,-6.5897,-6.5897,-6.5897,-6.5897,-6.5897,-6.5897,-6.5897,-6.5897,-6.5897,-6.5897,-6.5897,-6.5897,-6.5897,-6.5897,-6.5897,-6.5897,-6.5897,-6.5897,-6.5897,-6.5897,-6.5897,-6.5897,-6.5635,-6.5299,-6.4923,-6.4557,-6.419,-6.3786,-6.3647,-6.3602,-6.3602,-6.3602,-6.3602,-6.3602,-6.3602,-6.3602,-6.3602,-6.3602,-6.3602,-6.3602,-6.3602,-6.3602,-6.3602,-6.3602,-6.3602,-6.3602,-6.5255,-6.6109,-6.6109,-6.7725,-6.8506,-6.8524,-6.8358,-6.8309,-4.0019,-4.0469,-4.0762,-4.3926,-4.4297,-4.4316,-4.5937,-4.6933,-4.8164,-5.0469,-5.2218,-5.3377,-5.3506,-5.5345,-5.7719,-6.038,-6.0792,-6.1396,-6.307,-6.3358,-6.4032,-6.5705,-6.5897,-6.5897,-6.5897,-6.5897,-6.5897,-6.5897,-6.5897,-6.5897,-6.5897,-6.5897,-6.5897,-6.5897,-6.5897,-6.5897,-6.5897,-6.5955,-6.6417,-6.7301,-6.8052,-6.7975,-6.7186,-6.7128,-6.6647,-6.5897,-6.5897,-6.5897,-6.5897,-6.5897,-6.5897,-6.5897,-6.5897,-6.5897,-6.5897,-6.5897,-6.5897,-6.5897,-6.5897,-6.5897,-6.5897,-6.5897,-6.5897,-6.5897,-6.5897,-6.5897,-6.5897,-6.5897,-6.5897,-6.5897,-6.5897,-6.5897,-6.5897,-6.5897,-6.5897,-6.5897,-6.5897,-6.5897,-6.5897,-6.5897,-6.5897,-6.5736,-6.5348,-6.4923,-6.4538,-6.423,-6.383,-6.3602,-6.3602,-6.3602,-6.3602,-6.3602,-6.3602,-6.3602,-6.3602,-6.3602,-6.3602,-6.3602,-6.3602,-6.3602,-6.3602,-6.3602,-6.3602,-6.3602,-6.5255,-6.6109,-6.6109,-6.7725,-6.8506,-6.8524,-6.8358,-6.8309,-3.8262,-4.0098,-4.1777,-4.3066,-4.4766,-4.6582,-4.832,-4.9785,-5.1504,-5.4062,-5.5118,-5.586,-5.6803,-5.7974,-5.9282,-6.0749,-6.1337,-6.1843,-6.2463,-6.346,-6.4359,-6.5013,-6.557,-6.5897,-6.5897,-6.5897,-6.5897,-6.5897,-6.5897,-6.5897,-6.5897,-6.5897,-6.5897,-6.5897,-6.5897,-6.5897,-6.5897,-6.5897,-6.6051,-6.6359,-6.6686,-6.6936,-6.7071,-6.6571,-6.6186,-6.5897,-6.5897,-6.5897,-6.5897,-6.5897,-6.5897,-6.5897,-6.5897,-6.5897,-6.5897,-6.5897,-6.5897,-6.5897,-6.5897,-6.5897,-6.5897,-6.5897,-6.5897,-6.5897,-6.5897,-6.5897,-6.5897,-6.5897,-6.5897,-6.5897,-6.5897,-6.5897,-6.5897,-6.5897,-6.5897,-6.5897,-6.5897,-6.5897,-6.5897,-6.5897,-6.5485,-6.5105,-6.4957,-6.4426,-6.3986,-6.3873,-6.3691,-6.3602,-6.3602,-6.3602,-6.3602,-6.3602,-6.3602,-6.3602,-6.3602,-6.3602,-6.3602,-6.3602,-6.3602,-6.3602,-6.3602,-6.3602,-6.3602,-6.3602,-6.5255,-6.6109,-6.6109,-6.7629,-6.8358,-6.8358,-6.8158,-6.8037,-3.7402,-3.9824,-4.2148,-4.2676,-4.5215,-4.8262,-5.082,-5.2285,-5.3926,-5.6836,-5.7418,-5.7802,-5.906,-5.9332,-5.9743,-6.0828,-6.1376,-6.1786,-6.2066,-6.3099,-6.3897,-6.4166,-6.4724,-6.507,-6.507,-6.532,-6.5493,-6.5493,-6.5743,-6.5897,-6.5897,-6.5897,-6.5897,-6.5897,-6.5897,-6.5897,-6.5897,-6.5897,-6.5897,-6.5897,-6.5897,-6.6186,-6.6686,-6.6147,-6.5897,-6.5897,-6.5897,-6.5897,-6.5897,-6.5897,-6.5897,-6.5897,-6.5897,-6.5897,-6.5897,-6.5897,-6.5897,-6.5897,-6.5897,-6.5897,-6.5897,-6.5897,-6.5897,-6.5897,-6.5897,-6.5897,-6.5897,-6.5897,-6.5897,-6.5897,-6.5897,-6.5897,-6.5897,-6.5897,-6.5897,-6.5897,-6.5897,-6.5897,-6.5897,-6.5897,-6.5456,-6.499,-6.4734,-6.4292,-6.3878,-6.3647,-6.3602,-6.3602,-6.3602,-6.3602,-6.3602,-6.3602,-6.3602,-6.3602,-6.3602,-6.3602,-6.3602,-6.3602,-6.3602,-6.3602,-6.3602,-6.3602,-6.3602,-6.3602,-6.4995,-6.5654,-6.5635,-6.7191,-6.7889,-6.7889,-6.7875,-6.7752,-3.8125,-3.9863,-4.1601,-4.3281,-4.5703,-4.8769,-5.3047,-5.4023,-5.5019,-5.8515,-5.9219,-5.9406,-6.0002,-5.9359,-5.9221,-6.075,-6.0875,-6.1093,-6.197,-6.2098,-6.2397,-6.3185,-6.3301,-6.3301,-6.3301,-6.4089,-6.4589,-6.4609,-6.5397,-6.5878,-6.5897,-6.5897,-6.5897,-6.5897,-6.5897,-6.5897,-6.5897,-6.5897,-6.5897,-6.5897,-6.5897,-6.5897,-6.5897,-6.5897,-6.5897,-6.5897,-6.5897,-6.5897,-6.5897,-6.5897,-6.5897,-6.5897,-6.5878,-6.5878,-6.5878,-6.5878,-6.5878,-6.5878,-6.5878,-6.5878,-6.5878,-6.5897,-6.5897,-6.5897,-6.5897,-6.5897,-6.5897,-6.5897,-6.5897,-6.5897,-6.5897,-6.5897,-6.5897,-6.5897,-6.5897,-6.5897,-6.5897,-6.5897,-6.5897,-6.5897,-6.5897,-6.5635,-6.4837,-6.4699,-6.4464,-6.3717,-6.3602,-6.3602,-6.3602,-6.3602,-6.3602,-6.3602,-6.3602,-6.3602,-6.3602,-6.3602,-6.3602,-6.3602,-6.3602,-6.3602,-6.3602,-6.3602,-6.3602,-6.3602,-6.44,-6.4744,-6.4604,-6.629,-6.6988,-6.6888,-6.7546,-6.7439,-3.7559,-3.9824,-4.2461,-4.418,-4.793,-5.1836,-5.4336,-5.539,-5.6797,-6.0254,-6.0858,-6.0785,-6.0916,-6.0594,-6.0455,-6.0941,-6.0891,-6.09,-6.1219,-6.1751,-6.2185,-6.2416,-6.2954,-6.3301,-6.3301,-6.3531,-6.3935,-6.4551,-6.4839,-6.5243,-6.5859,-6.5897,-6.5897,-6.5897,-6.5897,-6.5897,-6.5897,-6.5897,-6.5897,-6.5897,-6.5897,-6.5897,-6.5897,-6.5897,-6.5897,-6.5897,-6.5897,-6.5897,-6.5897,-6.5897,-6.5897,-6.584,-6.5224,-6.4993,-6.4916,-6.4301,-6.407,-6.4166,-6.4762,-6.4993,-6.5089,-6.5705,-6.5897,-6.5897,-6.5897,-6.5897,-6.5897,-6.5897,-6.5897,-6.5897,-6.5897,-6.5897,-6.5897,-6.5897,-6.5897,-6.5897,-6.5897,-6.5897,-6.5897,-6.5897,-6.5663,-6.5299,-6.4803,-6.4501,-6.4172,-6.3691,-6.3602,-6.3602,-6.3602,-6.3602,-6.3602,-6.3602,-6.3602,-6.3602,-6.3602,-6.3602,-6.3602,-6.3602,-6.3511,-6.3511,-6.362,-6.3602,-6.3602,-6.3602,-6.44,-6.4744,-6.4604,-6.5619,-6.6057,-6.5907,-6.5992,-6.5941,-3.8574,-4.1348,-4.4375,-4.6113,-5.0176,-5.4355,-5.6777,-5.7734,-5.8789,-6.1191,-6.1333,-6.1054,-6.125,-6.0925,-6.0682,-6.0957,-6.0888,-6.0823,-6.0891,-6.1289,-6.157,-6.157,-6.2012,-6.232,-6.232,-6.2627,-6.3031,-6.357,-6.3897,-6.432,-6.4839,-6.4878,-6.5032,-6.5378,-6.5378,-6.5551,-6.5897,-6.5897,-6.5724,-6.5378,-6.5378,-6.5205,-6.4897,-6.557,-6.5897,-6.5897,-6.5897,-6.5897,-6.5859,-6.5532,-6.5378,-6.5301,-6.4416,-6.4089,-6.4032,-6.3493,-6.3301,-6.3378,-6.3897,-6.432,-6.4686,-6.5205,-6.5609,-6.5897,-6.5897,-6.5897,-6.5897,-6.5897,-6.5897,-6.5897,-6.5897,-6.5628,-6.5474,-6.582,-6.5897,-6.5897,-6.5897,-6.5897,-6.5897,-6.5897,-6.5709,-6.5407,-6.5009,-6.4647,-6.4272,-6.3897,-6.3717,-6.3602,-6.3602,-6.3602,-6.3602,-6.3602,-6.3602,-6.3602,-6.3602,-6.3602,-6.3557,-6.3511,-6.3447,-6.34,-6.3465,-6.3511,-6.3557,-6.3602,-6.4039,-6.4188,-6.4029,-6.4783,-6.5041,-6.4926,-6.5206,-6.5136,-4.041,-4.3574,-4.6641,-4.8535,-5.2363,-5.6504,-5.9785,-6.0527,-6.0742,-6.1543,-6.1055,-6.067,-6.1192,-6.0646,-6.0291,-6.0901,-6.0891,-6.0846,-6.0914,-6.0846,-6.08,-6.08,-6.08,-6.08,-6.08,-6.1512,-6.1993,-6.2089,-6.2781,-6.3224,-6.3301,-6.3301,-6.3666,-6.4455,-6.4474,-6.4859,-6.5647,-6.5647,-6.5263,-6.4474,-6.4474,-6.407,-6.3358,-6.4936,-6.5647,-6.5647,-6.5647,-6.5647,-6.559,-6.4801,-6.4474,-6.4397,-6.3531,-6.3185,-6.3185,-6.3108,-6.307,-6.3089,-6.3166,-6.3762,-6.4493,-6.457,-6.5186,-6.5897,-6.5897,-6.5897,-6.5897,-6.5897,-6.5897,-6.5878,-6.5801,-6.5186,-6.4782,-6.5493,-6.5724,-6.5801,-6.5878,-6.5853,-6.5853,-6.5853,-6.5827,-6.5663,-6.5268,-6.489,-6.4538,-6.419,-6.383,-6.3602,-6.3602,-6.3602,-6.3602,-6.3602,-6.3602,-6.3602,-6.3602,-6.3602,-6.3557,-6.34,-6.34,-6.3354,-6.3213,-6.3307,-6.3447,-6.3557,-6.3447,-6.3307,-6.3213,-6.3806,-6.4026,-6.3998,-6.4732,-6.4677,-3.9844,-4.2676,-4.6035,-4.9141,-5.418,-5.8906,-6.0957,-6.1426,-6.1465,-6.166,-6.1502,-6.1334,-6.1304,-6.11,-6.0961,-6.1002,-6.0939,-6.0894,-6.0963,-6.0877,-6.08,-6.08,-6.08,-6.08,-6.08,-6.0973,-6.1358,-6.205,-6.2262,-6.2627,-6.3281,-6.3301,-6.3397,-6.357,-6.3589,-6.3666,-6.3858,-6.3858,-6.3782,-6.3589,-6.3589,-6.3493,-6.332,-6.3685,-6.3858,-6.3858,-6.3858,-6.3858,-6.3839,-6.3666,-6.3589,-6.3512,-6.2685,-6.2358,-6.2281,-6.1589,-6.1339,-6.1435,-6.2108,-6.2897,-6.3685,-6.4378,-6.5186,-6.5897,-6.5897,-6.5897,-6.5897,-6.5897,-6.5897,-6.5743,-6.5051,-6.4743,-6.4474,-6.3974,-6.4378,-6.507,-6.5743,-6.5635,-6.5427,-6.5427,-6.5188,-6.4856,-6.4502,-6.4368,-6.419,-6.3786,-6.3647,-6.3602,-6.3602,-6.3602,-6.3602,-6.3602,-6.3602,-6.3602,-6.3602,-6.3602,-6.3557,-6.34,-6.3307,-6.3213,-6.3213,-6.3213,-6.3307,-6.3447,-6.3307,-6.3213,-6.3213,-6.3235,-6.3229,-6.3099,-6.3264,-6.3246,-4.1152,-4.4238,-4.8008,-5.2715,-5.625,-5.9023,-6.0703,-6.1074,-6.1191,-6.1601,-6.1674,-6.1568,-6.1348,-6.1322,-6.1255,-6.104,-6.1055,-6.1072,-6.1002,-6.0943,-6.0877,-6.0823,-6.08,-6.08,-6.08,-6.08,-6.0993,-6.1435,-6.1473,-6.1647,-6.2089,-6.2108,-6.23,-6.2704,-6.2724,-6.2916,-6.3301,-6.3301,-6.3108,-6.2724,-6.2724,-6.2512,-6.2127,-6.2935,-6.3301,-6.3301,-6.3301,-6.3301,-6.3281,-6.2878,-6.2724,-6.2647,-6.18,-6.1473,-6.1416,-6.0973,-6.08,-6.0858,-6.132,-6.2031,-6.2801,-6.3262,-6.3974,-6.4666,-6.4666,-6.4666,-6.4666,-6.4666,-6.4666,-6.4551,-6.4109,-6.3685,-6.3397,-6.332,-6.3647,-6.4064,-6.4358,-6.425,-6.418,-6.4407,-6.4267,-6.4209,-6.4407,-6.433,-6.4046,-6.3647,-6.3602,-6.3602,-6.3602,-6.3602,-6.3602,-6.3602,-6.3602,-6.3602,-6.3602,-6.3602,-6.3511,-6.3307,-6.326,-6.3165,-6.3002,-6.3021,-6.3099,-6.3307,-6.3147,-6.3099,-6.3099,-6.2953,-6.2855,-6.2805,-6.2805,-6.2805,-4.2012,-4.5801,-5.0312,-5.6211,-5.7793,-5.8301,-5.9844,-6.0293,-6.0605,-6.1328,-6.1592,-6.1634,-6.1379,-6.1434,-6.1419,-6.1126,-6.1214,-6.1246,-6.1053,-6.1001,-6.0944,-6.0804,-6.08,-6.08,-6.08,-6.08,-6.08,-6.08,-6.08,-6.08,-6.08,-6.08,-6.1127,-6.1839,-6.1877,-6.2204,-6.2858,-6.2878,-6.2531,-6.1877,-6.1877,-6.1493,-6.0839,-6.2243,-6.2878,-6.2878,-6.2878,-6.2878,-6.282,-6.2147,-6.1877,-6.18,-6.1069,-6.08,-6.08,-6.08,-6.08,-6.08,-6.08,-6.1358,-6.2089,-6.2089,-6.2647,-6.3301,-6.3301,-6.3301,-6.3301,-6.3301,-6.3301,-6.3281,-6.3128,-6.2589,-6.2224,-6.2762,-6.2878,-6.2861,-6.2881,-6.2854,-6.2879,-6.3228,-6.3303,-6.3517,-6.4198,-6.4178,-6.3981,-6.3647,-6.3602,-6.3602,-6.3602,-6.3602,-6.3602,-6.3602,-6.3602,-6.3602,-6.3602,-6.3602,-6.3511,-6.3213,-6.3213,-6.3069,-6.2805,-6.2805,-6.2904,-6.3117,-6.3002,-6.3002,-6.3002,-6.2855,-6.2805,-6.2805,-6.2805,-6.2805,-3.8945,-4.3984,-5.0176,-5.5449,-5.7344,-5.8164,-5.914,-5.9902,-6.043,-6.0547,-6.1168,-6.1639,-6.1509,-6.1545,-6.1539,-6.145,-6.1354,-6.1265,-6.1186,-6.107,-6.0944,-6.0804,-6.08,-6.08,-6.08,-6.08,-6.08,-6.08,-6.08,-6.08,-6.08,-6.08,-6.0839,-6.0973,-6.0973,-6.1031,-6.1127,-6.1127,-6.1069,-6.0973,-6.0973,-6.0916,-6.08,-6.1031,-6.1127,-6.1127,-6.1127,-6.1127,-6.1127,-6.1012,-6.0973,-6.0954,-6.0839,-6.08,-6.08,-6.08,-6.08,-6.08,-6.08,-6.1358,-6.2089,-6.2089,-6.2647,-6.3301,-6.3301,-6.3301,-6.3301,-6.3301,-6.3301,-6.3147,-6.2435,-6.2166,-6.1935,-6.1281,-6.1127,-6.1531,-6.2925,-6.3004,-6.2727,-6.2416,-6.2464,-6.2569,-6.2681,-6.3252,-6.3647,-6.3602,-6.3602,-6.3602,-6.3602,-6.3602,-6.3602,-6.3602,-6.3602,-6.3602,-6.3602,-6.3602,-6.3511,-6.3213,-6.3213,-6.3069,-6.2805,-6.2805,-6.2823,-6.2855,-6.2823,-6.2904,-6.3002,-6.2855,-6.2805,-6.2805,-6.2805,-6.2805,-4.1758,-4.6191,-5.0625,-5.4824,-5.6152,-5.6797,-5.8164,-5.875,-5.9277,-6.0215,-6.0701,-6.1079,-6.1432,-6.1582,-6.1619,-6.151,-6.1506,-6.149,-6.1372,-6.1208,-6.1053,-6.0923,-6.0853,-6.08,-6.08,-6.08,-6.08,-6.08,-6.08,-6.08,-6.08,-6.08,-6.08,-6.08,-6.08,-6.08,-6.08,-6.08,-6.08,-6.08,-6.08,-6.08,-6.08,-6.08,-6.08,-6.08,-6.08,-6.08,-6.08,-6.08,-6.08,-6.08,-6.08,-6.08,-6.08,-6.08,-6.08,-6.08,-6.08,-6.105,-6.1358,-6.1358,-6.1608,-6.1897,-6.1897,-6.1897,-6.1897,-6.1897,-6.1897,-6.182,-6.1454,-6.1358,-6.1262,-6.0877,-6.08,-6.0993,-6.1743,-6.1658,-6.137,-6.1271,-6.203,-6.2598,-6.2438,-6.3082,-6.3602,-6.3602,-6.3602,-6.3602,-6.3602,-6.3602,-6.3602,-6.3602,-6.3602,-6.3602,-6.3602,-6.3602,-6.3511,-6.3307,-6.326,-6.3099,-6.2904,-6.2855,-6.2805,-6.2805,-6.2805,-6.2805,-6.2904,-6.2805,-6.2805,-6.2805,-6.2805,-6.2805,-4.3301,-4.6738,-4.9433,-5.3086,-5.4492,-5.5371,-5.6894,-5.7578,-5.8242,-5.951,-5.9936,-6.0318,-6.108,-6.1486,-6.166,-6.1567,-6.1621,-6.1657,-6.1523,-6.1334,-6.1147,-6.102,-6.0899,-6.08,-6.08,-6.08,-6.08,-6.08,-6.08,-6.08,-6.08,-6.08,-6.08,-6.08,-6.08,-6.08,-6.08,-6.08,-6.08,-6.08,-6.08,-6.08,-6.08,-6.08,-6.08,-6.08,-6.08,-6.08,-6.08,-6.08,-6.08,-6.08,-6.08,-6.08,-6.08,-6.08,-6.08,-6.08,-6.08,-6.08,-6.08,-6.08,-6.08,-6.08,-6.08,-6.08,-6.08,-6.08,-6.08,-6.08,-6.08,-6.08,-6.08,-6.08,-6.08,-6.08,-6.08,-6.0546,-6.0292,-6.0297,-6.1375,-6.2267,-6.2129,-6.2766,-6.3305,-6.3305,-6.3305,-6.323,-6.3026,-6.3007,-6.3007,-6.3007,-6.3175,-6.3305,-6.3305,-6.349,-6.3557,-6.34,-6.3057,-6.2852,-6.2689,-6.2561,-6.2511,-6.2511,-6.2713,-6.2805,-6.2805,-6.2805,-6.2805,-6.2805,-6.2805,-6.2695,-4.0254,-4.2715,-4.5078,-4.9394,-5.2285,-5.4316,-5.5234,-5.6719,-5.7928,-5.8004,-5.8635,-5.9422,-6.03,-6.1134,-6.1696,-6.1696,-6.1696,-6.164,-6.1509,-6.1336,-6.1147,-6.102,-6.0899,-6.08,-6.08,-6.08,-6.08,-6.08,-6.08,-6.08,-6.08,-6.08,-6.08,-6.08,-6.08,-6.08,-6.08,-6.08,-6.08,-6.08,-6.08,-6.08,-6.08,-6.08,-6.08,-6.08,-6.08,-6.08,-6.08,-6.08,-6.08,-6.08,-6.08,-6.08,-6.08,-6.08,-6.08,-6.08,-6.08,-6.08,-6.08,-6.08,-6.08,-6.08,-6.08,-6.08,-6.08,-6.08,-6.08,-6.08,-6.08,-6.08,-6.08,-6.08,-6.08,-6.08,-6.08,-6.0546,-6.0208,-5.988,-6.0278,-6.075,-6.1199,-6.193,-6.2469,-6.2469,-6.2469,-6.219,-6.1428,-6.1317,-6.1317,-6.1317,-6.2023,-6.2469,-6.2469,-6.3175,-6.3557,-6.34,-6.2568,-6.2003,-6.1861,-6.1716,-6.1649,-6.1649,-6.242,-6.2805,-6.2805,-6.2805,-6.2805,-6.2805,-6.2805,-6.2401,-3.9492,-4.1582,-4.3633,-4.6894,-4.9648,-5.1777,-5.2617,-5.457,-5.6385,-5.6946,-5.7746,-5.859,-5.9402,-6.0276,-6.1052,-6.1603,-6.1701,-6.1671,-6.1634,-6.148,-6.1324,-6.1147,-6.102,-6.0901,-6.0823,-6.08,-6.08,-6.08,-6.08,-6.08,-6.08,-6.08,-6.08,-6.08,-6.08,-6.08,-6.08,-6.08,-6.08,-6.08,-6.08,-6.08,-6.08,-6.08,-6.08,-6.08,-6.08,-6.08,-6.08,-6.08,-6.08,-6.08,-6.08,-6.08,-6.08,-6.08,-6.08,-6.08,-6.08,-6.08,-6.08,-6.08,-6.08,-6.08,-6.08,-6.08,-6.08,-6.08,-6.08,-6.08,-6.08,-6.08,-6.08,-6.08,-6.08,-6.08,-6.08,-6.071,-6.0449,-5.9918,-6.0354,-6.0716,-6.0422,-6.1076,-6.1633,-6.1633,-6.1633,-6.154,-6.1243,-6.1206,-6.1206,-6.1206,-6.193,-6.219,-6.167,-6.2376,-6.2573,-6.2034,-6.1522,-6.1218,-6.1172,-6.0937,-6.1062,-6.1575,-6.1887,-6.2291,-6.2805,-6.2805,-6.2548,-6.2034,-6.2034,-6.1594,-3.7969,-3.9824,-4.1894,-4.5078,-4.7168,-4.9043,-5.1328,-5.2949,-5.4394,-5.5868,-5.6614,-5.7367,-5.846,-5.9143,-5.9905,-6.1076,-6.1252,-6.1369,-6.1661,-6.1588,-6.1441,-6.1324,-6.112,-6.0964,-6.0877,-6.0827,-6.08,-6.08,-6.08,-6.08,-6.08,-6.08,-6.08,-6.08,-6.08,-6.08,-6.08,-6.08,-6.08,-6.08,-6.08,-6.08,-6.08,-6.08,-6.08,-6.08,-6.08,-6.08,-6.08,-6.08,-6.08,-6.08,-6.08,-6.08,-6.08,-6.08,-6.08,-6.08,-6.08,-6.08,-6.08,-6.08,-6.08,-6.08,-6.08,-6.08,-6.08,-6.08,-6.08,-6.08,-6.08,-6.08,-6.08,-6.08,-6.08,-6.08,-6.08,-6.08,-6.0641,-6.0091,-6.0387,-6.0648,-6.0321,-6.0644,-6.0971,-6.0971,-6.1087,-6.1001,-6.0425,-6.0611,-6.0667,-6.0388,-6.1094,-6.1354,-6.0815,-6.1521,-6.1781,-6.1243,-6.0689,-6.0387,-6.0387,-6.0157,-6.0254,-6.0786,-6.1062,-6.1594,-6.2401,-6.2401,-6.2126,-6.1575,-6.1318,-6.0915,0.0,0.0,0.0,-4.3769,-4.4863,-4.623,-5.1289,-5.1836,-5.2012,-5.4609,-5.5165,-5.5708,-5.7406,-5.7738,-5.8304,-6.0041,-6.0334,-6.0666,-6.1544,-6.1549,-6.1471,-6.149,-6.1201,-6.1002,-6.1002,-6.0877,-6.08,-6.08,-6.08,-6.08,-6.08,-6.08,-6.08,-6.08,-6.08,-6.08,-6.08,-6.08,-6.08,-6.08,-6.08,-6.08,-6.08,-6.08,-6.08,-6.08,-6.08,-6.08,-6.08,-6.08,-6.08,-6.08,-6.08,-6.08,-6.08,-6.08,-6.08,-6.08,-6.08,-6.08,-6.08,-6.08,-6.08,-6.08,-6.08,-6.08,-6.08,-6.08,-6.08,-6.08,-6.08,-6.08,-6.08,-6.08,-6.08,-6.08,-6.08,-6.08,-6.071,-6.0368,-6.0293,-6.0456,-6.0885,-6.0693,-6.0473,-6.0473,-6.0849,-6.0537,-5.8921,-5.9385,-5.9571,-5.8791,-5.9422,-5.9905,-5.9887,-6.0667,-6.115,-6.1131,-6.0152,-5.9556,-5.9556,-5.9311,-5.9189,-5.9208,-5.9979,-6.0768,-6.1557,-6.1557,-6.1557,-6.1539,-6.0713,-6.0327,-3.4766,0.0,0.0,0.0,0.0,0.0,-4.5723,-4.7461,-4.9199,-5.1133,-5.2046,-5.3204,-5.5552,-5.5981,-5.6547,-5.8246,-5.9046,-5.9768,-6.0646,-6.0729,-6.09,-6.1441,-6.1298,-6.112,-6.102,-6.0877,-6.08,-6.08,-6.08,-6.08,-6.08,-6.08,-6.08,-6.08,-6.08,-6.08,-6.08,-6.08,-6.08,-6.08,-6.08,-6.08,-6.08,-6.08,-6.08,-6.08,-6.08,-6.08,-6.08,-6.08,-6.08,-6.08,-6.08,-6.08,-6.08,-6.08,-6.08,-6.08,-6.08,-6.08,-6.08,-6.08,-6.08,-6.08,-6.08,-6.08,-6.08,-6.08,-6.08,-6.08,-6.08,-6.08,-6.08,-6.08,-6.08,-6.08,-6.08,-6.08,-6.071,-6.0368,-6.0293,-6.0266,-6.0159,-6.0051,-5.9896,-5.9609,-5.9665,-5.9528,-5.8795,-5.8902,-5.8958,-5.8735,-5.9422,-5.9664,-5.9088,-5.9794,-6.0017,-5.9441,-5.9035,-5.8776,-5.8725,-5.8592,-5.8713,-5.9208,-5.9428,-5.9942,-6.0731,-6.0731,-6.0731,-6.0694,-5.9318,-5.8657,-3.5293,-3.6504,-3.8223,-3.9785,0.0,0.0,-4.4726,-4.5937,-4.7305,-5.0078,-5.1053,-5.2084,-5.4346,-5.4752,-5.5201,-5.6547,-5.7172,-5.805,-5.9631,-5.9866,-6.0032,-6.0457,-6.062,-6.0658,-6.0602,-6.071,-6.08,-6.08,-6.08,-6.08,-6.08,-6.08,-6.08,-6.08,-6.08,-6.08,-6.08,-6.08,-6.08,-6.08,-6.08,-6.08,-6.08,-6.08,-6.08,-6.08,-6.08,-6.08,-6.08,-6.08,-6.08,-6.08,-6.08,-6.08,-6.08,-6.08,-6.08,-6.08,-6.08,-6.08,-6.08,-6.08,-6.08,-6.08,-6.08,-6.08,-6.08,-6.08,-6.08,-6.08,-6.08,-6.08,-6.08,-6.08,-6.08,-6.08,-6.08,-6.08,-6.0734,-6.0546,-6.052,-6.0449,-6.0265,-6.0102,-5.995,-5.9687,-5.9734,-5.9553,-5.8964,-5.9101,-5.9069,-5.8754,-5.9125,-5.9218,-5.8754,-5.9144,-5.9218,-5.8735,-5.8553,-5.8468,-5.8462,-5.8286,-5.8373,-5.8759,-5.8712,-5.8933,-5.9391,-5.974,-5.974,-5.9391,-5.8437,-5.7997,-3.6855,-3.7637,-3.9434,-4.1699,-4.1289,0.0,-4.5898,-4.582,-4.5937,-4.9766,-5.0547,-5.1112,-5.295,-5.337,-5.3698,-5.4455,-5.483,-5.5923,-5.8577,-5.8968,-5.8983,-5.9075,-5.9542,-5.9852,-5.9837,-6.0345,-6.0666,-6.0666,-6.0742,-6.0762,-6.0666,-6.0742,-6.08,-6.08,-6.08,-6.08,-6.08,-6.08,-6.08,-6.08,-6.08,-6.08,-6.08,-6.08,-6.08,-6.08,-6.08,-6.08,-6.08,-6.08,-6.08,-6.08,-6.08,-6.08,-6.08,-6.08,-6.08,-6.08,-6.08,-6.08,-6.08,-6.08,-6.08,-6.08,-6.08,-6.08,-6.08,-6.08,-6.08,-6.08,-6.08,-6.08,-6.08,-6.08,-6.08,-6.08,-6.08,-6.08,-6.08,-6.08,-6.08,-6.08,-6.08,-6.0546,-6.0321,-6.0293,-6.035,-6.0135,-5.9309,-5.9521,-5.9497,-5.8791,-5.8716,-5.8716,-5.8716,-5.8716,-5.8716,-5.8716,-5.8614,-5.8511,-5.8468,-5.8331,-5.8197,-5.8197,-5.8042,-5.7997,-5.7997,-5.8822,-5.8804,-5.7997,-5.7997,-5.7997,-3.9238,-3.9902,-4.0801,-4.1308,-4.2207,0.0,-4.2539,-4.3223,-4.4199,-4.5039,-4.5195,-4.5957,-4.8397,-4.9428,-4.9944,-5.0122,-5.1878,-5.4342,-5.7601,-5.805,-5.827,-5.8862,-5.8954,-5.8911,-5.8806,-5.9396,-5.9742,-5.9742,-6.0396,-6.0492,-5.9781,-6.0416,-6.08,-6.08,-6.08,-6.08,-6.08,-6.08,-6.08,-6.08,-6.08,-6.08,-6.08,-6.08,-6.08,-6.08,-6.08,-6.08,-6.08,-6.08,-6.08,-6.08,-6.08,-6.08,-6.08,-6.08,-6.08,-6.08,-6.08,-6.08,-6.08,-6.08,-6.08,-6.08,-6.08,-6.08,-6.08,-6.08,-6.08,-6.08,-6.08,-6.08,-6.08,-6.08,-6.08,-6.08,-6.08,-6.08,-6.08,-6.08,-6.08,-6.08,-6.08,-6.0734,-6.0616,-6.0321,-6.0083,-5.9779,-5.9271,-5.9017,-5.8884,-5.8735,-5.8716,-5.8716,-5.8716,-5.8716,-5.8716,-5.8716,-5.8675,-5.859,-5.8437,-5.8393,-5.8242,-5.8042,-5.7997,-5.7997,-5.7997,-5.8822,-5.8804,-5.7997,-5.7997,-5.7997,-4.1504,-4.1777,-4.2558,-4.2988,-4.3066,0.0,0.0,-4.3066,-4.3418,-4.4726,-4.4316,-4.4492,-4.7129,-4.7597,-4.7885,-4.8759,-5.0676,-5.2651,-5.4361,-5.5357,-5.6031,-5.6413,-5.7089,-5.7456,-5.7304,-5.8335,-5.8967,-5.8896,-5.9685,-5.9954,-5.9511,-6.0319,-6.08,-6.08,-6.08,-6.08,-6.08,-6.08,-6.08,-6.08,-6.08,-6.08,-6.08,-6.08,-6.08,-6.08,-6.08,-6.08,-6.08,-6.08,-6.08,-6.08,-6.08,-6.08,-6.08,-6.08,-6.08,-6.08,-6.08,-6.08,-6.08,-6.08,-6.08,-6.08,-6.08,-6.08,-6.08,-6.08,-6.08,-6.08,-6.08,-6.08,-6.08,-6.08,-6.08,-6.08,-6.08,-6.08,-6.08,-6.08,-6.08,-6.08,-6.08,-6.08,-6.0734,-6.0572,-6.0102,-5.9725,-5.9537,-5.9044,-5.8716,-5.8716,-5.8716,-5.8716,-5.8716,-5.8716,-5.8716,-5.8716,-5.8656,-5.8572,-5.8443,-5.8331,-5.8197,-5.7997,-5.7997,-5.7997,-5.7997,-5.84,-5.84,-5.7997,-5.7997,-5.7997,-4.3769,-4.3789,-4.4492,-4.4707,-4.4062,-4.3555,0.0,0.0,0.0,-4.5156,-4.4433,-4.4141,-4.6426,-4.6269,-4.621,-4.7442,-4.9199,-5.0295,-4.9965,-5.155,-5.294,-5.3405,-5.4839,-5.5666,-5.5359,-5.6504,-5.7487,-5.8014,-5.836,-5.8688,-5.8992,-5.9992,-6.055,-6.055,-6.0704,-6.08,-6.08,-6.08,-6.08,-6.08,-6.08,-6.08,-6.08,-6.08,-6.08,-6.08,-6.08,-6.08,-6.08,-6.08,-6.08,-6.08,-6.08,-6.08,-6.08,-6.08,-6.08,-6.08,-6.08,-6.08,-6.08,-6.08,-6.08,-6.08,-6.08,-6.08,-6.08,-6.08,-6.08,-6.08,-6.08,-6.08,-6.08,-6.08,-6.08,-6.08,-6.08,-6.08,-6.08,-6.08,-6.08,-6.08,-6.08,-6.08,-6.08,-6.08,-6.0237,-5.9791,-5.9791,-5.9159,-5.8716,-5.8716,-5.8716,-5.8716,-5.8716,-5.8716,-5.8716,-5.8656,-5.8553,-5.8468,-5.8425,-5.8268,-5.8088,-5.7997,-5.7997,-5.7997,-5.7997,-5.7997,-5.7997,-5.7997,-5.7997,-5.7997,-4.6152,-4.6484,-4.6621,-4.4394,-4.5449,-4.6074,-4.2441,0.0,-4.3418,-4.2949,0.0,-4.2871,-4.3945,0.0,0.0,-4.3222,-4.5247,-4.6348,-4.479,-4.6739,-4.9124,-5.1258,-5.294,-5.356,-5.2642,-5.2724,-5.4033,-5.6937,-5.5904,-5.5769,-5.7225,-5.8781,-5.9646,-5.9646,-6.0396,-6.08,-6.08,-6.08,-6.08,-6.08,-6.08,-6.08,-6.08,-6.08,-6.08,-6.08,-6.08,-6.08,-6.08,-6.08,-6.08,-6.08,-6.08,-6.08,-6.08,-6.08,-6.08,-6.08,-6.08,-6.08,-6.08,-6.08,-6.08,-6.08,-6.08,-6.08,-6.08,-6.08,-6.08,-6.08,-6.08,-6.08,-6.08,-6.08,-6.08,-6.08,-6.08,-6.08,-6.08,-6.08,-6.08,-6.08,-6.08,-6.08,-6.08,-6.08,-6.0237,-5.9791,-5.9791,-5.9159,-5.8716,-5.8716,-5.8716,-5.8716,-5.8716,-5.8716,-5.8656,-5.8511,-5.8511,-5.8425,-5.8242,-5.8088,-5.7997,-5.7997,-5.7997,-5.7997,-5.7997,-5.7997,-5.7997,-5.7997,-5.7997,-5.7997,-4.6543,-4.6933,-4.7226,-4.5605,-4.5644,-4.5488,-4.3183,-4.2441,-4.2285,-4.2383,0.0,0.0,0.0,0.0,0.0,0.0,-4.4491,-4.511,-4.3872,-4.5528,-4.7213,-4.8248,-4.9391,-5.0486,-5.1424,-5.1457,-5.2357,-5.4688,-5.3783,-5.4072,-5.6126,-5.7376,-5.828,-5.88,-5.9608,-6.005,-6.005,-6.055,-6.08,-6.08,-6.08,-6.08,-6.08,-6.08,-6.08,-6.08,-6.08,-6.08,-6.08,-6.08,-6.08,-6.08,-6.08,-6.08,-6.08,-6.08,-6.08,-6.08,-6.08,-6.08,-6.08,-6.08,-6.08,-6.08,-6.08,-6.08,-6.08,-6.08,-6.08,-6.08,-6.08,-6.08,-6.08,-6.08,-6.08,-6.08,-6.08,-6.08,-6.08,-6.08,-6.08,-6.08,-6.08,-6.08,-6.0734,-6.0546,-6.0102,-5.9725,-5.9467,-5.9005,-5.8716,-5.8716,-5.8716,-5.8716,-5.8716,-5.8614,-5.8553,-5.8511,-5.84,-5.8268,-5.8088,-5.8042,-5.7997,-5.7997,-5.7997,-5.7997,-5.7997,-5.7997,-5.7997,-5.7997,-5.7997,-5.7997,-4.6953,-4.7285,-4.7578,-4.5976,-4.5293,-4.4648,-4.332,-4.2422,-4.2051,-4.2637,-4.2676,0.0,0.0,0.0,-4.3242,-4.3633,0.0,-4.4256,-4.316,-4.4284,-4.5323,-4.5561,-4.6317,-4.7665,-4.9821,-4.9326,-4.9894,-5.2431,-5.1452,-5.2011,-5.4857,-5.6049,-5.6934,-5.7569,-5.8627,-5.9165,-5.9165,-5.98,-6.0223,-6.0435,-6.0435,-6.0569,-6.08,-6.08,-6.08,-6.08,-6.08,-6.08,-6.08,-6.08,-6.08,-6.08,-6.08,-6.08,-6.08,-6.08,-6.08,-6.08,-6.08,-6.08,-6.08,-6.08,-6.08,-6.08,-6.08,-6.08,-6.08,-6.08,-6.08,-6.08,-6.08,-6.08,-6.08,-6.08,-6.08,-6.08,-6.08,-6.08,-6.08,-6.08,-6.08,-6.0757,-6.0666,-6.0734,-6.0685,-6.0349,-6.0011,-5.9639,-5.9233,-5.8887,-5.8716,-5.8716,-5.8656,-5.8656,-5.8656,-5.8529,-5.8443,-5.8425,-5.8223,-5.8088,-5.7997,-5.7997,-5.7997,-5.7997,-5.7997,-5.7997,-5.7997,-5.7997,-5.7997,-5.7997,-5.7997,-5.7997,-4.8027,-4.8183,-4.8047,-4.4629,-4.4394,-4.4355,-4.1855,-4.248,-4.3633,-4.3652,-4.498,-4.6152,-4.6211,-4.5508,-4.4648,-4.3828,-4.3711,0.0,0.0,-4.201,-4.2831,-4.3683,-4.4432,-4.5538,-4.7166,-4.5163,-4.5728,-5.053,-4.8701,-4.9084,-5.3068,-5.4857,-5.5742,-5.578,-5.7453,-5.8338,-5.8338,-5.8377,-5.8781,-5.955,-5.955,-5.9973,-6.08,-6.08,-6.08,-6.08,-6.08,-6.08,-6.08,-6.08,-6.08,-6.08,-6.08,-6.08,-6.08,-6.08,-6.08,-6.08,-6.08,-6.08,-6.08,-6.08,-6.08,-6.08,-6.08,-6.08,-6.08,-6.08,-6.08,-6.08,-6.08,-6.08,-6.08,-6.08,-6.08,-6.08,-6.08,-6.08,-6.08,-6.08,-6.08,-6.071,-6.0368,-6.0591,-6.0685,-6.0349,-6.0011,-5.9639,-5.9233,-5.8887,-5.8716,-5.8716,-5.8553,-5.8511,-5.8511,-5.8462,-5.8349,-5.8197,-5.8088,-5.7997,-5.7997,-5.7997,-5.7997,-5.7997,-5.7997,-5.7997,-5.7997,-5.7997,-5.7997,-5.7997,-5.7997,-5.7997,-4.8613,-4.9101,-4.9062,-4.6152,-4.5644,-4.5176,-4.2598,-4.2871,-4.3535,-4.2969,-4.4687,-4.6113,-4.5547,-4.5195,-4.4707,-4.3848,-4.3223,-4.2461,0.0,-4.1426,-4.1719,-4.2011,-4.3203,-4.4213,-4.4752,-4.3981,-4.5055,-4.8916,-4.7395,-4.8044,-5.2125,-5.3414,-5.4318,-5.4895,-5.6549,-5.7434,-5.7434,-5.8011,-5.8434,-5.8704,-5.9261,-5.9646,-5.9954,-6.0531,-6.08,-6.08,-6.08,-6.08,-6.08,-6.08,-6.08,-6.08,-6.08,-6.08,-6.08,-6.08,-6.08,-6.08,-6.08,-6.08,-6.08,-6.08,-6.08,-6.08,-6.08,-6.08,-6.08,-6.08,-6.08,-6.08,-6.08,-6.08,-6.08,-6.08,-6.08,-6.08,-6.08,-6.08,-6.08,-6.08,-6.08,-6.069,-6.0368,-6.0395,-6.0246,-5.9654,-5.9484,-5.9252,-5.8926,-5.8762,-5.8656,-5.8572,-5.8511,-5.8468,-5.8418,-5.8331,-5.8197,-5.8106,-5.8042,-5.7997,-5.7997,-5.7997,-5.7997,-5.7997,-5.7997,-5.7997,-5.7997,-5.7997,-5.7997,-5.7997,-5.7997,-5.7997,-4.9433,-4.9766,-4.9648,-4.7344,-4.6758,-4.6152,-4.3848,-4.4238,-4.4844,-4.3965,-4.5371,-4.6699,-4.6426,-4.5625,-4.4824,-4.4258,-4.3164,-4.2012,0.0,-4.0996,-4.1074,-4.0762,-4.1933,-4.2731,-4.2713,-4.2638,-4.3857,-4.6842,-4.6304,-4.7357,-5.0856,-5.2414,-5.3453,-5.401,-5.5665,-5.653,-5.653,-5.7088,-5.753,-5.7838,-5.8357,-5.8761,-5.9088,-5.9646,-5.9915,-5.9935,-6.0204,-6.0339,-6.0358,-6.0666,-6.08,-6.08,-6.08,-6.08,-6.08,-6.08,-6.08,-6.08,-6.08,-6.08,-6.08,-6.08,-6.08,-6.08,-6.08,-6.08,-6.08,-6.08,-6.08,-6.08,-6.08,-6.08,-6.08,-6.08,-6.08,-6.0777,-6.0641,-6.0616,-6.0616,-6.0616,-6.052,-6.0395,-6.0179,-5.9992,-5.9753,-5.927,-5.9215,-5.9083,-5.8739,-5.8656,-5.8614,-5.8511,-5.8425,-5.8356,-5.8242,-5.8197,-5.8088,-5.7997,-5.7997,-5.7997,-5.7997,-5.7997,-5.7997,-5.7997,-5.7997,-5.7997,-5.7997,-5.7997,-5.7997,-5.7997,-5.7997,-5.7997]}]]